[[{"header":{"parameterUnit":"m.s-1","parameterCategory":1,"la1":31.0,"la2":29.5877,"lo1":-88.7671,"lo2":-86.6584,"dx":0.0162,"dy":0.0185,"nx":115,"ny":88,"refTime":"2022-11-17T06:00:00:Z","depth":0,"parameterNumber":2,"parameterNumberName":"U-component_of_WINDS"},"data":[0.0,0.0,0.0,0.0,0.0,0.0,0.0,0.0,0.0,0.0,0.0,0.0,0.0,0.0,0.0,0.0,0.0,0.0,0.0,0.0,0.0,0.0,0.0,0.0,0.0,0.0,0.0,0.0,0.0,0.0,0.0,0.0,0.0,0.0,0.0,0.0,0.0,0.0,0.0,0.0,0.0,0.0,0.0,0.0,0.0,0.0,0.0,0.0,0.0,0.0,0.0,0.0,0.0,0.0,0.0,0.0,0.0,0.0,0.0,0.0,0.0,0.0,0.0,0.0,0.0,0.0,0.0,0.0,0.0,0.0,0.0,0.0,0.0,0.0,0.0,0.0,0.0,0.0,0.0,0.0,0.0,0.0,0.0,0.0,0.0,0.0,0.0,0.0,0.0,0.0,0.0,0.0,0.0,0.0,0.0,0.0,0.0,0.0,0.0,0.0,0.0,0.0,0.0,0.0,0.0,0.0,0.0,0.0,0.0,0.0,0.0,0.0,0.0,0.0,0.0,0.0,0.0,0.0,0.0,0.0,0.0,0.0,0.0,0.0,0.0,0.0,0.0,0.0,0.0,0.0,0.0,0.0,0.0,0.0,0.0,0.0,0.0,0.0,0.0,0.0,0.0,0.0,0.0,0.0,0.0,0.0,0.0,0.0,0.0,0.0,0.0,0.0,0.0,0.0,0.0,0.0,0.0,0.0,0.0,0.0,0.0,0.0,0.0,0.0,0.0,0.0,0.0,0.0,0.0,0.0,0.0,0.0,0.0,0.0,0.0,0.0,0.0,0.0,0.0,0.0,0.0,0.0,0.0,0.0,0.0,0.0,0.0,0.0,0.0,0.0,0.0,0.0,0.0,0.0,0.0,0.0,0.0,0.0,0.0,0.0,0.0,0.0,0.0,0.0,0.0,0.0,0.0,0.0,0.0,0.0,0.0,0.0,0.0,0.0,0.0,0.0,0.0,0.0,0.0,0.0,0.0,0.0,0.0,0.0,0.0,0.0,0.0,0.0,0.0,0.0,0.0,0.0,0.0,0.0,0.0,0.0,0.0,0.0,0.0,0.0,0.0,0.0,0.0,0.0,0.0,0.0,0.0,0.0,0.0,0.0,0.0,0.0,0.0,0.0,0.0,0.0,0.0,0.0,0.0,0.0,0.0,0.0,0.0,0.0,0.0,0.0,0.0,0.0,0.0,0.0,0.0,0.0,0.0,0.0,0.0,0.0,0.0,0.0,0.0,0.0,0.0,0.0,0.0,0.0,0.0,0.0,0.0,0.0,0.0,0.0,0.0,0.0,0.0,0.0,0.0,0.0,0.0,0.0,0.0,0.0,0.0,0.0,0.0,0.0,0.0,0.0,0.0,0.0,0.0,0.0,0.0,0.0,0.0,0.0,0.0,0.0,0.0,0.0,0.0,0.0,0.0,0.0,0.0,0.0,0.0,0.0,0.0,0.0,0.0,0.0,0.0,0.0,0.0,0.0,0.0,0.0,0.0,0.0,0.0,0.0,0.0,0.0,0.0,0.0,0.0,0.0,0.0,0.0,0.0,0.0,0.0,0.0,0.0,0.0,0.0,0.0,0.0,0.0,0.0,0.0,0.0,0.0,0.0,0.0,0.0,0.0,0.0,0.0,0.0,0.0,0.0,0.0,0.0,0.0,0.0,0.0,0.0,0.0,0.0,0.0,0.0,0.0,0.0,0.0,0.0,0.0,0.0,0.0,0.0,0.0,0.0,0.0,0.0,0.0,0.0,0.0,0.0,0.0,0.0,0.0,0.0,0.0,0.0,0.0,0.0,0.0,0.0,0.0,0.0,0.0,0.0,0.0,0.0,0.0,0.0,0.0,0.0,0.0,0.0,0.0,0.0,0.0,0.0,0.0,0.0,0.0,0.0,0.0,0.0,0.0,0.0,0.0,0.0,0.0,0.0,0.0,0.0,0.0,0.0,0.0,0.0,0.0,0.0,0.0,0.0,0.0,0.0,0.0,0.0,0.0,0.0,0.0,0.0,0.0,0.0,0.0,0.0,0.0,0.0,0.0,0.0,0.0,0.0,0.0,0.0,0.0,0.0,0.0,0.0,0.0,0.0,0.0,0.0,0.0,0.0,0.0,0.0,0.0,0.0,0.0,0.0,0.0,0.0,0.0,0.0,0.0,0.0,0.0,0.0,0.0,0.0,0.0,0.0,0.0,0.0,0.0,0.0,0.0,0.0,0.0,0.0,0.0,0.0,0.0,0.0,0.0,0.0,0.0,0.0,0.0,0.0,0.0,0.0,0.0,0.0,0.0,0.0,0.0,0.0,0.0,0.0,0.0,0.0,0.0,0.0,0.0,0.0,0.0,0.0,0.0,0.0,0.0,0.0,0.0,0.0,0.0,0.0,0.0,0.0,0.0,0.0,0.0,0.0,0.0,0.0,0.0,0.0,0.0,0.0,0.0,0.0,0.0,0.0,0.0,0.0,0.0,0.0,0.0,0.0,0.0,0.0,0.0,0.0,0.0,0.0,0.0,0.0,0.0,0.0,0.0,0.0,0.0,0.0,0.0,0.0,0.0,0.0,0.0,0.0,0.0,0.0,0.0,0.0,0.0,0.0,0.0,0.0,0.0,0.0,0.0,0.0,0.0,0.0,0.0,0.0,0.0,0.0,0.0,0.0,0.0,0.0,0.0,0.0,0.0,0.0,0.0,0.0,0.0,0.0,0.0,0.0,0.0,0.0,0.0,0.0,0.0,0.0,0.0,0.0,0.0,0.0,0.0,0.0,0.0,0.0,0.0,0.0,0.0,0.0,0.0,0.0,0.0,0.0,0.0,0.0,0.0,0.0,0.0,0.0,0.0,0.0,0.0,0.0,0.0,0.0,0.0,0.0,0.0,0.0,0.0,0.0,0.0,0.0,0.0,0.0,0.0,0.0,0.0,0.0,0.0,0.0,0.0,0.0,0.0,0.0,0.0,0.0,0.0,0.0,0.0,0.0,0.0,0.0,0.0,0.0,0.0,0.0,0.0,0.0,0.0,0.0,0.0,0.0,0.0,0.0,0.0,0.0,0.0,0.0,0.0,0.0,0.0,0.0,0.0,0.0,0.0,0.0,0.0,0.0,0.0,0.0,0.0,0.0,0.0,0.0,0.0,0.0,0.0,0.0,0.0,0.0,0.0,0.0,0.0,0.0,0.0,0.0,0.0,0.0,0.0,0.0,0.0,0.0,0.0,0.0,0.0,0.0,0.0,0.0,0.0,0.0,0.0,0.0,0.0,0.0,0.0,0.0,0.0,0.0,0.0,0.0,0.0,0.0,0.0,0.0,0.0,0.0,0.0,0.0,0.0,0.0,0.0,0.0,0.0,0.0,0.0,0.0,0.0,0.0,0.0,0.0,0.0,0.0,0.0,0.0,0.0,0.0,0.0,0.0,0.0,0.0,0.0,0.0,0.0,0.0,0.0,0.0,0.0,0.0,0.0,0.0,0.0,0.0,0.0,0.0,0.0,0.0,0.0,0.0,0.0,0.0,0.0,0.0,0.0,0.0,0.0,0.0,0.0,0.0,0.0,0.0,0.0,0.0,0.0,0.0,0.0,0.0,0.0,0.0,0.0,0.0,0.0,0.0,0.0,0.0,0.0,0.0,0.0,0.0,0.0,0.0,0.0,0.0,0.0,0.0,0.0,0.0,0.0,0.0,0.0,0.0,0.0,0.0,0.0,0.0,0.0,0.0,0.0,0.0,0.0,0.0,0.0,0.0,0.0,0.0,0.0,0.0,0.0,0.0,0.0,0.0,0.0,0.0,0.0,0.0,0.0,0.0,0.0,0.0,0.0,0.0,0.0,0.0,0.0,0.0,0.0,0.0,0.0,0.0,0.0,0.0,0.0,0.0,0.0,0.0,0.0,0.0,0.0,0.0,0.0,0.0,0.0,0.0,0.0,0.0,0.0,0.0,0.0,0.0,0.0,0.0,0.0,0.0,0.0,0.0,0.0,0.0,0.0,0.0,0.0,0.0,0.0,0.0,0.0,0.0,0.0,0.0,0.0,0.0,0.0,0.0,0.0,0.0,0.0,0.0,0.0,0.0,0.0,0.0,0.0,0.0,0.0,0.0,0.0,0.0,0.0,0.0,0.0,0.0,0.0,0.0,0.0,0.0,0.0,0.0,0.0,0.0,0.0,0.0,0.0,0.0,0.0,0.0,0.0,0.0,0.0,0.0,0.0,0.0,0.0,0.0,0.0,0.0,0.0,0.0,0.0,0.0,0.0,0.0,0.0,0.0,0.0,2.1155,0.0,0.0,0.0,1.9798,0.0,0.0,0.0,0.0,0.0,0.0,0.0,0.0,0.0,0.0,0.0,0.0,0.0,0.0,0.0,0.0,0.0,0.0,0.0,0.0,0.0,0.0,0.0,0.0,0.0,0.0,0.0,0.0,0.0,0.0,0.0,0.0,0.0,0.0,0.0,0.0,0.0,0.0,0.0,0.0,0.0,0.0,0.0,0.0,0.0,0.0,0.0,0.0,0.0,0.0,0.0,0.0,0.0,0.0,0.0,0.0,0.0,0.0,0.0,0.0,0.0,0.0,0.0,0.0,0.0,0.0,0.0,0.0,0.0,0.0,0.0,0.0,0.0,0.0,0.0,0.0,0.0,0.0,0.0,0.0,0.0,0.0,0.0,0.0,0.0,0.0,0.0,0.0,0.0,0.0,0.0,0.0,0.0,0.0,0.0,0.0,0.0,0.0,0.0,0.0,0.0,0.0,0.0,0.0,0.0,0.0,0.0,0.0,0.0,0.0,2.1834,2.1568,2.1018,2.0579,2.0275,0.0,0.0,0.0,0.0,0.0,0.0,0.0,0.0,0.0,0.0,0.0,0.0,0.0,0.0,0.0,0.0,0.0,0.0,0.0,0.0,0.0,0.0,0.0,0.0,0.0,0.0,0.0,0.0,0.0,0.0,0.0,0.0,0.0,0.0,0.0,0.0,0.0,0.0,0.0,0.0,0.0,0.0,0.0,0.0,0.0,0.0,0.0,0.0,0.0,0.0,0.0,0.0,0.0,0.0,0.0,0.0,0.0,0.0,0.0,0.0,0.0,0.0,0.0,0.0,0.0,0.0,0.0,0.0,0.0,0.0,0.0,0.0,0.0,0.0,0.0,0.0,0.0,0.0,0.0,0.0,0.0,0.0,0.0,0.0,0.0,0.0,0.0,0.0,0.0,0.0,0.0,0.0,0.0,0.0,0.0,0.0,0.0,0.0,0.0,0.0,0.0,0.0,0.0,0.0,0.0,0.0,0.0,0.0,0.0,0.0,0.0,0.0,2.1507,2.0888,2.0489,0.0,0.0,0.0,0.0,0.0,0.0,0.0,0.0,0.0,0.0,0.0,0.0,0.0,0.0,0.0,0.0,0.0,0.0,0.0,0.0,0.0,0.0,0.0,0.0,0.0,0.0,0.0,0.0,0.0,0.0,0.0,0.0,0.0,0.0,0.0,0.0,0.0,0.0,0.0,0.0,0.0,0.0,0.0,0.0,0.0,0.0,0.0,0.0,0.0,0.0,0.0,0.0,0.0,0.0,0.0,0.0,0.0,0.0,0.0,0.0,0.0,0.0,0.0,0.0,0.0,0.0,0.0,0.0,0.0,0.0,0.0,0.0,0.0,0.0,0.0,0.0,0.0,0.0,0.0,0.0,0.0,0.0,0.0,0.0,0.0,0.0,0.0,0.0,0.0,0.0,0.0,0.0,0.0,0.0,0.0,0.0,0.0,0.0,0.0,0.0,0.0,0.0,0.0,0.0,0.0,0.0,0.0,0.0,0.0,0.0,2.2794,2.2307,2.2207,0.0,1.9979,0.0,0.0,0.0,0.0,0.0,0.0,0.0,0.0,0.0,0.0,0.0,0.0,0.0,0.0,0.0,0.0,0.0,0.0,0.0,0.0,0.0,0.0,0.0,0.0,0.0,0.0,0.0,0.0,0.0,0.0,0.0,0.0,0.0,0.0,0.0,0.0,0.0,0.0,0.0,0.0,0.0,0.0,0.0,0.0,0.0,0.0,0.0,0.0,0.0,0.0,0.0,0.0,0.0,0.0,0.0,0.0,0.0,0.0,0.0,0.0,0.0,0.0,0.0,0.0,0.0,0.0,0.0,0.0,0.0,0.0,0.0,0.0,0.0,0.0,0.0,0.0,0.0,0.0,0.0,0.0,0.0,0.0,0.0,0.0,0.0,0.0,0.0,0.0,0.0,0.0,0.0,0.0,0.0,0.0,0.0,0.0,0.0,0.0,0.0,0.0,0.0,0.0,0.0,0.0,0.0,0.0,0.0,0.0,0.0,0.0,2.2995,2.2769,2.2458,2.1681,0.0,0.0,0.0,0.0,0.0,0.0,0.0,0.0,0.0,0.0,0.0,0.0,0.0,0.0,0.0,0.0,0.0,0.0,0.0,0.0,0.0,0.0,0.0,0.0,0.0,0.0,0.0,0.0,0.0,0.0,0.0,0.0,0.0,0.0,0.0,0.0,0.0,0.0,0.0,0.0,0.0,0.0,0.0,0.0,0.0,0.0,0.0,0.0,0.0,0.0,0.0,0.0,0.0,0.0,0.0,0.0,0.0,0.0,0.0,0.0,0.0,0.0,0.0,0.0,0.0,0.0,0.0,0.0,0.0,0.0,0.0,0.0,0.0,0.0,0.0,0.0,0.0,0.0,0.0,0.0,0.0,0.0,0.0,0.0,0.0,0.0,0.0,0.0,0.0,0.0,0.0,0.0,0.0,0.0,0.0,0.0,0.0,0.0,0.0,0.0,0.0,0.0,0.0,0.0,0.0,0.0,0.0,0.0,0.0,0.0,2.3095,2.3095,2.307,2.2583,2.1945,2.1169,0.0,0.0,0.0,0.0,0.0,0.0,0.0,0.0,0.0,0.0,0.0,0.0,0.0,0.0,0.0,0.0,0.0,0.0,0.0,0.0,0.0,0.0,0.0,0.0,0.0,0.0,0.0,0.0,0.0,0.0,0.0,0.0,0.0,0.0,0.0,0.0,0.0,0.0,0.0,0.0,0.0,0.0,0.0,0.0,0.0,0.0,0.0,0.0,0.0,0.0,0.0,0.0,0.0,0.0,0.0,0.0,0.0,0.0,0.0,0.0,0.0,0.0,0.0,0.0,0.0,0.0,0.0,0.0,0.0,0.0,0.0,0.0,0.0,0.0,0.0,0.0,0.0,0.0,0.0,0.0,0.0,0.0,0.0,0.0,0.0,0.0,0.0,0.0,0.0,0.0,0.0,0.0,0.0,0.0,0.0,0.0,0.0,0.0,0.0,0.0,0.0,0.0,0.0,0.0,0.0,0.0,0.0,0.0,2.312,2.312,2.3095,2.3095,2.2608,2.2282,0.0,0.0,0.0,0.0,0.0,0.0,0.0,0.0,0.0,0.0,0.0,0.0,0.0,0.0,0.0,0.0,0.0,0.0,0.0,0.0,0.0,0.0,0.0,0.0,0.0,0.0,0.0,0.0,0.0,0.0,0.0,0.0,0.0,0.0,0.0,0.0,0.0,0.0,0.0,0.0,0.0,0.0,0.0,0.0,0.0,0.0,0.0,0.0,0.0,0.0,0.0,0.0,0.0,0.0,0.0,0.0,0.0,0.0,0.0,0.0,0.0,0.0,0.0,0.0,0.0,0.0,0.0,0.0,0.0,0.0,0.0,0.0,0.0,0.0,0.0,0.0,0.0,0.0,0.0,0.0,0.0,0.0,0.0,0.0,0.0,0.0,0.0,0.0,0.0,0.0,0.0,0.0,0.0,0.0,0.0,0.0,0.0,0.0,0.0,0.0,0.0,0.0,0.0,0.0,0.0,0.0,0.0,0.0,0.0,2.3687,2.3296,2.3095,2.3095,2.292,2.2644,0.0,0.0,0.0,0.0,0.0,0.0,0.0,0.0,0.0,0.0,0.0,0.0,0.0,0.0,0.0,0.0,0.0,0.0,0.0,0.0,0.0,0.0,0.0,0.0,0.0,0.0,0.0,0.0,0.0,0.0,0.0,0.0,0.0,0.0,0.0,0.0,0.0,0.0,0.0,0.0,0.0,0.0,0.0,0.0,0.0,0.0,0.0,0.0,0.0,0.0,0.0,0.0,0.0,0.0,0.0,0.0,0.0,0.0,0.0,0.0,0.0,0.0,0.0,0.0,0.0,0.0,0.0,0.0,0.0,0.0,0.0,0.0,0.0,0.0,0.0,0.0,0.0,0.0,0.0,0.0,0.0,0.0,0.0,0.0,0.0,0.0,0.0,0.0,0.0,0.0,0.0,0.0,0.0,0.0,0.0,0.0,0.0,0.0,0.0,0.0,0.0,0.0,0.0,0.0,0.0,0.0,0.0,0.0,0.0,2.4264,2.3847,2.3572,2.3396,2.3396,2.3135,0.0,0.0,0.0,0.0,0.0,0.0,0.0,0.0,0.0,0.0,0.0,0.0,0.0,0.0,0.0,0.0,0.0,0.0,0.0,0.0,0.0,0.0,0.0,0.0,0.0,0.0,0.0,0.0,0.0,0.0,0.0,0.0,0.0,0.0,0.0,0.0,0.0,0.0,0.0,0.0,0.0,0.0,0.0,0.0,0.0,0.0,0.0,0.0,0.0,0.0,0.0,0.0,0.0,0.0,0.0,0.0,0.0,0.0,0.0,0.0,0.0,0.0,0.0,0.0,0.0,0.0,0.0,0.0,0.0,0.0,0.0,0.0,0.0,0.0,0.0,0.0,0.0,0.0,0.0,0.0,0.0,0.0,0.0,0.0,0.0,0.0,0.0,0.0,0.0,0.0,0.0,0.0,0.0,0.0,0.0,0.0,0.0,0.0,0.0,0.0,0.0,0.0,0.0,0.0,0.0,0.0,0.0,0.0,2.4825,2.48,2.4791,2.449,2.4029,2.3979,2.3712,0.0,0.0,0.0,0.0,0.0,0.0,0.0,0.0,0.0,0.0,0.0,0.0,0.0,0.0,0.0,0.0,0.0,0.0,0.0,0.0,0.0,0.0,0.0,0.0,0.0,0.0,0.0,0.0,0.0,0.0,0.0,0.0,0.0,0.0,0.0,0.0,0.0,0.0,0.0,0.0,0.0,0.0,0.0,0.0,0.0,0.0,0.0,0.0,0.0,0.0,0.0,0.0,0.0,0.0,0.0,0.0,0.0,0.0,0.0,0.0,0.0,0.0,0.0,0.0,0.0,0.0,0.0,0.0,0.0,0.0,0.0,0.0,0.0,0.0,0.0,0.0,0.0,0.0,0.0,0.0,0.0,0.0,0.0,0.0,0.0,0.0,0.0,0.0,0.0,0.0,0.0,0.0,0.0,0.0,0.0,0.0,0.0,0.0,0.0,0.0,0.0,0.0,0.0,0.0,0.0,0.0,0.0,0.0,0.0,2.5385,2.4992,2.4716,2.454,2.4205,2.3913,0.0,0.0,0.0,0.0,0.0,0.0,0.0,0.0,0.0,0.0,0.0,0.0,0.0,0.0,0.0,0.0,0.0,0.0,0.0,0.0,0.0,0.0,0.0,0.0,0.0,0.0,0.0,0.0,0.0,0.0,0.0,0.0,0.0,0.0,0.0,0.0,0.0,0.0,0.0,0.0,0.0,0.0,0.0,0.0,0.0,0.0,0.0,0.0,0.0,0.0,0.0,0.0,0.0,0.0,0.0,0.0,0.0,0.0,0.0,0.0,0.0,0.0,0.0,0.0,0.0,0.0,0.0,0.0,0.0,0.0,0.0,0.0,0.0,0.0,0.0,0.0,0.0,0.0,0.0,0.0,0.0,0.0,0.0,0.0,0.0,0.0,0.0,0.0,0.0,0.0,0.0,0.0,0.0,0.0,0.0,0.0,0.0,0.0,0.0,0.0,0.0,0.0,0.0,0.0,0.0,0.0,0.0,0.0,0.0,2.6841,2.6297,2.5946,2.572,2.5209,2.4808,2.4566,0.0,0.0,0.0,0.0,0.0,0.0,0.0,0.0,0.0,0.0,0.0,0.0,0.0,0.0,0.0,0.0,0.0,0.0,0.0,0.0,0.0,0.0,0.0,0.0,0.0,0.0,0.0,0.0,0.0,0.0,0.0,0.0,0.0,0.0,0.0,0.0,0.0,0.0,0.0,0.0,0.0,0.0,0.0,0.0,0.0,0.0,0.0,0.0,0.0,0.0,0.0,0.0,0.0,0.0,0.0,0.0,0.0,0.0,0.0,0.0,0.0,0.0,0.0,0.0,0.0,0.0,0.0,0.0,0.0,0.0,0.0,0.0,0.0,0.0,0.0,0.0,0.0,0.0,0.0,0.0,0.0,0.0,0.0,0.0,0.0,0.0,0.0,0.0,0.0,0.0,0.0,0.0,0.0,0.0,0.0,0.0,0.0,0.0,0.0,0.0,0.0,0.0,0.0,0.0,0.0,0.0,0.0,0.0,2.8963,2.8555,2.8021,2.7386,2.6834,2.6298,0.0,0.0,0.0,0.0,0.0,0.0,0.0,0.0,0.0,0.0,0.0,0.0,0.0,0.0,0.0,0.0,0.0,0.0,0.0,0.0,0.0,0.0,0.0,0.0,0.0,0.0,0.0,0.0,0.0,0.0,0.0,0.0,0.0,0.0,0.0,0.0,0.0,0.0,0.0,0.0,0.0,0.0,0.0,0.0,0.0,0.0,0.0,0.0,0.0,0.0,0.0,0.0,0.0,0.0,0.0,0.0,0.0,0.0,0.0,0.0,0.0,0.0,0.0,0.0,0.0,0.0,0.0,0.0,0.0,0.0,0.0,0.0,0.0,0.0,0.0,0.0,0.0,0.0,0.0,0.0,0.0,0.0,0.0,0.0,0.0,0.0,0.0,0.0,0.0,0.0,0.0,0.0,0.0,0.0,0.0,0.0,0.0,0.0,0.0,0.0,0.0,0.0,0.0,0.0,0.0,0.0,0.0,0.0,0.0,3.0161,3.0789,3.0287,2.8555,2.7971,2.7236,0.0,0.0,0.0,0.0,0.0,0.0,0.0,0.0,0.0,0.0,0.0,0.0,0.0,0.0,0.0,0.0,0.0,0.0,0.0,0.0,0.0,0.0,0.0,0.0,0.0,0.0,0.0,0.0,0.0,0.0,0.0,0.0,0.0,0.0,0.0,0.0,0.0,0.0,0.0,0.0,0.0,0.0,0.0,0.0,0.0,0.0,0.0,0.0,0.0,0.0,0.0,0.0,0.0,0.0,0.0,0.0,0.0,0.0,0.0,0.0,0.0,0.0,0.0,0.0,0.0,0.0,0.0,0.0,0.0,0.0,0.0,0.0,0.0,0.0,0.0,0.0,0.0,0.0,0.0,0.0,0.0,0.0,0.0,0.0,0.0,0.0,0.0,0.0,0.0,0.0,0.0,0.0,0.0,0.0,0.0,0.0,0.0,0.0,0.0,0.0,0.0,0.0,0.0,0.0,0.0,0.0,0.0,0.0,3.0859,3.1637,3.2696,3.242,3.0708,2.9679,2.8649,0.0,0.0,0.0,0.0,0.0,0.0,0.0,0.0,0.0,0.0,0.0,0.0,0.0,0.0,0.0,0.0,0.0,0.0,0.0,0.0,0.0,0.0,0.0,0.0,0.0,0.0,0.0,0.0,0.0,0.0,0.0,0.0,0.0,0.0,0.0,0.0,0.0,0.0,0.0,0.0,0.0,0.0,0.0,0.0,0.0,0.0,0.0,0.0,0.0,0.0,0.0,0.0,0.0,0.0,0.0,0.0,0.0,0.0,0.0,0.0,0.0,0.0,0.0,0.0,0.0,0.0,0.0,0.0,0.0,0.0,0.0,0.0,0.0,0.0,0.0,0.0,0.0,0.0,0.0,0.0,0.0,0.0,0.0,0.0,0.0,0.0,0.0,0.0,0.0,0.0,0.0,0.0,0.0,0.0,0.0,0.0,0.0,0.0,0.0,0.0,0.0,0.0,0.0,0.0,0.0,0.0,0.0,0.0,3.2135,3.3241,3.4251,3.4301,3.3345,3.1738,3.0262,0.0,0.0,0.0,0.0,0.0,0.0,0.0,0.0,0.0,0.0,0.0,0.0,0.0,0.0,0.0,0.0,0.0,0.0,0.0,0.0,0.0,0.0,0.0,0.0,0.0,0.0,0.0,0.0,0.0,0.0,0.0,0.0,0.0,0.0,0.0,0.0,0.0,0.0,0.0,0.0,0.0,0.0,0.0,0.0,0.0,0.0,0.0,0.0,0.0,0.0,0.0,0.0,0.0,0.0,0.0,0.0,0.0,0.0,0.0,0.0,0.0,0.0,0.0,0.0,0.0,0.0,0.0,0.0,0.0,0.0,0.0,0.0,0.0,0.0,0.0,0.0,0.0,0.0,0.0,0.0,0.0,0.0,0.0,0.0,0.0,0.0,0.0,0.0,0.0,0.0,0.0,0.0,0.0,0.0,0.0,0.0,0.0,0.0,0.0,0.0,0.0,0.0,0.0,0.0,0.0,0.0,0.0,0.0,3.3291,3.4349,3.5004,3.5207,3.5004,3.342,3.1637,0.0,0.0,0.0,0.0,0.0,0.0,0.0,0.0,0.0,0.0,0.0,0.0,0.0,0.0,0.0,0.0,0.0,0.0,0.0,0.0,0.0,0.0,0.0,0.0,0.0,0.0,0.0,0.0,0.0,0.0,0.0,0.0,0.0,0.0,0.0,0.0,0.0,0.0,0.0,0.0,0.0,0.0,0.0,0.0,0.0,0.0,0.0,0.0,2.1964,0.0,0.0,0.0,0.0,0.0,0.0,0.0,0.0,0.0,0.0,0.0,0.0,0.0,0.0,0.0,0.0,0.0,0.0,0.0,0.0,0.0,0.0,0.0,0.0,0.0,0.0,0.0,0.0,0.0,0.0,0.0,0.0,0.0,0.0,0.0,0.0,0.0,0.0,0.0,0.0,0.0,0.0,0.0,0.0,0.0,0.0,0.0,0.0,0.0,0.0,0.0,0.0,0.0,0.0,0.0,0.0,0.0,0.0,0.0,3.4396,3.5454,3.6282,3.6434,3.5906,3.4826,3.3068,0.0,0.0,0.0,0.0,0.0,0.0,0.0,0.0,0.0,0.0,0.0,0.0,0.0,0.0,0.0,0.0,0.0,0.0,0.0,0.0,0.0,0.0,0.0,0.0,0.0,0.0,0.0,0.0,0.0,0.0,0.0,0.0,0.0,0.0,0.0,0.0,0.0,0.0,0.0,0.0,0.0,0.0,0.0,0.0,0.0,0.0,0.0,0.0,0.0,0.0,0.0,0.0,0.0,0.0,0.0,0.0,0.0,0.0,0.0,0.0,0.0,0.0,0.0,0.0,0.0,0.0,0.0,0.0,0.0,0.0,0.0,0.0,0.0,0.0,0.0,0.0,0.0,0.0,0.0,0.0,0.0,0.0,0.0,0.0,0.0,0.0,0.0,0.0,0.0,0.0,0.0,0.0,0.0,0.0,0.0,0.0,0.0,0.0,0.0,0.0,0.0,0.0,0.0,0.0,0.0,0.0,0.0,3.4151,3.5504,3.6607,3.7513,3.7513,3.6532,3.5956,3.4377,3.1738,0.0,0.0,0.0,0.0,0.0,0.0,0.0,0.0,0.0,0.0,0.0,0.0,0.0,0.0,0.0,0.0,0.0,0.0,0.0,0.0,0.0,0.0,0.0,0.0,0.0,0.0,0.0,0.0,0.0,0.0,0.0,0.0,0.0,0.0,0.0,0.0,0.0,0.0,2.3598,2.3836,0.0,0.0,0.0,0.0,0.0,0.0,0.0,0.0,2.4074,0.0,0.0,0.0,0.0,0.0,0.0,0.0,0.0,0.0,0.0,0.0,0.0,0.0,0.0,0.0,0.0,0.0,0.0,0.0,0.0,0.0,0.0,0.0,0.0,0.0,0.0,0.0,0.0,0.0,0.0,0.0,0.0,0.0,0.0,0.0,0.0,0.0,0.0,0.0,0.0,0.0,0.0,0.0,0.0,0.0,0.0,0.0,0.0,0.0,0.0,0.0,0.0,0.0,0.0,0.0,0.0,3.4276,3.5502,3.6632,3.7713,3.7914,3.7713,3.7085,3.6532,3.5175,3.2846,0.0,0.0,0.0,0.0,0.0,0.0,0.0,0.0,0.0,0.0,0.0,0.0,0.0,0.0,0.0,0.0,0.0,0.0,0.0,0.0,0.0,0.0,0.0,0.0,0.0,0.0,0.0,0.0,0.0,0.0,0.0,0.0,0.0,0.0,0.0,0.0,0.0,0.0,0.0,2.4433,2.3971,0.0,0.0,0.0,0.0,0.0,0.0,0.0,0.0,2.4734,0.0,0.0,0.0,0.0,0.0,0.0,0.0,0.0,0.0,0.0,0.0,0.0,0.0,0.0,0.0,0.0,0.0,0.0,0.0,0.0,0.0,0.0,0.0,0.0,0.0,0.0,0.0,0.0,0.0,0.0,0.0,0.0,0.0,0.0,0.0,0.0,0.0,0.0,0.0,0.0,0.0,0.0,0.0,0.0,0.0,0.0,0.0,0.0,0.0,0.0,0.0,0.0,0.0,0.0,0.0,3.4678,3.6358,3.7788,3.8843,3.9446,3.932,3.8517,3.7688,3.608,0.0,0.0,0.0,0.0,0.0,0.0,0.0,0.0,0.0,0.0,0.0,0.0,0.0,0.0,0.0,0.0,0.0,0.0,0.0,0.0,0.0,0.0,0.0,0.0,0.0,0.0,0.0,0.0,0.0,0.0,0.0,0.0,0.0,0.0,0.0,0.0,0.0,0.0,0.0,0.0,2.5336,2.5528,2.5257,0.0,0.0,0.0,0.0,0.0,0.0,2.6105,2.5833,0.0,0.0,0.0,0.0,0.0,0.0,0.0,0.0,0.0,0.0,0.0,0.0,0.0,0.0,0.0,0.0,0.0,0.0,0.0,0.0,0.0,0.0,0.0,0.0,0.0,0.0,0.0,0.0,0.0,0.0,0.0,0.0,0.0,0.0,0.0,0.0,0.0,0.0,0.0,0.0,0.0,0.0,0.0,0.0,0.0,0.0,0.0,0.0,0.0,0.0,0.0,0.0,0.0,0.0,0.0,3.5355,3.7337,3.8894,3.9998,4.0851,4.08,3.9722,3.8743,3.6885,0.0,0.0,0.0,0.0,0.0,0.0,0.0,0.0,0.0,0.0,0.0,0.0,0.0,0.0,0.0,0.0,0.0,0.0,0.0,0.0,0.0,0.0,0.0,0.0,0.0,0.0,0.0,0.0,0.0,0.0,0.0,0.0,0.0,0.0,0.0,0.0,0.0,0.0,0.0,0.0,0.0,2.694,2.653,2.6374,0.0,0.0,0.0,0.0,2.7472,2.7194,0.0,0.0,0.0,0.0,0.0,0.0,0.0,0.0,0.0,0.0,0.0,0.0,0.0,0.0,0.0,0.0,0.0,0.0,0.0,0.0,0.0,0.0,0.0,0.0,0.0,0.0,0.0,0.0,0.0,0.0,0.0,0.0,0.0,0.0,0.0,0.0,0.0,0.0,0.0,0.0,0.0,0.0,0.0,0.0,0.0,0.0,0.0,0.0,0.0,0.0,0.0,0.0,0.0,0.0,0.0,0.0,3.7563,3.8868,4.0049,4.1076,4.1252,4.0775,3.9722,3.912,3.7487,0.0,0.0,0.0,0.0,0.0,0.0,0.0,0.0,0.0,0.0,0.0,0.0,0.0,0.0,0.0,0.0,0.0,0.0,0.0,0.0,0.0,0.0,0.0,0.0,0.0,0.0,0.0,0.0,0.0,0.0,0.0,0.0,0.0,0.0,0.0,0.0,0.0,0.0,0.0,0.0,0.0,2.7071,2.8131,2.7921,2.7966,0.0,0.0,2.7622,2.8253,2.7653,0.0,0.0,0.0,0.0,0.0,0.0,0.0,0.0,0.0,0.0,0.0,0.0,0.0,0.0,0.0,0.0,0.0,0.0,0.0,0.0,0.0,0.0,0.0,0.0,0.0,0.0,0.0,0.0,0.0,0.0,0.0,0.0,0.0,0.0,0.0,0.0,0.0,0.0,0.0,0.0,0.0,0.0,0.0,0.0,0.0,0.0,0.0,0.0,0.0,0.0,0.0,0.0,0.0,0.0,0.0,3.5782,3.794,3.9446,4.0701,4.1781,4.2108,4.1731,4.0625,3.9798,3.804,0.0,0.0,0.0,0.0,0.0,0.0,0.0,0.0,0.0,0.0,0.0,0.0,0.0,0.0,0.0,0.0,0.0,0.0,0.0,0.0,0.0,0.0,0.0,0.0,0.0,0.0,0.0,0.0,0.0,0.0,0.0,0.0,0.0,0.0,0.0,0.0,0.0,0.0,0.0,0.0,0.0,0.0,2.8831,2.891,0.0,0.0,0.0,2.8766,2.9112,0.0,0.0,0.0,0.0,0.0,0.0,0.0,0.0,0.0,0.0,0.0,0.0,0.0,0.0,0.0,0.0,0.0,0.0,0.0,0.0,0.0,0.0,0.0,0.0,0.0,0.0,0.0,0.0,0.0,0.0,0.0,0.0,0.0,0.0,0.0,0.0,0.0,0.0,0.0,0.0,0.0,0.0,0.0,0.0,0.0,0.0,0.0,0.0,0.0,0.0,0.0,0.0,0.0,0.0,0.0,0.0,0.0,3.8391,4.0074,4.1482,4.2562,4.314,4.2861,4.1754,4.0676,0.0,0.0,0.0,0.0,0.0,0.0,0.0,0.0,0.0,0.0,0.0,0.0,0.0,0.0,0.0,0.0,0.0,0.0,0.0,0.0,0.0,0.0,0.0,0.0,0.0,0.0,0.0,1.9868,0.0,0.0,0.0,0.0,0.0,0.0,0.0,0.0,0.0,0.0,0.0,0.0,0.0,0.0,2.8084,2.9265,2.9589,2.9781,0.0,0.0,2.9689,2.9893,2.9555,2.9174,0.0,0.0,0.0,0.0,0.0,0.0,0.0,0.0,0.0,0.0,0.0,0.0,0.0,0.0,0.0,0.0,0.0,0.0,0.0,0.0,0.0,0.0,0.0,0.0,0.0,0.0,0.0,0.0,0.0,0.0,0.0,0.0,0.0,0.0,0.0,0.0,0.0,0.0,0.0,0.0,0.0,0.0,0.0,0.0,0.0,0.0,0.0,0.0,0.0,0.0,0.0,0.0,0.0,0.0,0.0,3.9546,4.123,4.2587,4.3664,4.4188,4.3991,4.2914,4.1779,4.0123,0.0,0.0,0.0,0.0,0.0,0.0,0.0,0.0,0.0,0.0,0.0,0.0,0.0,0.0,0.0,0.0,0.0,0.0,0.0,0.0,0.0,0.0,0.0,0.0,0.0,0.0,0.0,0.0,0.0,0.0,0.0,0.0,0.0,0.0,0.0,0.0,0.0,0.0,0.0,0.0,0.0,2.8548,2.9615,3.0105,3.05,0.0,0.0,3.0095,3.0483,2.9648,2.8953,2.8887,0.0,0.0,0.0,0.0,0.0,0.0,0.0,0.0,0.0,0.0,0.0,0.0,0.0,0.0,0.0,0.0,0.0,0.0,0.0,0.0,0.0,0.0,0.0,0.0,0.0,0.0,0.0,0.0,0.0,0.0,0.0,0.0,0.0,0.0,0.0,0.0,0.0,0.0,0.0,0.0,0.0,0.0,0.0,0.0,0.0,0.0,0.0,0.0,0.0,0.0,0.0,0.0,0.0,3.7369,4.0148,4.1833,4.3187,4.4238,4.4489,4.4213,4.3489,4.2409,4.0953,0.0,0.0,0.0,0.0,0.0,0.0,0.0,0.0,0.0,0.0,0.0,0.0,0.0,0.0,0.0,0.0,0.0,0.0,0.0,0.0,0.0,0.0,0.0,0.0,0.0,0.0,0.0,0.0,2.3319,2.4025,2.454,0.0,0.0,0.0,0.0,0.0,0.0,0.0,0.0,0.0,0.0,2.92,3.0043,3.0626,0.0,0.0,3.056,3.0458,3.0739,3.0409,3.0137,3.0137,2.8879,0.0,0.0,0.0,0.0,0.0,0.0,0.0,0.0,0.0,0.0,0.0,0.0,0.0,0.0,0.0,0.0,0.0,0.0,0.0,0.0,0.0,0.0,0.0,0.0,0.0,0.0,0.0,0.0,0.0,0.0,0.0,0.0,0.0,0.0,0.0,0.0,0.0,0.0,0.0,0.0,0.0,0.0,0.0,0.0,0.0,0.0,0.0,0.0,0.0,0.0,0.0,0.0,3.7664,4.0725,4.2559,4.3991,4.5091,4.5417,4.5271,4.4568,4.3668,4.2146,0.0,0.0,0.0,0.0,0.0,0.0,0.0,0.0,0.0,0.0,0.0,0.0,0.0,0.0,0.0,0.0,0.0,0.0,0.0,0.0,0.0,0.0,0.0,0.0,0.0,0.0,0.0,0.0,2.4476,2.5056,2.5165,0.0,0.0,0.0,0.0,0.0,0.0,0.0,0.0,0.0,0.0,2.983,3.0266,3.1038,3.1416,3.1002,3.0894,3.0935,3.1064,3.0859,3.0684,3.0713,0.0,0.0,0.0,0.0,0.0,0.0,0.0,0.0,0.0,0.0,0.0,0.0,0.0,0.0,0.0,0.0,0.0,0.0,0.0,0.0,0.0,0.0,0.0,0.0,0.0,0.0,0.0,0.0,0.0,0.0,2.4914,0.0,0.0,0.0,0.0,0.0,0.0,0.0,0.0,0.0,0.0,0.0,0.0,0.0,0.0,0.0,0.0,0.0,0.0,0.0,0.0,0.0,0.0,3.8467,4.125,4.3404,4.5087,4.619,4.728,4.7274,4.6245,4.5698,4.3767,4.0367,0.0,0.0,0.0,0.0,0.0,0.0,0.0,0.0,0.0,0.0,0.0,0.0,0.0,0.0,0.0,0.0,0.0,0.0,0.0,0.0,0.0,0.0,0.0,0.0,0.0,0.0,2.4973,2.5849,2.6079,0.0,0.0,0.0,0.0,0.0,0.0,0.0,0.0,0.0,0.0,2.9505,3.048,3.0252,3.1338,3.2013,3.1523,3.1465,3.1465,3.1455,3.0781,3.0215,0.0,0.0,0.0,0.0,0.0,0.0,0.0,0.0,0.0,0.0,0.0,0.0,0.0,0.0,0.0,0.0,0.0,0.0,0.0,0.0,0.0,0.0,0.0,0.0,0.0,0.0,0.0,2.7186,2.71,0.0,0.0,0.0,0.0,0.0,0.0,0.0,0.0,0.0,0.0,0.0,3.0648,3.0816,0.0,0.0,0.0,0.0,0.0,0.0,0.0,0.0,0.0,0.0,0.0,0.0,3.7293,4.0858,4.3227,4.4896,4.597,4.724,4.7608,4.7035,4.5509,4.3214,4.0007,0.0,0.0,0.0,0.0,0.0,0.0,0.0,0.0,0.0,0.0,0.0,0.0,0.0,0.0,0.0,0.0,0.0,0.0,0.0,0.0,0.0,0.0,0.0,0.0,0.0,2.5075,0.0,0.0,0.0,0.0,0.0,0.0,0.0,0.0,0.0,0.0,0.0,2.9146,2.9644,3.0581,3.1162,3.1074,3.1699,3.1944,0.0,0.0,0.0,0.0,0.0,0.0,0.0,0.0,0.0,0.0,0.0,0.0,0.0,0.0,2.9434,2.8254,2.8418,2.8711,2.8711,0.0,0.0,0.0,0.0,0.0,0.0,0.0,0.0,0.0,0.0,0.0,0.0,0.0,0.0,2.8856,0.0,2.8176,0.0,0.0,0.0,0.0,0.0,0.0,0.0,0.0,3.134,3.1989,3.2589,3.2706,3.2789,0.0,3.2789,3.2337,0.0,0.0,0.0,0.0,0.0,0.0,0.0,0.0,3.7116,4.064,4.2765,4.4294,4.5311,4.64,4.6746,4.6319,4.4095,4.1753,3.9345,3.6312,3.3939,0.0,0.0,0.0,0.0,0.0,0.0,0.0,0.0,0.0,0.0,0.0,0.0,0.0,0.0,0.0,0.0,0.0,0.0,0.0,0.0,0.0,0.0,0.0,2.6431,0.0,0.0,0.0,0.0,0.0,0.0,0.0,0.0,0.0,2.9013,2.9674,3.0407,3.0846,3.1495,3.1914,3.1777,0.0,0.0,0.0,0.0,0.0,0.0,0.0,3.2148,3.2765,3.2863,3.2938,3.3209,3.2664,3.2204,3.2185,0.0,0.0,3.0499,3.0373,3.0568,3.0733,3.0741,3.0816,3.1067,3.124,3.1433,0.0,0.0,0.0,0.0,0.0,0.0,0.0,0.0,3.1056,3.145,0.0,3.0512,0.0,0.0,0.0,0.0,0.0,2.9725,0.0,0.0,3.3078,3.3998,3.4848,3.5273,3.55,3.55,3.5449,3.5459,3.5314,3.29,0.0,0.0,0.0,0.0,0.0,0.0,3.7987,4.0509,4.2111,4.3379,4.433,4.4912,4.4945,4.434,4.1849,3.9885,3.853,3.6906,3.4701,3.1957,3.1278,0.0,0.0,0.0,0.0,0.0,0.0,0.0,0.0,0.0,0.0,0.0,0.0,0.0,0.0,0.0,0.0,0.0,0.0,0.0,0.0,2.7851,0.0,0.0,0.0,0.0,0.0,0.0,0.0,0.0,0.0,0.0,3.0209,3.1187,3.184,3.1631,0.0,0.0,0.0,0.0,3.3281,3.2851,3.2812,3.2949,3.3328,3.3125,3.3184,3.4055,0.0,0.0,3.4225,3.3885,3.3652,3.3633,3.404,3.4013,3.3151,3.2575,3.2445,3.2829,3.2904,3.2987,3.303,3.3341,3.3591,3.2148,0.0,0.0,0.0,0.0,3.0864,3.1664,3.2444,3.2714,3.3211,3.375,3.2838,0.0,0.0,0.0,0.0,0.0,0.0,3.3472,3.4456,3.5397,3.6142,3.6754,3.7177,3.7384,3.7384,3.7384,3.7384,3.7363,3.6618,3.5489,3.4043,0.0,0.0,0.0,0.0,3.7517,4.0044,4.1695,4.27,4.3043,4.4243,4.4528,4.3782,4.2715,4.1473,4.0082,3.7413,3.5292,3.3867,3.2239,0.0,0.0,0.0,0.0,0.0,0.0,0.0,0.0,0.0,0.0,0.0,0.0,0.0,0.0,0.0,0.0,0.0,0.0,0.0,2.9141,2.9512,2.9559,0.0,0.0,0.0,0.0,0.0,0.0,0.0,0.0,0.0,3.2838,3.2681,3.2749,0.0,0.0,3.3704,3.3586,3.3762,3.373,3.332,3.3211,0.0,3.3828,3.4316,3.4941,3.5815,3.6472,3.6884,3.6912,3.652,3.6215,3.6197,3.631,3.6417,3.6406,3.515,3.4193,3.425,3.449,3.4784,3.512,3.5498,3.5857,3.4755,3.348,3.2457,3.2154,3.2403,3.305,3.3782,3.4465,3.4672,3.5179,3.5821,3.5096,3.4868,3.5013,3.4238,0.0,0.0,0.0,3.5832,3.6524,3.7227,3.7827,3.8295,3.8585,3.8833,3.8978,3.8999,3.9034,3.9007,3.8822,3.7994,3.6521,0.0,0.0,3.6354,3.6393,3.7366,3.9252,4.0623,4.1432,4.1676,4.2699,4.294,4.2294,4.189,4.1107,3.9922,3.7671,3.5991,3.5024,3.3424,3.1953,0.0,0.0,0.0,0.0,0.0,0.0,0.0,0.0,0.0,0.0,0.0,2.5918,0.0,0.0,0.0,0.0,2.8914,3.0028,3.1348,3.1328,0.0,0.0,0.0,0.0,0.0,0.0,0.0,3.2402,3.3125,3.3945,3.4974,3.4805,3.459,3.4622,3.4746,3.4844,3.4844,0.0,3.5033,3.4746,3.4844,3.5051,3.5345,3.5816,3.6387,3.7113,3.7655,3.8006,3.7988,3.7633,3.7371,3.7315,3.7334,3.7446,3.7727,3.6662,3.5877,3.6021,3.6119,3.6271,3.655,3.6793,3.7073,3.7011,3.6887,3.5241,3.4723,3.5034,3.5459,3.5862,3.6349,3.6784,3.7218,3.7612,3.7218,3.726,3.7632,3.7281,0.0,3.6441,3.7363,3.7964,3.8357,3.882,3.9233,3.9606,3.9654,3.9902,4.028,4.028,4.0309,4.0299,3.9932,3.9531,3.9166,3.7778,3.6855,3.6461,3.6876,3.7564,3.8527,3.9377,4.002,4.0402,4.0841,4.0913,4.0574,4.0179,3.9651,3.8868,3.7903,3.6816,3.5605,3.4707,3.3704,3.2452,0.0,0.0,0.0,0.0,0.0,0.0,0.0,0.0,0.0,0.0,0.0,0.0,0.0,0.0,0.0,3.1397,0.0,3.3555,3.3242,0.0,0.0,0.0,3.2413,3.2452,3.2804,3.334,3.4251,0.0,0.0,3.6695,3.7223,3.7031,3.5898,3.6035,3.623,3.6269,3.6621,3.691,3.6949,3.7246,3.7494,3.7449,3.7571,3.7808,3.8254,3.8215,3.8266,3.819,3.7864,3.7576,3.7521,3.7521,3.7521,3.7482,3.7504,3.7598,3.7908,3.7659,3.7429,3.7431,3.7486,3.7523,3.8861,3.882,3.8386,3.7695,3.6887,3.7343,3.7777,3.8158,3.8282,3.8592,3.9006,3.8903,3.8923,3.9047,3.9661,3.9661,3.9254,3.9827,3.9951,3.9771,4.0551,4.08,4.0593,4.0951,4.1138,4.124,4.0967,4.0844,4.0814,4.0734,4.0455,4.004,3.9625,3.907,3.8357,3.8433,3.8944,3.9861,4.0427,4.0615,4.0435,4.1353,4.1781,4.1686,4.1625,4.1322,4.0816,3.9188,3.7832,3.6894,3.6016,3.5117,3.4141,3.2871,0.0,0.0,0.0,0.0,0.0,0.0,0.0,0.0,0.0,2.8867,3.0204,0.0,3.1113,0.0,3.3281,3.4453,3.5312,3.5019,0.0,0.0,3.4375,3.4238,3.459,3.4726,3.5234,3.6406,3.6621,3.7031,3.8008,3.8532,3.8769,3.8789,3.832,3.8086,3.8398,3.8516,3.873,3.9062,3.9182,3.9284,3.9202,3.949,3.9809,4.0298,4.009,3.9813,3.9515,3.9083,3.8673,3.838,3.8307,3.8307,3.8325,3.8307,3.8346,3.8406,3.8147,3.7869,3.7869,3.8069,3.8307,3.9813,3.9833,4.0019,3.9682,3.8999,3.8854,3.8882,3.9109,3.9109,3.9482,4.0158,4.0572,4.0737,4.0779,4.1312,4.1395,4.1151,4.1415,4.1286,4.0864,4.1336,4.1366,4.0959,4.1191,4.1323,4.1323,4.112,4.0913,4.0726,4.0726,4.0532,4.0127,4.0107,4.0071,3.9952,3.9574,3.9605,4.0118,4.0574,4.0785,4.0773,4.1381,4.1701,4.1719,4.1499,4.1278,4.1036,3.9857,3.8769,3.7946,3.7402,3.6582,3.5351,3.4434,3.3379,0.0,0.0,0.0,0.0,0.0,0.0,0.0,0.0,0.0,0.0,0.0,3.3105,3.4141,3.5215,3.6133,3.6762,3.6836,3.6816,3.6797,3.6582,3.6558,3.6777,3.6816,3.7226,3.832,3.8457,3.8769,3.9609,4.0098,4.0449,4.0723,4.0683,4.0487,4.0176,4.0238,4.0414,4.0666,4.0839,4.087,4.0662,4.0565,4.0584,4.0748,4.0492,4.0143,3.9921,3.9722,3.9428,3.9226,3.9171,3.9171,3.9171,3.9171,3.9171,3.9153,3.8988,3.8713,3.8365,3.8435,3.86,4.0268,4.0309,4.0717,4.0939,4.0939,4.0075,3.9668,3.9688,3.9688,4.0179,4.1042,4.1912,4.2327,4.2389,4.2451,4.243,4.2389,4.243,4.2188,4.162,4.1742,4.1539,4.1088,4.1111,4.1113,4.1174,4.1136,4.093,4.0668,4.063,4.0499,4.0215,4.0215,4.0581,4.1202,4.0528,4.0162,4.0215,4.0586,4.0957,4.1367,4.1328,4.1328,4.1348,4.0918,4.0684,4.0664,4.0234,3.9629,3.8904,3.8672,3.791,3.6426,3.584,3.5019,0.0,3.3359,0.0,0.0,0.0,0.0,0.0,0.0,0.0,0.0,3.4153,3.5137,3.6328,3.7109,3.7715,3.8144,3.8574,3.8828,3.8828,3.8904,3.8943,3.8906,3.8943,3.9256,4.0059,4.0137,4.0449,4.123,4.1739,4.1973,4.207,4.2556,4.2594,4.1873,4.1806,4.195,4.2006,4.2226,4.2114,4.1816,4.1175,4.0722,4.0644,4.0409,4.0038,4.0024,3.9964,3.9946,3.9872,3.9817,3.9836,3.9872,3.9854,3.9854,3.9817,3.9799,3.9579,3.9006,3.8801,3.8765,4.0758,4.0758,4.0841,4.1125,4.1415,4.0862,4.0613,4.0613,4.0613,4.0959,4.1498,4.2058,4.2493,4.2807,4.318,4.3159,4.2807,4.3201,4.2727,4.164,4.2374,4.229,4.1608,4.1624,4.1829,4.2108,4.1816,4.1759,4.2013,4.2013,4.1973,4.1953,4.1913,4.1973,4.213,0.0,0.0,0.0,4.1991,4.2069,4.2187,4.2148,4.2187,4.2187,4.1777,0.0,4.1543,4.082,4.0294,4.0137,3.9141,0.0,0.0,0.0,0.0,0.0,0.0,0.0,0.0,0.0,0.0,0.0,3.6152,3.6133,3.5996,3.7066,3.7969,3.8535,3.875,3.9023,3.9473,3.9902,4.0156,4.0176,4.0469,4.0722,4.0722,4.0722,4.0879,4.1367,4.1445,4.1641,4.2148,4.2558,4.2969,4.3301,4.3499,4.3597,4.3694,4.3417,4.3411,4.3672,4.3183,4.2788,4.2678,4.1959,4.1445,4.1409,4.1139,4.0772,4.046,4.0405,4.0258,4.0001,3.9872,3.9909,3.9891,3.9872,3.9928,3.9891,3.9891,3.9836,3.9689,3.9652,3.9652,4.0918,0.0,4.0918,4.1187,0.0,4.1104,4.1042,4.1229,4.1001,4.1187,4.1622,4.2099,4.243,4.26,4.2828,4.2932,4.2894,4.3159,4.2799,4.2049,4.2474,4.2351,4.1734,4.1796,4.1994,4.2368,4.2189,4.2187,4.2382,4.2382,4.2382,4.2401,4.2637,4.2851,4.3066,4.3455,4.324,4.2401,4.2382,4.2382,4.2382,4.2382,4.2382,4.2382,0.0,0.0,0.0,0.0,0.0,0.0,0.0,0.0,0.0,0.0,0.0,3.7305,3.709,3.7007,3.6973,3.6973,3.7379,3.8239,3.9043,3.916,3.8376,3.8867,3.9492,4.0117,4.0351,4.0586,4.082,4.1211,4.1426,4.1445,4.1855,4.2149,4.2129,4.2305,4.2598,4.2988,4.3086,4.3242,4.3611,4.3887,4.4101,4.4294,4.4346,4.4395,4.4501,4.4043,4.3698,4.3853,4.3559,4.3209,4.3128,4.2702,4.2222,4.1996,4.1647,4.1286,4.0864,4.0974,4.0974,4.0607,4.0644,4.0735,4.0515,4.0478,4.0478,4.0478,4.0497,4.0497,4.046,4.0166,3.9872,4.0918,4.0918,4.0918,4.1193,4.1685,4.1146,4.1125,4.1457,0.0,0.0,0.0,4.1995,4.2223,4.2285,4.2315,4.2464,4.2658,4.2785,4.2596,4.2192,4.2253,4.2107,4.1797,4.1797,4.2051,4.2519,4.2539,4.2578,4.2616,4.2616,4.2695,4.2752,4.3125,4.3557,4.3965,4.4626,4.4274,4.2909,4.285,4.2891,4.285,4.285,4.2851,4.2773,4.2655,4.2577,4.2539,4.2129,4.1758,4.1406,4.0976,4.041,3.9707,3.959,3.9394,3.9099,3.908,3.906,3.908,3.906,3.9375,4.0176,4.1348,4.1523,4.0312,4.0293,4.0644,4.1348,4.1777,4.2031,4.2031,4.248,4.2733,4.2773,4.3164,4.3459,4.3437,4.3711,4.4043,4.4433,4.4453,4.4587,4.4732,4.4869,4.4923,4.4834,4.4736,4.4783,4.4652,4.4109,4.3676,4.3575,4.346,4.3489,4.3426,4.314,4.2791,4.2417,4.2094,4.1727,4.147,4.1598,4.1629,4.1396,4.1574,4.1616,4.1396,4.1323,4.1323,4.1323,4.1249,4.1213,4.1158,4.0625,4.0166,4.0918,4.0918,4.0918,4.1415,4.212,4.127,4.0959,4.1001,4.0903,4.1187,4.1602,4.1664,4.1912,4.229,4.229,4.2082,4.18,4.2269,4.2032,4.1314,4.1671,4.1855,4.1836,4.1797,4.2207,4.293,4.2988,4.3164,4.3496,4.3516,4.373,4.4062,4.418,4.4433,4.4824,4.4918,4.486,4.4668,4.4626,4.4626,4.4668,4.4606,4.445,4.4121,4.373,4.3359,4.2988,4.2578,4.2324,4.2206,4.1836,4.1562,4.1426,4.1074,4.0898,4.0859,4.0839,4.0839,4.0839,4.0801,4.1054,4.1523,4.2383,4.2519,4.1641,4.1855,4.2089,4.2266,4.2676,4.291,4.299,4.3613,4.4062,4.4121,4.4492,4.4704,4.4707,4.4743,4.4863,4.4961,4.4941,4.4791,4.4628,4.4813,4.4895,4.4456,4.446,4.4214,4.3948,4.3941,4.3915,4.3615,4.3481,4.3481,4.3444,4.3195,4.292,4.2846,4.2498,4.2161,4.2075,4.2149,4.2142,4.213,4.2167,4.2124,4.2094,4.2149,4.2075,4.2039,4.1837,4.161,4.1592,4.1249,4.0919,4.1664,4.1664,4.1664,4.2058,4.258,4.2166,4.1835,4.1664,4.1664,4.1643,4.1586,4.1595,4.1711,4.1879,4.1695,4.1629,4.167,4.1885,4.1819,4.1495,4.1911,4.2112,4.2129,4.2383,4.2812,4.3398,4.3418,4.3516,4.3711,4.3945,4.418,4.4414,4.4844,4.5293,4.5683,4.5723,4.5723,4.5703,4.5254,4.5039,4.5039,4.5039,4.4922,4.4726,4.4531,4.4336,4.4141,4.3476,4.3125,4.3125,4.248,4.2148,4.2129,4.1953,4.1855,4.1855,4.1855,4.1973,4.2227,4.2656,4.3008,4.3223,4.3789,4.3965,4.3594,4.3516,4.3594,4.3767,4.4023,4.4141,4.4141,4.4492,4.4726,4.4726,4.5117,4.5371,4.541,4.5605,4.5723,4.5723,4.5723,4.5636,4.542,4.5377,4.5275,4.4987,4.4586,4.4015,4.3589,4.3678,4.3748,4.3526,4.3481,4.3481,4.3481,4.3353,4.3158,4.2957,4.2755,4.2553,4.2406,4.2436,4.2534,4.2387,4.2479,4.2534,4.2406,4.2314,4.2271,4.2271,4.2204,4.2014,4.1977,4.1892,4.1635,4.2285,4.2285,4.2285,4.2456,4.2766,4.287,4.2663,4.2327,4.2278,4.2097,4.1792,4.174,4.1694,4.1583,4.1275,4.1311,4.1537,4.1581,4.1609,4.1715,4.2052,4.2329,4.2441,4.2871,4.3301,4.3652,4.3691,4.375,4.3906,4.4238,4.4512,4.4746,4.5449,4.5976,4.6289,4.6308,4.6308,4.6269,4.5644,4.5312,4.5312,4.527,4.5273,4.5176,4.5176,4.5137,4.4957,4.4355,4.4004,4.3965,4.3379,4.2967,4.3008,4.2967,4.2967,4.3008,4.2967,4.3164,4.3516,4.4141,4.4531,4.4551,4.4922,4.5156,4.5156,4.498,4.4863,4.4977,4.5058,4.5137,4.5156,4.5273,4.5312,4.5332,4.5605,4.5801,4.584,4.6113,4.6265,4.6177,4.6133,4.6051,4.5826,4.5519,4.5191,4.4908,4.4503,4.3926,4.357,4.3481,4.3481,4.3481,4.3481,4.3481,4.3481,4.3481,4.3353,4.3085,4.3048,4.2993,4.2839,4.303,4.314,4.3012,4.3067,4.3122,4.2828,4.2681,4.2619,4.2637,4.2116,4.1622,4.1409,4.1956,4.2044,4.2306,4.2285,4.2348,4.2306,4.2493,4.2787,4.2725,4.2377,4.2331,4.2307,4.2246,4.2249,4.1994,4.1623,4.1618,4.1441,4.1216,4.1246,4.1288,4.1347,4.168,4.2031,4.248,4.2891,4.3301,4.3691,4.375,4.3984,4.4316,4.4394,4.4847,4.5527,4.6016,4.625,4.6308,4.6308,4.6308,4.6308,4.623,4.6191,4.6191,4.6191,4.6016,4.5625,4.5625,4.543,4.5098,4.4899,4.4902,4.4902,4.4743,4.4766,4.4704,4.4723,4.4766,4.4704,4.4723,4.4762,4.4782,4.4922,4.498,4.4957,4.5371,4.5605,4.5625,4.5918,4.5781,4.5312,4.541,4.5605,4.5644,4.5918,4.6094,4.6074,4.6152,4.625,4.623,4.6269,4.6133,4.5675,4.5816,4.5387,4.4826,4.4522,4.4237,4.3926,4.3793,4.3633,4.3544,4.3536,4.3554,4.3518,4.3455,4.3447,4.3491,4.3499,4.3518,4.3463,4.3463,4.3447,4.354,4.3578,4.3923,4.2854,4.3805,4.3551,4.355,4.3646,4.3256,4.2648,4.1612,4.007,3.9919,4.0842,4.1655,4.3221,4.3449,4.347,4.3674,4.3922,4.407,4.3896,4.3521,4.3492,4.332,4.3126,4.3138,4.2618,4.1715,4.1512,4.1304,4.1188,4.121,4.1308,4.1562,4.1973,4.2519,4.3183,4.3633,4.4082,4.4453,4.4492,4.459,4.4785,4.5019,4.5469,4.5996,4.623,4.6308,4.6308,4.6308,4.6308,4.6308,4.6543,4.668,4.6641,4.6426,4.623,4.6074,4.6035,4.5976,4.5781,4.5547,4.541,4.5391,4.5176,4.5039,4.5039,4.5039,4.5039,4.4996,4.5273,4.541,4.541,4.5644,4.5781,4.5781,4.5937,4.6055,4.6055,4.6211,4.6133,4.5879,4.5937,4.6055,4.6055,4.6211,4.6308,4.6308,4.6308,4.6308,4.6308,4.6523,4.6439,4.6061,4.6184,4.5955,4.5102,4.452,4.4034,4.3615,4.3499,4.3536,4.3518,4.3683,4.3829,4.3731,4.3089,4.2898,4.3542,4.3848,4.3876,4.4059,4.4196,4.4152,4.2753,4.264,4.2324,4.1412,4.2082,4.2548,4.2467,4.2552,4.2365,4.1866,4.0729,3.8971,3.8582,3.9155,3.9632,4.4174,4.4484,4.4484,4.4691,4.4981,4.5041,4.4706,4.4312,4.4173,4.3916,4.3559,4.34,4.2863,4.2033,4.1798,4.168,4.1523,4.1523,4.168,4.1992,4.2402,4.3008,4.3691,4.418,4.4629,4.498,4.5019,4.5078,4.5234,4.5644,4.6016,4.6269,4.6308,4.6308,4.6308,4.6308,4.6308,4.6328,4.6577,4.6714,4.6699,4.6465,4.6348,4.6445,4.6465,4.6426,4.6289,4.6016,4.5859,4.5883,4.5547,4.5371,4.5371,4.5371,4.5371,4.541,4.5664,4.584,4.5859,4.6133,4.6308,4.6308,4.6308,4.6308,4.6308,4.6308,4.6308,4.6289,4.6308,4.6289,4.6308,4.6308,4.6308,4.6308,4.6387,4.6465,4.6504,4.6703,4.6644,4.628,4.6202,4.6155,4.5401,4.4734,4.4226,4.3956,4.3848,4.3451,4.3136,4.3143,4.3168,4.2665,4.1428,4.1601,4.2947,4.251,4.2853,4.2838,4.2632,4.2076,4.114,4.0986,4.0962,4.0403,4.0663,4.0735,4.0859,4.0842,4.0367,3.9897,3.9017,3.7961,3.7351,3.7711,3.8069,4.494,4.496,4.4981,4.5022,4.5002,4.5043,4.4747,4.4334,4.3936,4.3519,4.3141,4.2761,4.2462,4.2403,4.2782,4.2763,4.2384,4.2305,4.2324,4.2441,4.2851,4.3281,4.373,4.418,4.4648,4.5074,4.5113,4.5293,4.5664,4.6055,4.6289,4.6308,4.6308,4.6308,4.6328,4.6348,4.6308,4.6406,4.6484,4.6406,4.6406,4.6367,4.6562,4.6836,4.6831,4.666,4.6348,4.6289,4.6269,4.6269,4.6211,4.6211,4.6211,4.6211,4.6191,4.6211,4.623,4.6269,4.625,4.6289,4.6308,4.6308,4.6308,4.6308,4.6308,4.6308,4.6308,4.6308,4.6348,4.6348,4.6348,4.6328,4.6328,4.6367,4.666,4.6792,4.687,4.6863,4.66,4.6166,4.5632,4.5103,4.4682,4.4728,4.4206,4.4097,4.4334,4.3702,4.2001,4.1652,4.1005,3.974,3.9113,3.9349,4.1005,4.0865,3.9599,3.9809,4.0396,3.9257,3.9196,3.9228,3.9259,3.9258,3.918,3.9117,3.9101,3.8655,3.7783,3.7465,3.7735,3.7085,3.5828,3.7327,3.7457,4.5167,4.5457,4.5747,4.581,4.5831,4.555,4.5188,4.4724,4.434,4.3894,4.3528,4.3283,4.3242,4.3242,4.3405,4.3071,4.2401,4.2382,4.2578,4.2851,4.3281,4.3848,4.4551,4.5019,4.543,4.5801,4.584,4.5918,4.6055,4.623,4.6308,4.6308,4.6308,4.6426,4.666,4.6699,4.6836,4.7109,4.7363,4.7383,4.7148,4.7383,4.7363,4.6889,4.666,4.6465,4.6308,4.6308,4.6308,4.6308,4.6308,4.6308,4.6308,4.6308,4.6308,4.6308,4.6308,4.6308,4.6308,4.6308,4.6308,4.6308,4.6308,4.6308,4.6308,4.6308,4.6308,4.6348,4.6582,4.6655,4.666,4.6465,4.6406,4.668,4.6792,4.6937,4.7254,4.7308,4.7059,4.6301,4.4809,4.3304,4.2877,4.177,4.0758,4.0741,4.0758,4.0494,3.9994,3.9842,3.9608,3.8894,3.7994,3.7454,3.8036,3.8973,3.9005,3.926,3.9339,3.847,3.8092,3.7587,3.7463,3.6667,3.6761,3.7467,3.7422,3.7313,3.6256,3.5327,3.5572,3.5545,3.4101,3.5376,3.5357,4.5522,4.5712,4.5981,4.6023,4.5861,4.5576,4.5209,4.48,4.4493,4.4123,4.3733,4.3691,4.3691,4.3691,4.3691,4.3418,4.2871,4.2851,4.3008,4.3301,4.373,4.4316,4.5,4.5469,4.5898,4.623,4.6308,4.6308,4.6308,4.6308,4.6308,4.6308,4.6426,4.6596,4.687,4.7026,4.7305,4.7598,4.7871,4.7851,4.7656,4.7851,4.7754,4.7187,4.6738,4.6426,4.6308,4.6308,4.6308,4.6308,4.6308,4.6308,4.6308,4.6308,4.6308,4.6308,4.6308,4.6308,4.6308,4.6308,4.6308,4.6308,4.6308,4.6348,4.6465,4.6504,4.6562,4.6738,4.6953,4.7104,4.6848,4.6609,4.6373,4.6223,4.6088,4.5898,4.5589,4.527,4.4839,4.4032,4.2588,4.1543,4.1224,3.9929,3.9244,3.8862,3.8862,3.8719,3.8095,3.8075,3.7906,3.7338,3.6167,3.5543,3.5726,3.6241,3.6559,3.6834,3.7301,3.68,3.6635,3.6055,3.5528,3.4496,3.4537,3.5391,3.5749,3.5742,3.4965,3.3812,3.3873,3.4165,3.3494,3.3318,3.3704,4.6043,4.5759,4.5719,4.5535,4.5229,4.5106,4.482,4.4551,4.4469,4.424,4.3887,4.3789,4.3848,4.3789,4.3867,4.375,4.373,4.3711,4.3711,4.3769,4.4219,4.4648,4.5098,4.5547,4.5937,4.6289,4.6308,4.6308,4.6308,4.6308,4.6308,4.6367,4.6699,4.685,4.6953,4.7363,4.7598,4.7715,4.7773,4.7695,4.7643,4.7676,4.7637,4.75,4.7129,4.6777,4.6387,4.6328,4.6308,4.6308,4.6308,4.6308,4.6308,4.6308,4.6308,4.6348,4.6328,4.6328,4.6367,4.6406,4.6445,4.6465,4.6387,4.6601,4.6875,4.6933,4.7026,4.7274,4.723,4.7154,4.6612,4.6276,4.5894,4.4847,4.4792,4.3909,4.2382,4.1037,4.0368,4.0255,3.9868,3.9705,3.9657,3.8979,3.8592,3.8656,3.8705,3.812,3.6638,3.6338,3.5536,3.4372,3.4141,3.4359,3.3868,3.3514,3.3577,3.3804,3.4268,3.4373,3.4816,3.4647,3.4885,3.4154,3.4181,3.4944,3.4968,3.4913,3.4692,3.3841,3.3641,3.3507,3.3454,3.3414,3.3374,4.6226,4.6064,4.58,4.5759,4.5757,4.526,4.5088,4.524,4.4946,4.4736,4.4609,4.4609,4.4567,4.4609,4.4567,4.4567,4.4609,4.4609,4.4453,4.4355,4.4922,4.5312,4.5508,4.5898,4.6172,4.6289,4.6308,4.6308,4.6308,4.6308,4.6308,4.6387,4.6738,4.709,4.7383,4.7793,4.8125,4.8483,4.8503,4.832,4.8047,4.8008,4.7891,4.7598,4.7441,4.7305,4.7168,4.6621,4.6328,4.6328,4.6308,4.6308,4.6308,4.6308,4.6445,4.6655,4.6694,4.6894,4.7148,4.7168,4.7148,4.7168,4.7168,4.7246,4.7344,4.7274,4.7172,4.6921,4.6075,4.5169,4.4559,4.3527,4.3779,4.5741,4.4743,4.3504,4.2532,4.125,4.032,3.9624,3.8405,3.7621,3.7243,3.6588,3.5762,3.5713,3.5663,3.5167,3.4635,3.4612,3.43,3.3514,3.3547,3.3734,3.3734,3.3788,3.3855,3.3814,3.3774,3.3814,3.3975,3.4108,3.4242,3.4349,3.4376,3.4389,3.4362,3.4282,3.4215,3.4175,3.4068,3.3921,3.3788,3.3708,3.3681,4.6475,4.6291,4.5879,4.5731,4.5764,4.5198,4.5146,4.5382,4.5104,4.5039,4.5019,4.5019,4.5039,4.5039,4.5039,4.5039,4.4996,4.5176,4.5137,4.4961,4.5371,4.5664,4.5723,4.6113,4.6308,4.6308,4.6308,4.6308,4.6308,4.6308,4.6308,4.6387,4.6875,4.7305,4.7617,4.8164,4.8659,4.8874,4.8894,4.8776,4.8496,4.8457,4.832,4.8066,4.7891,4.7812,4.7754,4.7129,4.6777,4.6777,4.6777,4.6777,4.6777,4.6797,4.6894,4.709,4.7187,4.7305,4.7584,4.7584,4.7623,4.7623,4.7623,4.7141,4.6674,4.6394,4.6021,4.4762,4.3808,4.3009,4.2381,4.163,4.2062,4.3727,4.2222,4.1052,4.0368,3.8862,3.7753,3.6933,3.6059,3.5465,3.4983,3.4485,3.3414,3.3414,3.3414,3.3414,3.344,3.3571,3.3561,3.3654,3.3855,3.3988,3.4055,3.4148,3.4269,3.4202,3.4122,3.4189,3.4309,3.4416,3.4536,3.471,3.4776,3.4803,3.4776,3.4589,3.4482,3.4469,3.4429,3.4215,3.4042,3.4042,3.4002,4.6794,4.6394,4.5952,4.5551,4.5229,4.5101,4.516,4.5137,4.5156,4.5195,4.5176,4.5215,4.5176,4.5094,4.5234,4.5234,4.5176,4.5527,4.5703,4.5664,4.5805,4.5781,4.584,4.6152,4.6289,4.6308,4.6308,4.6308,4.6308,4.6308,4.6308,4.6387,4.709,4.7603,4.7779,4.8464,4.8855,4.8894,4.8894,4.8894,4.8855,4.8874,4.8855,4.8796,4.8437,4.8242,4.8183,4.7851,4.7598,4.7578,4.7506,4.7506,4.7584,4.7558,4.7564,4.7578,4.7617,4.7656,4.7676,4.7412,4.7347,4.7321,4.6913,4.6531,4.4714,4.4303,4.3644,4.1947,4.1217,4.0737,4.0271,3.9625,3.9576,3.9219,3.8557,3.6923,3.4086,3.385,3.4186,3.395,3.3464,3.3464,3.37,3.3514,3.3414,3.3414,3.344,3.3494,3.3561,3.3708,3.3868,3.4015,3.4162,3.4282,3.4349,3.4523,3.4643,3.4629,3.4523,3.4536,3.4603,3.4696,3.4803,3.4977,3.507,3.5124,3.5097,3.4883,3.479,3.4776,3.4643,3.4429,3.4349,3.4349,3.4269,4.7234,4.6794,4.6394,4.6109,4.594,4.5617,4.5683,4.5937,4.5957,4.5898,4.5937,4.5957,4.5918,4.5957,4.5937,4.5976,4.5957,4.6055,4.6133,4.6133,4.6133,4.6133,4.6152,4.623,4.6308,4.6308,4.6308,4.6308,4.6308,4.6308,4.6308,4.6348,4.7193,4.7623,4.776,4.8483,4.8874,4.8894,4.8894,4.8894,4.8894,4.8894,4.8894,4.8894,4.8776,4.8718,4.8737,4.864,4.8229,4.7637,4.7623,4.7623,4.7682,4.7682,4.7773,4.8008,4.7956,4.8138,4.8097,4.7058,4.6299,4.6085,4.5044,4.3603,4.2709,4.2536,4.1936,4.0593,3.9382,3.8115,3.741,3.6292,3.5465,3.5267,3.6024,3.5777,3.4,3.3414,3.3414,3.3414,3.3427,3.3454,3.3467,3.3467,3.3467,3.3494,3.3614,3.3761,3.3814,3.4002,3.4215,3.4295,3.4429,3.4563,3.4644,3.487,3.499,3.5017,3.495,3.487,3.4883,3.491,3.503,3.5164,3.5137,3.5177,3.5177,3.5084,3.5084,3.5017,3.4963,3.4803,3.4696,3.4695,3.4523,4.7427,4.6959,4.6553,4.6349,4.6264,4.6068,4.6074,4.6269,4.6308,4.6308,4.6308,4.6308,4.6308,4.6308,4.6289,4.6289,4.6308,4.6308,4.6289,4.6289,4.6289,4.6289,4.6289,4.6308,4.6308,4.6308,4.6308,4.6308,4.6308,4.6308,4.6308,4.6465,4.7168,4.7603,4.7637,4.8464,4.8894,4.8894,4.8894,4.8894,4.8894,4.8894,4.8894,4.8894,4.8894,4.8894,4.8894,4.8894,4.864,4.8268,4.817,4.8151,4.8125,4.8125,4.8288,4.8476,4.7769,4.7311,4.7157,4.5679,4.4595,4.4341,4.3249,4.1941,4.0722,4.0287,3.9771,3.7444,3.6277,3.5649,3.5132,3.405,3.3514,3.3714,3.4609,3.4837,3.3541,3.3534,3.3601,3.3641,3.3721,3.3801,3.3788,3.3788,3.3788,3.3828,3.3961,3.4042,3.4108,3.4336,3.4523,3.4589,3.4696,3.4843,3.4897,3.503,3.5084,3.5151,3.5137,3.5084,3.5084,3.507,3.5124,3.5191,3.5191,3.5204,3.5204,3.5204,3.5177,3.5151,3.5191,3.5151,3.499,3.4883,3.4763,4.7441,4.6943,4.6571,4.6352,4.6333,4.6289,4.6269,4.6308,4.6308,4.6308,4.6308,4.6308,4.6308,4.6308,4.6308,4.6308,4.6308,4.6308,4.6308,4.6308,4.6308,4.6308,4.6308,4.6308,4.6308,4.6308,4.6308,4.6308,4.6308,4.6308,4.6308,4.6484,4.7109,4.75,4.7695,4.8424,4.8796,4.8894,4.8894,4.8894,4.8894,4.8894,4.8894,4.8894,4.8894,4.8894,4.8894,4.8894,4.8855,4.8874,4.8894,4.8815,4.8855,4.8874,4.8578,4.8123,4.6878,4.5943,4.5209,4.3582,4.2389,4.2293,4.2006,4.0883,3.8472,3.7738,3.6721,3.4485,3.3464,3.37,3.37,3.3414,3.3454,3.3571,3.3886,3.3771,3.3641,3.3761,3.3935,3.3935,3.4162,3.4282,3.4322,3.4322,3.4295,3.4095,3.4242,3.4349,3.4442,3.4629,3.4763,3.483,3.4963,3.5137,3.5164,3.5177,3.5177,3.5191,3.5191,3.5164,3.5164,3.5164,3.5177,3.5204,3.5204,3.5204,3.5204,3.5204,3.5204,3.5204,3.5204,3.5204,3.5164,3.5097,3.499,4.7441,4.7007,4.692,4.6614,4.6352,4.6308,4.6308,4.6308,4.6308,4.6308,4.6308,4.6308,4.6308,4.6308,4.6308,4.6308,4.6308,4.6308,4.6308,4.6308,4.6308,4.6308,4.6328,4.6367,4.6328,4.6308,4.6308,4.6308,4.6308,4.6308,4.6308,4.6387,4.6836,4.7246,4.7682,4.8105,4.8535,4.8835,4.8894,4.8894,4.8894,4.8894,4.8894,4.8894,4.8894,4.8894,4.8894,4.8894,4.8894,4.8894,4.8894,4.8894,4.8894,4.8894,4.8181,4.6887,4.612,4.502,4.3392,4.1574,4.0336,4.0142,3.8747,3.6815,3.5925,3.538,3.4684,3.3514,3.3414,3.3414,3.344,3.3414,3.3547,3.3734,3.3881,3.3988,3.4095,3.4175,3.4229,3.4242,3.4295,3.4336,3.4349,3.4389,3.4389,3.4362,3.4482,3.4629,3.4776,3.4923,3.4963,3.5017,3.507,3.5204,3.5204,3.5204,3.5204,3.5204,3.5204,3.5204,3.5204,3.5204,3.5204,3.5204,3.5204,3.5204,3.5204,3.5204,3.5204,3.5204,3.5204,3.5204,3.5204,3.5204,3.5191,4.7094,4.6702,4.6638,4.6527,4.6308,4.6308,4.6308,4.6308,4.6308,4.6308,4.6308,4.6308,4.6308,4.6308,4.6308,4.6308,4.6308,4.6308,4.6426,4.6543,4.6621,4.6719,4.6894,4.6836,4.6758,4.6406,4.6308,4.6308,4.6308,4.6308,4.6308,4.6348,4.6719,4.7168,4.7578,4.7988,4.8437,4.8815,4.8894,4.8894,4.8894,4.8894,4.8894,4.8894,4.8894,4.8894,4.8894,4.8894,4.8894,4.8894,4.8848,4.8848,4.8894,4.8848,4.7791,4.6167,4.4737,4.3439,4.1381,3.9283,3.7833,3.7882,3.6286,3.5394,3.4762,3.4313,3.3964,3.3564,3.3427,3.3454,3.3601,3.3627,3.3788,3.4028,3.4215,3.4362,3.4482,3.4523,3.4536,3.4563,3.467,3.4736,3.4736,3.4656,3.471,3.479,3.4817,3.495,3.4963,3.5084,3.511,3.5151,3.5164,3.5204,3.5204,3.5204,3.5204,3.5204,3.5204,3.5204,3.5204,3.5204,3.5204,3.5204,3.5204,3.5204,3.5204,3.5204,3.5204,3.5204,3.5204,3.5204,3.5204,3.5204,3.5204,4.6658,4.6308,4.6308,4.6328,4.6387,4.6406,4.6484,4.6523,4.6484,4.6601,4.6504,4.6484,4.6621,4.6543,4.6562,4.6523,4.6543,4.6562,4.6797,4.7012,4.7031,4.7187,4.7402,4.7383,4.7232,4.6543,4.6465,4.6465,4.6543,4.6445,4.6543,4.6582,4.6855,4.7324,4.7695,4.8008,4.8418,4.8835,4.8894,4.8894,4.8894,4.8894,4.8894,4.8894,4.8894,4.8894,4.8894,4.8848,4.8709,4.8478,4.8432,4.8227,4.8042,4.8227,4.7186,4.502,4.301,4.1285,3.9219,3.7258,3.6004,3.5706,3.521,3.4712,3.43,3.4114,3.3814,3.3564,3.3427,3.3534,3.3828,3.3841,3.4028,3.4322,3.4616,3.4815,3.4869,3.4882,3.483,3.4857,3.4937,3.5004,3.5057,3.5044,3.5137,3.5204,3.5204,3.5204,3.5204,3.5204,3.5204,3.5204,3.5204,3.5204,3.5204,3.5204,3.5204,3.5204,3.5204,3.5204,3.5204,3.5204,3.5204,3.5204,3.5204,3.5204,3.5204,3.5204,3.5204,3.5204,3.5204,3.5204,3.5204,3.5204,3.5204,4.6396,4.6308,4.6308,4.6504,4.6797,4.6792,4.7012,4.7344,4.7305,4.7363,4.7344,4.7344,4.7305,4.7324,4.7363,4.7363,4.7246,4.7226,4.7324,4.7461,4.748,4.7578,4.7695,4.7779,4.7603,4.7324,4.707,4.7031,4.7129,4.7051,4.6992,4.7285,4.7383,4.7656,4.7949,4.8203,4.8418,4.8835,4.8894,4.8894,4.8894,4.8894,4.8894,4.8894,4.8894,4.8894,4.8848,4.8755,4.8134,4.656,4.6308,4.5397,4.4577,4.535,4.4217,4.1958,4.0771,3.9478,3.711,3.6187,3.5557,3.5146,3.4648,3.4349,3.41,3.3814,3.3614,3.3527,3.3454,3.3561,3.3855,3.3961,3.4189,3.4574,3.4802,3.4922,3.5044,3.5084,3.5084,3.507,3.5151,3.5204,3.5204,3.5204,3.5204,3.5204,3.5204,3.5204,3.5204,3.5204,3.5204,3.5204,3.5204,3.5204,3.5204,3.5204,3.5204,3.5204,3.5204,3.5204,3.5204,3.5204,3.5204,3.5204,3.5204,3.5204,3.5204,3.5204,3.5204,3.5204,3.5204,3.5204,3.5204,3.5204,3.5204,4.6426,4.6621,4.6577,4.6875,4.7226,4.7266,4.7383,4.7558,4.7623,4.7623,4.7623,4.7623,4.7623,4.7623,4.7623,4.7623,4.7643,4.7623,4.774,4.7832,4.791,4.8047,4.8183,4.8268,4.8288,4.8125,4.7832,4.7539,4.7603,4.7383,4.7422,4.75,4.7623,4.7793,4.8105,4.8203,4.8457,4.8815,4.8894,4.8894,4.8894,4.8894,4.8894,4.8894,4.8848,4.8894,4.8709,4.7651,4.6887,4.582,4.4766,4.3153,4.2054,4.1478,4.1429,3.9608,3.9186,3.8111,3.589,3.516,3.4798,3.4549,3.4114,3.3814,3.3714,3.3564,3.3414,3.3454,3.3627,3.3788,3.4095,3.4229,3.4601,3.4857,3.4977,3.5044,3.5151,3.5191,3.5204,3.5204,3.5204,3.5204,3.5204,3.5204,3.5204,3.5204,3.5204,3.5204,3.5204,3.5204,3.5204,3.5204,3.5204,3.5204,3.5204,3.5204,3.5204,3.5204,3.5204,3.5204,3.5204,3.5204,3.5204,3.5204,3.5204,3.5204,3.5204,3.5204,3.5204,3.5204,3.5204,3.5204,3.5204,3.5204,3.5204,4.668,4.7051,4.707,4.7305,4.7676,4.774,4.7818,4.7877,4.7916,4.7936,4.7877,4.7871,4.7891,4.7851,4.7916,4.7916,4.7832,4.7916,4.8131,4.8281,4.834,4.8535,4.8796,4.8894,4.8815,4.8698,4.8457,4.8164,4.7969,4.7773,4.7754,4.793,4.7916,4.7969,4.8301,4.8398,4.864,4.8776,4.8894,4.8894,4.8894,4.8894,4.8894,4.8709,4.8524,4.8181,4.7856,4.6167,4.4879,4.3962,4.2819,4.114,3.9283,3.8552,3.8209,3.7998,3.8047,3.6849,3.5479,3.4549,3.43,3.4064,3.3664,3.3464,3.3414,3.3464,3.344,3.3534,3.3708,3.4042,3.4349,3.4655,3.4909,3.5084,3.5177,3.5191,3.5191,3.5204,3.5204,3.5204,3.5204,3.5204,3.5204,3.5204,3.5204,3.5204,3.5204,3.5204,3.5204,3.5204,3.5204,3.5204,3.5204,3.5204,3.5204,3.5204,3.5204,3.5204,3.5204,3.5204,3.5204,3.5204,3.5204,3.5204,3.5204,3.5204,3.5204,3.5204,3.5204,3.5204,3.5204,3.5204,3.5204,3.5204,3.5204,4.7109,4.75,4.75,4.7734,4.8105,4.8125,4.8359,4.8698,4.8679,4.8757,4.864,4.8718,4.8679,4.8659,4.8679,4.8698,4.8698,4.864,4.8659,4.8737,4.8757,4.8796,4.8894,4.8894,4.8894,4.8894,4.8835,4.8815,4.8581,4.8242,4.832,4.8581,4.862,4.8757,4.8698,4.8672,4.8855,4.8894,4.8894,4.8894,4.8894,4.8894,4.8848,4.8273,4.7326,4.6261,4.5979,4.4151,4.2533,4.0964,4.0384,3.8747,3.678,3.6202,3.5593,3.5196,3.5047,3.5146,3.4449,3.415,3.3964,3.3664,3.3464,3.3414,3.3414,3.3427,3.3521,3.3814,3.3895,3.4135,3.4536,3.4788,3.4976,3.507,3.5204,3.5204,3.5204,3.5204,3.5204,3.5204,3.5204,3.5204,3.5204,3.5204,3.5204,3.5204,3.5204,3.5204,3.5204,3.5204,3.5204,3.5204,3.5204,3.5204,3.5204,3.5204,3.5204,3.5204,3.5204,3.5204,3.5204,3.5204,3.5204,3.5204,3.5204,3.5204,3.5204,3.5204,3.5204,3.5204,3.5204,3.5204,3.5204,3.5204,3.5046,4.7754,4.793,4.7949,4.8183,4.8555,4.862,4.8718,4.8874,4.8894,4.8894,4.8894,4.8894,4.8894,4.8894,4.8894,4.8894,4.8894,4.8894,4.8894,4.8894,4.8894,4.8894,4.8894,4.8894,4.8894,4.8894,4.8894,4.8874,4.8815,4.8757,4.8711,4.8855,4.8894,4.8874,4.8894,4.8894,4.8894,4.8894,4.8894,4.8894,4.8894,4.8801,4.832,4.7214,4.6214,4.5162,4.3819,4.2102,4.0771,3.9429,3.8567,3.7061,3.5954,3.5309,3.4648,3.4399,3.41,3.4,3.3764,3.3764,3.3614,3.3514,3.3414,3.3414,3.3414,3.3427,3.3547,3.3855,3.4042,3.4336,3.4696,3.4962,3.5044,3.5164,3.5204,3.5204,3.5204,3.5204,3.5204,3.5204,3.5204,3.5204,3.5204,3.5204,3.5204,3.5204,3.5204,3.5204,3.5204,3.5204,3.5204,3.5204,3.5204,3.5204,3.5204,3.5204,3.5204,3.5204,3.5204,3.5204,3.5204,3.5204,3.5204,3.5204,3.5204,3.5204,3.5204,3.5204,3.5204,3.5204,3.5204,3.5151,3.5085,3.4716,3.4557,4.8359,4.8379,4.8359,4.862,4.8894,4.8894,4.8894,4.8894,4.8894,4.8894,4.8894,4.8894,4.8894,4.8894,4.8894,4.8894,4.8894,4.8894,4.8894,4.8894,4.8894,4.8894,4.8894,4.8894,4.8894,4.8894,4.8894,4.8894,4.8894,4.8874,4.8855,4.8894,4.8894,4.8894,4.8894,4.8894,4.8894,4.8894,4.8894,4.8894,4.8801,4.8227,4.7214,4.6026,4.4784,4.3534,4.1958,3.9997,3.8909,3.842,3.711,3.5989,3.5458,3.4812,3.425,3.3964,3.3714,3.3514,3.3464,3.3464,3.3414,3.3414,3.3414,3.3414,3.3414,3.3427,3.3614,3.3988,3.4162,3.4469,3.4803,3.5084,3.5137,3.5177,3.5204,3.5204,3.5204,3.5204,3.5204,3.5204,3.5204,3.5204,3.5204,3.5204,3.5204,3.5204,3.5204,3.5204,3.5204,3.5204,3.5204,3.5204,3.5204,3.5204,3.5204,3.5204,3.5204,3.5204,3.5204,3.5204,3.5204,3.5204,3.5204,3.5204,3.5204,3.5204,3.5204,3.5204,3.5204,3.5204,3.5151,3.5032,3.4874,3.4451,3.4081,4.8855,4.8855,4.8835,4.8855,4.8894,4.8894,4.8894,4.8894,4.8894,4.8894,4.8894,4.8894,4.8894,4.8894,4.8894,4.8894,4.8894,4.8894,4.8894,4.8894,4.8894,4.8894,4.8894,4.8894,4.8894,4.8894,4.8894,4.8894,4.8894,4.8894,4.8894,4.8894,4.8894,4.8894,4.8894,4.8894,4.8894,4.8894,4.8894,4.8894,4.832,4.7419,4.6026,4.4926,4.2341,4.0013,3.9818,3.8142,3.7224,3.7174,3.6237,3.5557,3.516,3.4463,3.395,3.3614,3.3514,3.3414,3.3414,3.3414,3.3414,3.3414,3.3414,3.3414,3.3414,3.3414,3.3681,3.4135,3.4282,3.4589,3.4923,3.5177,3.5191,3.5204,3.5204,3.5204,3.5204,3.5204,3.5204,3.5204,3.5204,3.5204,3.5204,3.5204,3.5204,3.5204,3.5204,3.5204,3.5204,3.5204,3.5204,3.5204,3.5204,3.5204,3.5204,3.5204,3.5204,3.5204,3.5204,3.5204,3.5204,3.5204,3.5204,3.5204,3.5204,3.5204,3.5151,3.5046,3.498,3.5151,3.5098,3.4768,3.4293,3.3816,3.3551,4.8268,4.8457,4.8457,4.8613,4.8894,4.8894,4.8894,4.8894,4.8894,4.8894,4.8894,4.8894,4.8894,4.8894,4.8894,4.8894,4.8894,4.8894,4.8894,4.8894,4.8894,4.8894,4.8894,4.8894,4.8894,4.8894,4.8894,4.8894,4.8894,4.8894,4.8894,4.8894,4.8894,4.8894,4.8894,4.8894,4.8894,4.8894,4.8894,4.8894,4.8459,4.6887,4.5209,4.3629,4.1494,3.9055,3.7946,3.7125,3.6696,3.635,3.5756,3.5309,3.4848,3.4214,3.3714,3.3464,3.3414,3.3414,3.3414,3.3414,3.3414,3.3414,3.3414,3.3414,3.3414,3.3414,3.3721,3.4082,3.4322,3.4576,3.5057,3.5191,3.5204,3.5204,3.5204,3.5204,3.5204,3.5204,3.5204,3.5204,3.5204,3.5204,3.5204,3.5204,3.5204,3.5204,3.5204,3.5204,3.5204,3.5204,3.5204,3.5204,3.5204,3.5204,3.5204,3.5204,3.5204,3.5151,3.5098,3.5046,3.4993,3.5204,3.5204,3.5204,3.5098,3.498,3.4874,3.4768,3.4821,3.4927,3.4663,3.4187,3.371,3.3179,3.2967,4.7754,4.8008,4.8027,4.834,4.8874,4.8894,4.8894,4.8894,4.8894,4.8894,4.8894,4.8894,4.8894,4.8894,4.8894,4.8894,4.8894,4.8894,4.8894,4.8894,4.8894,4.8894,4.8894,4.8894,4.8894,4.8894,4.8894,4.8894,4.8894,4.8894,4.8894,4.8894,4.8894,4.8894,4.8894,4.8894,4.8894,4.8894,4.8894,4.8366,4.7837,4.5839,4.3772,4.1862,3.9673,3.824,3.7125,3.6647,3.6498,3.6103,3.5607,3.5011,3.4513,3.4,3.3514,3.3414,3.3414,3.3414,3.3414,3.3414,3.3414,3.3414,3.3414,3.3414,3.3414,3.3427,3.3694,3.4215,3.4349,3.4498,3.511,3.5204,3.5204,3.5204,3.5204,3.5204,3.5204,3.5204,3.5204,3.5204,3.5204,3.5204,3.5204,3.5204,3.5204,3.5204,3.5204,3.5204,3.5204,3.5204,3.5204,3.5204,3.5204,3.5204,3.5204,3.5151,3.5098,3.4716,3.4716,3.461,3.461,3.4821,3.4782,3.4464,3.4398,3.461,3.4504,3.4187,3.4451,3.4768,3.424,3.3551,3.3179,3.2701,3.2328,4.7558,4.7643,4.7598,4.8066,4.8776,4.8894,4.8894,4.8894,4.8894,4.8894,4.8894,4.8894,4.8894,4.8894,4.8894,4.8894,4.8894,4.8894,4.8894,4.8894,4.8894,4.8894,4.8894,4.8894,4.8894,4.8894,4.8894,4.8894,4.8894,4.8894,4.8894,4.8894,4.8894,4.8894,4.8894,4.8894,4.8894,4.8894,4.8894,4.7903,4.6214,4.4294,4.2293,4.0287,3.8274,3.6977,3.6745,3.6449,3.6301,3.5905,3.5259,3.4712,3.4313,3.3764,3.3414,3.3414,3.3414,3.3414,3.3414,3.3414,3.3414,3.3414,3.3414,3.3414,3.3414,3.3454,3.3668,3.4229,3.4322,3.4603,3.495,3.5204,3.5204,3.5204,3.5204,3.5204,3.5204,3.5204,3.5204,3.5204,3.5204,3.5204,3.5204,3.5204,3.5204,3.5204,3.5204,3.5204,3.5204,3.5204,3.5204,3.5204,3.5204,3.5204,3.5204,3.5151,3.498,3.4557,3.4293,3.4187,3.4028,3.4028,3.3869,3.367,3.3816,3.4081,3.3869,3.3564,3.371,3.3763,3.3339,3.2807,3.25,3.2287,3.202,4.6894,4.7148,4.7148,4.748,4.8008,4.832,4.8574,4.8874,4.8894,4.8894,4.8894,4.8894,4.8894,4.8894,4.8894,4.8894,4.8894,4.8894,4.8894,4.8894,4.8894,4.8894,4.8894,4.8894,4.8894,4.8894,4.8894,4.8894,4.8894,4.8894,4.8894,4.8894,4.8894,4.8894,4.8894,4.8894,4.8894,4.8894,4.8709,4.7903,4.5792,4.3677,4.1638,3.9624,3.7568,3.6647,3.6548,3.635,3.6004,3.5657,3.5011,3.4413,3.4114,3.3664,3.3414,3.3414,3.3414,3.3414,3.3414,3.3414,3.3414,3.3414,3.3414,3.3414,3.3414,3.3414,3.3748,3.4135,3.4309,3.4629,3.5044,3.5177,3.5204,3.5204,3.5204,3.5204,3.5204,3.5204,3.5204,3.5204,3.5204,3.5204,3.5204,3.5204,3.5204,3.5204,3.5204,3.5204,3.5204,3.5204,3.5204,3.5204,3.5204,3.5204,3.5151,3.4821,3.4557,3.4187,3.3869,3.3763,3.3551,3.3286,3.3339,3.3351,3.3445,3.3498,3.3298,3.3032,3.2766,3.2553,3.2447,3.234,3.218,3.202,3.1914,4.6465,4.6699,4.6719,4.6953,4.7383,4.7812,4.8242,4.864,4.8679,4.8711,4.8874,4.8894,4.8894,4.8894,4.8894,4.8894,4.8894,4.8894,4.8894,4.8894,4.8894,4.8894,4.8894,4.8894,4.8894,4.8894,4.8894,4.8894,4.8894,4.8894,4.8894,4.8894,4.8894,4.8894,4.8894,4.8894,4.8894,4.8663,4.8181,4.6607,4.4595,4.2581,4.0578,3.8763,3.7371,3.6612,3.6449,3.6152,3.5706,3.5359,3.4762,3.4114,3.3914,3.3664,3.3414,3.3414,3.3414,3.3414,3.3414,3.3414,3.3414,3.3414,3.3414,3.3414,3.3414,3.3414,3.3761,3.4108,3.4282,3.467,3.5057,3.5164,3.5204,3.5204,3.5204,3.5204,3.5204,3.5204,3.5204,3.5204,3.5204,3.5204,3.5204,3.5204,3.5204,3.5204,3.5204,3.5204,3.5204,3.5204,3.5204,3.5151,3.498,3.4821,3.461,3.4293,3.4028,3.3763,3.3498,3.3179,3.2873,3.2607,3.2766,3.2926,3.282,3.2713,3.2713,3.2553,3.234,3.218,3.218,3.202,3.1807,3.1807,3.1807,4.6308,4.6308,4.6308,4.6543,4.6953,4.7324,4.7754,4.8183,4.8223,4.8457,4.8855,4.8855,4.8894,4.8894,4.8894,4.8894,4.8894,4.8894,4.8894,4.8894,4.8894,4.8894,4.8894,4.8894,4.8894,4.8894,4.8894,4.8894,4.8894,4.8894,4.8894,4.8894,4.8894,4.8617,4.8524,4.8273,4.8273,4.7837,4.7027,4.5115,4.2819,4.1012,3.9186,3.7666,3.6745,3.6498,3.6301,3.5954,3.5458,3.4961,3.4449,3.3914,3.3614,3.3414,3.3414,3.3414,3.3414,3.3414,3.3414,3.3414,3.348,3.3494,3.348,3.344,3.3427,3.348,3.3828,3.4148,3.4389,3.475,3.507,3.5137,3.5204,3.5204,3.5204,3.5204,3.5204,3.5204,3.5204,3.5204,3.5204,3.5204,3.5204,3.5204,3.5204,3.5204,3.5204,3.5204,3.5204,3.5204,3.5151,3.5085,3.4874,3.4451,3.4187,3.3869,3.3498,3.3179,3.2807,3.2553,3.218,3.202,3.2234,3.2287,3.202,3.1967,3.218,3.2127,3.1967,3.186,3.1967,3.1914,3.1807,3.1807,3.1807,4.6308,4.6308,4.6308,4.6367,4.6504,4.6621,4.707,4.7734,4.8047,4.8301,4.8418,4.8776,4.8874,4.8894,4.8894,4.8894,4.8894,4.8894,4.8894,4.8894,4.8894,4.8894,4.8894,4.8894,4.8894,4.8894,4.8894,4.8894,4.8894,4.8894,4.8894,4.8894,4.8663,4.8042,4.726,4.67,4.6635,4.6308,4.5538,4.3582,4.1494,3.9867,3.824,3.7091,3.6562,3.64,3.6004,3.5508,3.5011,3.4513,3.3914,3.3514,3.3464,3.3414,3.3414,3.3414,3.3414,3.3414,3.3414,3.3414,3.3507,3.3708,3.3748,3.3587,3.3561,3.3668,3.3935,3.4242,3.4509,3.483,3.507,3.5164,3.5204,3.5204,3.5204,3.5204,3.5204,3.5204,3.5204,3.5204,3.5204,3.5204,3.5204,3.5204,3.5204,3.5204,3.5204,3.5151,3.5098,3.5046,3.5032,3.4927,3.4451,3.3975,3.3763,3.3498,3.3073,3.2648,3.234,3.2127,3.1967,3.186,3.1807,3.1807,3.1807,3.1807,3.186,3.1807,3.1807,3.1807,3.186,3.1807,3.1807,3.1807,3.1807,4.6308,4.6308,4.6308,4.6308,4.6308,4.6308,4.6621,4.7109,4.7519,4.7851,4.8223,4.8476,4.8737,4.8894,4.8894,4.8894,4.8894,4.8894,4.8894,4.8894,4.8894,4.8894,4.8894,4.8894,4.8894,4.8894,4.8894,4.8894,4.8894,4.8894,4.8894,4.8801,4.832,4.7027,4.6026,4.5068,4.3962,4.3582,4.2867,4.1783,4.0384,3.8909,3.7519,3.6696,3.6301,3.6004,3.5508,3.4961,3.4563,3.4164,3.3664,3.3414,3.3414,3.3414,3.3414,3.3414,3.3414,3.3507,3.3587,3.3627,3.3788,3.3961,3.4055,3.3975,3.3935,3.4002,3.4229,3.4482,3.467,3.4909,3.5044,3.5204,3.5204,3.5204,3.5204,3.5204,3.5204,3.5204,3.5204,3.5204,3.5204,3.5204,3.5204,3.5204,3.5204,3.5204,3.5085,3.498,3.4821,3.4663,3.4663,3.4663,3.4028,3.3445,3.3286,3.3073,3.2607,3.2234,3.2074,3.1914,3.1807,3.1807,3.1807,3.1807,3.1807,3.1807,3.1807,3.1807,3.1807,3.1807,3.1807,3.1807,3.1807,3.1807,3.1807,4.6308,4.6308,4.6308,4.6308,4.6308,4.6348,4.6406,4.6406,4.6914,4.7422,4.8066,4.8242,4.8555,4.8874,4.8894,4.8894,4.8894,4.8894,4.8894,4.8894,4.8894,4.8894,4.8894,4.8894,4.8894,4.8894,4.8894,4.8894,4.8894,4.8848,4.8755,4.8617,4.6981,4.5538,4.4311,4.3106,4.1766,4.0239,3.9964,3.9381,3.886,3.7553,3.6301,3.5855,3.5657,3.5508,3.4961,3.4563,3.415,3.3964,3.3764,3.3414,3.3414,3.3414,3.3414,3.3494,3.3521,3.3681,3.3841,3.3908,3.4082,3.4242,3.4297,3.4376,3.4389,3.4322,3.4509,3.4643,3.4817,3.4963,3.5137,3.5191,3.5204,3.5204,3.5204,3.5204,3.5204,3.5204,3.5204,3.5204,3.5204,3.5204,3.5204,3.5204,3.5204,3.5204,3.5151,3.4927,3.4557,3.4346,3.424,3.4187,3.3604,3.302,3.2807,3.2553,3.2127,3.186,3.1807,3.1807,3.1807,3.1807,3.1807,3.1807,3.1807,3.1807,3.1807,3.1807,3.1807,3.1807,3.1807,3.1807,3.1807,3.1754,3.1807,4.6308,4.6308,4.6308,4.6308,4.6348,4.6596,4.6777,4.6816,4.7246,4.7539,4.7832,4.8379,4.8776,4.8874,4.8894,4.8894,4.8894,4.8894,4.8894,4.8894,4.8894,4.8894,4.8894,4.8894,4.8894,4.8894,4.8894,4.8894,4.8848,4.8709,4.7995,4.6747,4.5397,4.4264,4.1879,4.0674,3.9478,3.7863,3.7617,3.7406,3.6864,3.6533,3.5756,3.5359,3.516,3.4911,3.4513,3.4313,3.3914,3.3664,3.3514,3.3414,3.3414,3.3414,3.3547,3.3721,3.3761,3.3948,3.4122,3.4242,3.4376,3.4549,3.4683,3.4817,3.483,3.4723,3.471,3.4817,3.4937,3.507,3.5164,3.5191,3.5204,3.5204,3.5204,3.5204,3.5204,3.5204,3.5204,3.5204,3.5204,3.5204,3.5204,3.5204,3.5204,3.5204,3.5204,3.4927,3.4293,3.3922,3.3604,3.3498,3.3126,3.2648,3.2447,3.2234,3.1914,3.1807,3.1807,3.1807,3.1807,3.1807,3.1807,3.1807,3.1807,3.1807,3.1807,3.1807,3.1807,3.1807,3.1807,3.1807,3.1593,3.1528,3.17,4.6308,4.6308,4.6308,4.6426,4.6601,4.6792,4.7031,4.7285,4.7676,4.7851,4.7891,4.8359,4.8718,4.8874,4.8894,4.8894,4.8894,4.8894,4.8894,4.8894,4.8894,4.8894,4.8894,4.8894,4.8894,4.8894,4.8894,4.8848,4.8663,4.7698,4.6588,4.5397,4.4359,4.2119,3.9543,3.886,3.7848,3.6696,3.6414,3.5954,3.5557,3.5557,3.5309,3.4961,3.4563,3.4313,3.4064,3.3864,3.3714,3.3464,3.3414,3.3414,3.3454,3.3561,3.3708,3.3868,3.4002,3.4202,3.4416,3.4563,3.4643,3.483,3.495,3.5057,3.5057,3.4963,3.4963,3.5044,3.5057,3.5177,3.5177,3.5191,3.5204,3.5204,3.5204,3.5204,3.5204,3.5204,3.5204,3.5204,3.5204,3.5204,3.5204,3.5204,3.5098,3.4716,3.4768,3.4346,3.3816,3.3498,3.3179,3.2873,3.2553,3.234,3.2127,3.202,3.186,3.1807,3.1807,3.1807,3.1807,3.1807,3.1807,3.1807,3.1807,3.1807,3.1807,3.1807,3.1807,3.1807,3.1807,3.1807,3.1474,3.0821,3.0113,4.6308,4.6308,4.6367,4.6601,4.6889,4.7026,4.7324,4.7695,4.8105,4.8281,4.8281,4.832,4.8535,4.8796,4.8894,4.8894,4.8894,4.8894,4.8894,4.8894,4.8894,4.8894,4.8894,4.8894,4.8894,4.8617,4.8366,4.8273,4.8088,4.6495,4.502,4.4359,4.2215,3.9527,3.8811,3.7799,3.6548,3.635,3.6053,3.5508,3.5359,3.5309,3.4812,3.4413,3.405,3.3814,3.3564,3.3414,3.3414,3.3454,3.3494,3.3587,3.3681,3.3841,3.3975,3.4135,3.4282,3.4523,3.4788,3.4869,3.4963,3.511,3.5177,3.5191,3.5191,3.5191,3.5177,3.5177,3.5191,3.5191,3.5191,3.5204,3.5204,3.5204,3.5204,3.5204,3.5204,3.5204,3.5204,3.5204,3.5204,3.5204,3.5204,3.5204,3.4874,3.4451,3.3975,3.3445,3.302,3.2967,3.2754,3.2447,3.2127,3.1967,3.186,3.1807,3.1807,3.1807,3.1807,3.1807,3.1807,3.1807,3.1807,3.1807,3.1807,3.1807,3.1807,3.1807,3.1807,3.17,3.0821,3.0435,3.0059,2.9232,2.7811,4.6308,4.6328,4.6616,4.6875,4.7031,4.7611,4.8008,4.8144,4.8535,4.8776,4.8737,4.8776,4.8855,4.8894,4.8894,4.8894,4.8894,4.8894,4.8894,4.8894,4.8894,4.8894,4.8709,4.8478,4.8801,4.8227,4.7279,4.6467,4.6073,4.4359,4.2485,4.1109,4.0771,3.8811,3.7273,3.6498,3.635,3.6103,3.5706,3.5259,3.4599,3.4413,3.4114,3.3814,3.3514,3.3464,3.3414,3.3414,3.3414,3.348,3.3654,3.3868,3.4028,3.4162,3.4309,3.4442,3.4603,3.479,3.4963,3.503,3.5164,3.5164,3.5204,3.5204,3.5191,3.5191,3.5191,3.5191,3.5191,3.5191,3.5204,3.5204,3.5204,3.5204,3.5204,3.5204,3.5204,3.5204,3.5204,3.5204,3.5204,3.5204,3.5204,3.498,3.461,3.4187,3.3869,3.3339,3.2648,3.2488,3.234,3.2074,3.1807,3.1807,3.1807,3.1807,3.1807,3.1807,3.1807,3.1807,3.1807,3.1807,3.1807,3.1807,3.1807,3.1807,3.1807,3.1807,3.1433,3.11,2.9565,2.8737,2.8414,2.7336,2.5639]},{"header":{"parameterUnit":"m.s-1","parameterCategory":1,"la1":31.0,"la2":29.5877,"lo1":-88.7671,"lo2":-86.6584,"dx":0.0162,"dy":0.0185,"nx":115,"ny":88,"refTime":"2022-11-17T06:00:00:Z","depth":0,"parameterNumber":3,"parameterNumberName":"V-component_of_WINDS"},"data":[0.0,0.0,0.0,0.0,0.0,0.0,0.0,0.0,0.0,0.0,0.0,0.0,0.0,0.0,0.0,0.0,0.0,0.0,0.0,0.0,0.0,0.0,0.0,0.0,0.0,0.0,0.0,0.0,0.0,0.0,0.0,0.0,0.0,0.0,0.0,0.0,0.0,0.0,0.0,0.0,0.0,0.0,0.0,0.0,0.0,0.0,0.0,0.0,0.0,0.0,0.0,0.0,0.0,0.0,0.0,0.0,0.0,0.0,0.0,0.0,0.0,0.0,0.0,0.0,0.0,0.0,0.0,0.0,0.0,0.0,0.0,0.0,0.0,0.0,0.0,0.0,0.0,0.0,0.0,0.0,0.0,0.0,0.0,0.0,0.0,0.0,0.0,0.0,0.0,0.0,0.0,0.0,0.0,0.0,0.0,0.0,0.0,0.0,0.0,0.0,0.0,0.0,0.0,0.0,0.0,0.0,0.0,0.0,0.0,0.0,0.0,0.0,0.0,0.0,0.0,0.0,0.0,0.0,0.0,0.0,0.0,0.0,0.0,0.0,0.0,0.0,0.0,0.0,0.0,0.0,0.0,0.0,0.0,0.0,0.0,0.0,0.0,0.0,0.0,0.0,0.0,0.0,0.0,0.0,0.0,0.0,0.0,0.0,0.0,0.0,0.0,0.0,0.0,0.0,0.0,0.0,0.0,0.0,0.0,0.0,0.0,0.0,0.0,0.0,0.0,0.0,0.0,0.0,0.0,0.0,0.0,0.0,0.0,0.0,0.0,0.0,0.0,0.0,0.0,0.0,0.0,0.0,0.0,0.0,0.0,0.0,0.0,0.0,0.0,0.0,0.0,0.0,0.0,0.0,0.0,0.0,0.0,0.0,0.0,0.0,0.0,0.0,0.0,0.0,0.0,0.0,0.0,0.0,0.0,0.0,0.0,0.0,0.0,0.0,0.0,0.0,0.0,0.0,0.0,0.0,0.0,0.0,0.0,0.0,0.0,0.0,0.0,0.0,0.0,0.0,0.0,0.0,0.0,0.0,0.0,0.0,0.0,0.0,0.0,0.0,0.0,0.0,0.0,0.0,0.0,0.0,0.0,0.0,0.0,0.0,0.0,0.0,0.0,0.0,0.0,0.0,0.0,0.0,0.0,0.0,0.0,0.0,0.0,0.0,0.0,0.0,0.0,0.0,0.0,0.0,0.0,0.0,0.0,0.0,0.0,0.0,0.0,0.0,0.0,0.0,0.0,0.0,0.0,0.0,0.0,0.0,0.0,0.0,0.0,0.0,0.0,0.0,0.0,0.0,0.0,0.0,0.0,0.0,0.0,0.0,0.0,0.0,0.0,0.0,0.0,0.0,0.0,0.0,0.0,0.0,0.0,0.0,0.0,0.0,0.0,0.0,0.0,0.0,0.0,0.0,0.0,0.0,0.0,0.0,0.0,0.0,0.0,0.0,0.0,0.0,0.0,0.0,0.0,0.0,0.0,0.0,0.0,0.0,0.0,0.0,0.0,0.0,0.0,0.0,0.0,0.0,0.0,0.0,0.0,0.0,0.0,0.0,0.0,0.0,0.0,0.0,0.0,0.0,0.0,0.0,0.0,0.0,0.0,0.0,0.0,0.0,0.0,0.0,0.0,0.0,0.0,0.0,0.0,0.0,0.0,0.0,0.0,0.0,0.0,0.0,0.0,0.0,0.0,0.0,0.0,0.0,0.0,0.0,0.0,0.0,0.0,0.0,0.0,0.0,0.0,0.0,0.0,0.0,0.0,0.0,0.0,0.0,0.0,0.0,0.0,0.0,0.0,0.0,0.0,0.0,0.0,0.0,0.0,0.0,0.0,0.0,0.0,0.0,0.0,0.0,0.0,0.0,0.0,0.0,0.0,0.0,0.0,0.0,0.0,0.0,0.0,0.0,0.0,0.0,0.0,0.0,0.0,0.0,0.0,0.0,0.0,0.0,0.0,0.0,0.0,0.0,0.0,0.0,0.0,0.0,0.0,0.0,0.0,0.0,0.0,0.0,0.0,0.0,0.0,0.0,0.0,0.0,0.0,0.0,0.0,0.0,0.0,0.0,0.0,0.0,0.0,0.0,0.0,0.0,0.0,0.0,0.0,0.0,0.0,0.0,0.0,0.0,0.0,0.0,0.0,0.0,0.0,0.0,0.0,0.0,0.0,0.0,0.0,0.0,0.0,0.0,0.0,0.0,0.0,0.0,0.0,0.0,0.0,0.0,0.0,0.0,0.0,0.0,0.0,0.0,0.0,0.0,0.0,0.0,0.0,0.0,0.0,0.0,0.0,0.0,0.0,0.0,0.0,0.0,0.0,0.0,0.0,0.0,0.0,0.0,0.0,0.0,0.0,0.0,0.0,0.0,0.0,0.0,0.0,0.0,0.0,0.0,0.0,0.0,0.0,0.0,0.0,0.0,0.0,0.0,0.0,0.0,0.0,0.0,0.0,0.0,0.0,0.0,0.0,0.0,0.0,0.0,0.0,0.0,0.0,0.0,0.0,0.0,0.0,0.0,0.0,0.0,0.0,0.0,0.0,0.0,0.0,0.0,0.0,0.0,0.0,0.0,0.0,0.0,0.0,0.0,0.0,0.0,0.0,0.0,0.0,0.0,0.0,0.0,0.0,0.0,0.0,0.0,0.0,0.0,0.0,0.0,0.0,0.0,0.0,0.0,0.0,0.0,0.0,0.0,0.0,0.0,0.0,0.0,0.0,0.0,0.0,0.0,0.0,0.0,0.0,0.0,0.0,0.0,0.0,0.0,0.0,0.0,0.0,0.0,0.0,0.0,0.0,0.0,0.0,0.0,0.0,0.0,0.0,0.0,0.0,0.0,0.0,0.0,0.0,0.0,0.0,0.0,0.0,0.0,0.0,0.0,0.0,0.0,0.0,0.0,0.0,0.0,0.0,0.0,0.0,0.0,0.0,0.0,0.0,0.0,0.0,0.0,0.0,0.0,0.0,0.0,0.0,0.0,0.0,0.0,0.0,0.0,0.0,0.0,0.0,0.0,0.0,0.0,0.0,0.0,0.0,0.0,0.0,0.0,0.0,0.0,0.0,0.0,0.0,0.0,0.0,0.0,0.0,0.0,0.0,0.0,0.0,0.0,0.0,0.0,0.0,0.0,0.0,0.0,0.0,0.0,0.0,0.0,0.0,0.0,0.0,0.0,0.0,0.0,0.0,0.0,0.0,0.0,0.0,0.0,0.0,0.0,0.0,0.0,0.0,0.0,0.0,0.0,0.0,0.0,0.0,0.0,0.0,0.0,0.0,0.0,0.0,0.0,0.0,0.0,0.0,0.0,0.0,0.0,0.0,0.0,0.0,0.0,0.0,0.0,0.0,0.0,0.0,0.0,0.0,0.0,0.0,0.0,0.0,0.0,0.0,0.0,0.0,0.0,0.0,0.0,0.0,0.0,0.0,0.0,0.0,0.0,0.0,0.0,0.0,0.0,0.0,0.0,0.0,0.0,0.0,0.0,0.0,0.0,0.0,0.0,0.0,0.0,0.0,0.0,0.0,0.0,0.0,0.0,0.0,0.0,0.0,0.0,0.0,0.0,0.0,0.0,0.0,0.0,0.0,0.0,0.0,0.0,0.0,0.0,0.0,0.0,0.0,0.0,0.0,0.0,0.0,0.0,0.0,0.0,0.0,0.0,0.0,0.0,0.0,0.0,0.0,0.0,0.0,0.0,0.0,0.0,0.0,0.0,0.0,0.0,0.0,0.0,0.0,0.0,0.0,0.0,0.0,0.0,0.0,0.0,0.0,0.0,0.0,0.0,0.0,0.0,0.0,0.0,0.0,0.0,0.0,0.0,0.0,0.0,0.0,0.0,0.0,0.0,0.0,0.0,0.0,0.0,0.0,0.0,0.0,0.0,0.0,0.0,0.0,0.0,0.0,0.0,0.0,0.0,0.0,0.0,0.0,0.0,0.0,0.0,0.0,0.0,0.0,0.0,0.0,0.0,0.0,0.0,0.0,0.0,0.0,0.0,0.0,0.0,0.0,0.0,0.0,0.0,0.0,0.0,0.0,0.0,0.0,0.0,0.0,0.0,0.0,0.0,0.0,0.0,0.0,0.0,0.0,0.0,0.0,0.0,0.0,0.0,0.0,0.0,0.0,0.0,0.0,0.0,0.0,0.0,0.0,0.0,0.0,0.0,0.0,0.0,0.0,0.0,0.0,0.0,0.0,0.0,0.0,0.0,0.0,0.0,0.0,0.0,0.0,0.0,0.0,0.0,0.0,0.0,2.5184,0.0,0.0,0.0,2.362,0.0,0.0,0.0,0.0,0.0,0.0,0.0,0.0,0.0,0.0,0.0,0.0,0.0,0.0,0.0,0.0,0.0,0.0,0.0,0.0,0.0,0.0,0.0,0.0,0.0,0.0,0.0,0.0,0.0,0.0,0.0,0.0,0.0,0.0,0.0,0.0,0.0,0.0,0.0,0.0,0.0,0.0,0.0,0.0,0.0,0.0,0.0,0.0,0.0,0.0,0.0,0.0,0.0,0.0,0.0,0.0,0.0,0.0,0.0,0.0,0.0,0.0,0.0,0.0,0.0,0.0,0.0,0.0,0.0,0.0,0.0,0.0,0.0,0.0,0.0,0.0,0.0,0.0,0.0,0.0,0.0,0.0,0.0,0.0,0.0,0.0,0.0,0.0,0.0,0.0,0.0,0.0,0.0,0.0,0.0,0.0,0.0,0.0,0.0,0.0,0.0,0.0,0.0,0.0,0.0,0.0,0.0,0.0,0.0,0.0,2.5992,2.5704,2.4993,2.4444,2.4189,0.0,0.0,0.0,0.0,0.0,0.0,0.0,0.0,0.0,0.0,0.0,0.0,0.0,0.0,0.0,0.0,0.0,0.0,0.0,0.0,0.0,0.0,0.0,0.0,0.0,0.0,0.0,0.0,0.0,0.0,0.0,0.0,0.0,0.0,0.0,0.0,0.0,0.0,0.0,0.0,0.0,0.0,0.0,0.0,0.0,0.0,0.0,0.0,0.0,0.0,0.0,0.0,0.0,0.0,0.0,0.0,0.0,0.0,0.0,0.0,0.0,0.0,0.0,0.0,0.0,0.0,0.0,0.0,0.0,0.0,0.0,0.0,0.0,0.0,0.0,0.0,0.0,0.0,0.0,0.0,0.0,0.0,0.0,0.0,0.0,0.0,0.0,0.0,0.0,0.0,0.0,0.0,0.0,0.0,0.0,0.0,0.0,0.0,0.0,0.0,0.0,0.0,0.0,0.0,0.0,0.0,0.0,0.0,0.0,0.0,0.0,0.0,2.5603,2.4949,2.4773,0.0,0.0,0.0,0.0,0.0,0.0,0.0,0.0,0.0,0.0,0.0,0.0,0.0,0.0,0.0,0.0,0.0,0.0,0.0,0.0,0.0,0.0,0.0,0.0,0.0,0.0,0.0,0.0,0.0,0.0,0.0,0.0,0.0,0.0,0.0,0.0,0.0,0.0,0.0,0.0,0.0,0.0,0.0,0.0,0.0,0.0,0.0,0.0,0.0,0.0,0.0,0.0,0.0,0.0,0.0,0.0,0.0,0.0,0.0,0.0,0.0,0.0,0.0,0.0,0.0,0.0,0.0,0.0,0.0,0.0,0.0,0.0,0.0,0.0,0.0,0.0,0.0,0.0,0.0,0.0,0.0,0.0,0.0,0.0,0.0,0.0,0.0,0.0,0.0,0.0,0.0,0.0,0.0,0.0,0.0,0.0,0.0,0.0,0.0,0.0,0.0,0.0,0.0,0.0,0.0,0.0,0.0,0.0,0.0,0.0,2.7225,2.6614,2.6494,0.0,2.5286,0.0,0.0,0.0,0.0,0.0,0.0,0.0,0.0,0.0,0.0,0.0,0.0,0.0,0.0,0.0,0.0,0.0,0.0,0.0,0.0,0.0,0.0,0.0,0.0,0.0,0.0,0.0,0.0,0.0,0.0,0.0,0.0,0.0,0.0,0.0,0.0,0.0,0.0,0.0,0.0,0.0,0.0,0.0,0.0,0.0,0.0,0.0,0.0,0.0,0.0,0.0,0.0,0.0,0.0,0.0,0.0,0.0,0.0,0.0,0.0,0.0,0.0,0.0,0.0,0.0,0.0,0.0,0.0,0.0,0.0,0.0,0.0,0.0,0.0,0.0,0.0,0.0,0.0,0.0,0.0,0.0,0.0,0.0,0.0,0.0,0.0,0.0,0.0,0.0,0.0,0.0,0.0,0.0,0.0,0.0,0.0,0.0,0.0,0.0,0.0,0.0,0.0,0.0,0.0,0.0,0.0,0.0,0.0,0.0,0.0,2.7465,2.7195,2.6794,2.6068,0.0,0.0,0.0,0.0,0.0,0.0,0.0,0.0,0.0,0.0,0.0,0.0,0.0,0.0,0.0,0.0,0.0,0.0,0.0,0.0,0.0,0.0,0.0,0.0,0.0,0.0,0.0,0.0,0.0,0.0,0.0,0.0,0.0,0.0,0.0,0.0,0.0,0.0,0.0,0.0,0.0,0.0,0.0,0.0,0.0,0.0,0.0,0.0,0.0,0.0,0.0,0.0,0.0,0.0,0.0,0.0,0.0,0.0,0.0,0.0,0.0,0.0,0.0,0.0,0.0,0.0,0.0,0.0,0.0,0.0,0.0,0.0,0.0,0.0,0.0,0.0,0.0,0.0,0.0,0.0,0.0,0.0,0.0,0.0,0.0,0.0,0.0,0.0,0.0,0.0,0.0,0.0,0.0,0.0,0.0,0.0,0.0,0.0,0.0,0.0,0.0,0.0,0.0,0.0,0.0,0.0,0.0,0.0,0.0,0.0,2.7585,2.7585,2.7555,2.6944,2.6153,2.5173,0.0,0.0,0.0,0.0,0.0,0.0,0.0,0.0,0.0,0.0,0.0,0.0,0.0,0.0,0.0,0.0,0.0,0.0,0.0,0.0,0.0,0.0,0.0,0.0,0.0,0.0,0.0,0.0,0.0,0.0,0.0,0.0,0.0,0.0,0.0,0.0,0.0,0.0,0.0,0.0,0.0,0.0,0.0,0.0,0.0,0.0,0.0,0.0,0.0,0.0,0.0,0.0,0.0,0.0,0.0,0.0,0.0,0.0,0.0,0.0,0.0,0.0,0.0,0.0,0.0,0.0,0.0,0.0,0.0,0.0,0.0,0.0,0.0,0.0,0.0,0.0,0.0,0.0,0.0,0.0,0.0,0.0,0.0,0.0,0.0,0.0,0.0,0.0,0.0,0.0,0.0,0.0,0.0,0.0,0.0,0.0,0.0,0.0,0.0,0.0,0.0,0.0,0.0,0.0,0.0,0.0,0.0,0.0,2.7615,2.7615,2.7585,2.7585,2.6973,2.6584,0.0,0.0,0.0,0.0,0.0,0.0,0.0,0.0,0.0,0.0,0.0,0.0,0.0,0.0,0.0,0.0,0.0,0.0,0.0,0.0,0.0,0.0,0.0,0.0,0.0,0.0,0.0,0.0,0.0,0.0,0.0,0.0,0.0,0.0,0.0,0.0,0.0,0.0,0.0,0.0,0.0,0.0,0.0,0.0,0.0,0.0,0.0,0.0,0.0,0.0,0.0,0.0,0.0,0.0,0.0,0.0,0.0,0.0,0.0,0.0,0.0,0.0,0.0,0.0,0.0,0.0,0.0,0.0,0.0,0.0,0.0,0.0,0.0,0.0,0.0,0.0,0.0,0.0,0.0,0.0,0.0,0.0,0.0,0.0,0.0,0.0,0.0,0.0,0.0,0.0,0.0,0.0,0.0,0.0,0.0,0.0,0.0,0.0,0.0,0.0,0.0,0.0,0.0,0.0,0.0,0.0,0.0,0.0,0.0,2.8261,2.7824,2.7585,2.7585,2.7375,2.7046,0.0,0.0,0.0,0.0,0.0,0.0,0.0,0.0,0.0,0.0,0.0,0.0,0.0,0.0,0.0,0.0,0.0,0.0,0.0,0.0,0.0,0.0,0.0,0.0,0.0,0.0,0.0,0.0,0.0,0.0,0.0,0.0,0.0,0.0,0.0,0.0,0.0,0.0,0.0,0.0,0.0,0.0,0.0,0.0,0.0,0.0,0.0,0.0,0.0,0.0,0.0,0.0,0.0,0.0,0.0,0.0,0.0,0.0,0.0,0.0,0.0,0.0,0.0,0.0,0.0,0.0,0.0,0.0,0.0,0.0,0.0,0.0,0.0,0.0,0.0,0.0,0.0,0.0,0.0,0.0,0.0,0.0,0.0,0.0,0.0,0.0,0.0,0.0,0.0,0.0,0.0,0.0,0.0,0.0,0.0,0.0,0.0,0.0,0.0,0.0,0.0,0.0,0.0,0.0,0.0,0.0,0.0,0.0,0.0,2.8949,2.8483,2.8154,2.7944,2.7944,2.7602,0.0,0.0,0.0,0.0,0.0,0.0,0.0,0.0,0.0,0.0,0.0,0.0,0.0,0.0,0.0,0.0,0.0,0.0,0.0,0.0,0.0,0.0,0.0,0.0,0.0,0.0,0.0,0.0,0.0,0.0,0.0,0.0,0.0,0.0,0.0,0.0,0.0,0.0,0.0,0.0,0.0,0.0,0.0,0.0,0.0,0.0,0.0,0.0,0.0,0.0,0.0,0.0,0.0,0.0,0.0,0.0,0.0,0.0,0.0,0.0,0.0,0.0,0.0,0.0,0.0,0.0,0.0,0.0,0.0,0.0,0.0,0.0,0.0,0.0,0.0,0.0,0.0,0.0,0.0,0.0,0.0,0.0,0.0,0.0,0.0,0.0,0.0,0.0,0.0,0.0,0.0,0.0,0.0,0.0,0.0,0.0,0.0,0.0,0.0,0.0,0.0,0.0,0.0,0.0,0.0,0.0,0.0,0.0,2.9651,2.9621,2.9578,2.9219,2.8637,2.8577,2.8291,0.0,0.0,0.0,0.0,0.0,0.0,0.0,0.0,0.0,0.0,0.0,0.0,0.0,0.0,0.0,0.0,0.0,0.0,0.0,0.0,0.0,0.0,0.0,0.0,0.0,0.0,0.0,0.0,0.0,0.0,0.0,0.0,0.0,0.0,0.0,0.0,0.0,0.0,0.0,0.0,0.0,0.0,0.0,0.0,0.0,0.0,0.0,0.0,0.0,0.0,0.0,0.0,0.0,0.0,0.0,0.0,0.0,0.0,0.0,0.0,0.0,0.0,0.0,0.0,0.0,0.0,0.0,0.0,0.0,0.0,0.0,0.0,0.0,0.0,0.0,0.0,0.0,0.0,0.0,0.0,0.0,0.0,0.0,0.0,0.0,0.0,0.0,0.0,0.0,0.0,0.0,0.0,0.0,0.0,0.0,0.0,0.0,0.0,0.0,0.0,0.0,0.0,0.0,0.0,0.0,0.0,0.0,0.0,0.0,3.0253,2.9817,2.9488,2.9279,2.8846,2.853,0.0,0.0,0.0,0.0,0.0,0.0,0.0,0.0,0.0,0.0,0.0,0.0,0.0,0.0,0.0,0.0,0.0,0.0,0.0,0.0,0.0,0.0,0.0,0.0,0.0,0.0,0.0,0.0,0.0,0.0,0.0,0.0,0.0,0.0,0.0,0.0,0.0,0.0,0.0,0.0,0.0,0.0,0.0,0.0,0.0,0.0,0.0,0.0,0.0,0.0,0.0,0.0,0.0,0.0,0.0,0.0,0.0,0.0,0.0,0.0,0.0,0.0,0.0,0.0,0.0,0.0,0.0,0.0,0.0,0.0,0.0,0.0,0.0,0.0,0.0,0.0,0.0,0.0,0.0,0.0,0.0,0.0,0.0,0.0,0.0,0.0,0.0,0.0,0.0,0.0,0.0,0.0,0.0,0.0,0.0,0.0,0.0,0.0,0.0,0.0,0.0,0.0,0.0,0.0,0.0,0.0,0.0,0.0,0.0,3.1988,3.1374,3.0955,3.0686,3.0043,2.9564,2.9309,0.0,0.0,0.0,0.0,0.0,0.0,0.0,0.0,0.0,0.0,0.0,0.0,0.0,0.0,0.0,0.0,0.0,0.0,0.0,0.0,0.0,0.0,0.0,0.0,0.0,0.0,0.0,0.0,0.0,0.0,0.0,0.0,0.0,0.0,0.0,0.0,0.0,0.0,0.0,0.0,0.0,0.0,0.0,0.0,0.0,0.0,0.0,0.0,0.0,0.0,0.0,0.0,0.0,0.0,0.0,0.0,0.0,0.0,0.0,0.0,0.0,0.0,0.0,0.0,0.0,0.0,0.0,0.0,0.0,0.0,0.0,0.0,0.0,0.0,0.0,0.0,0.0,0.0,0.0,0.0,0.0,0.0,0.0,0.0,0.0,0.0,0.0,0.0,0.0,0.0,0.0,0.0,0.0,0.0,0.0,0.0,0.0,0.0,0.0,0.0,0.0,0.0,0.0,0.0,0.0,0.0,0.0,0.0,3.4593,3.4069,3.3395,3.2602,3.1944,3.1271,0.0,0.0,0.0,0.0,0.0,0.0,0.0,0.0,0.0,0.0,0.0,0.0,0.0,0.0,0.0,0.0,0.0,0.0,0.0,0.0,0.0,0.0,0.0,0.0,0.0,0.0,0.0,0.0,0.0,0.0,0.0,0.0,0.0,0.0,0.0,0.0,0.0,0.0,0.0,0.0,0.0,0.0,0.0,0.0,0.0,0.0,0.0,0.0,0.0,0.0,0.0,0.0,0.0,0.0,0.0,0.0,0.0,0.0,0.0,0.0,0.0,0.0,0.0,0.0,0.0,0.0,0.0,0.0,0.0,0.0,0.0,0.0,0.0,0.0,0.0,0.0,0.0,0.0,0.0,0.0,0.0,0.0,0.0,0.0,0.0,0.0,0.0,0.0,0.0,0.0,0.0,0.0,0.0,0.0,0.0,0.0,0.0,0.0,0.0,0.0,0.0,0.0,0.0,0.0,0.0,0.0,0.0,0.0,0.0,3.5985,3.6733,3.6134,3.4069,3.3335,3.2422,0.0,0.0,0.0,0.0,0.0,0.0,0.0,0.0,0.0,0.0,0.0,0.0,0.0,0.0,0.0,0.0,0.0,0.0,0.0,0.0,0.0,0.0,0.0,0.0,0.0,0.0,0.0,0.0,0.0,0.0,0.0,0.0,0.0,0.0,0.0,0.0,0.0,0.0,0.0,0.0,0.0,0.0,0.0,0.0,0.0,0.0,0.0,0.0,0.0,0.0,0.0,0.0,0.0,0.0,0.0,0.0,0.0,0.0,0.0,0.0,0.0,0.0,0.0,0.0,0.0,0.0,0.0,0.0,0.0,0.0,0.0,0.0,0.0,0.0,0.0,0.0,0.0,0.0,0.0,0.0,0.0,0.0,0.0,0.0,0.0,0.0,0.0,0.0,0.0,0.0,0.0,0.0,0.0,0.0,0.0,0.0,0.0,0.0,0.0,0.0,0.0,0.0,0.0,0.0,0.0,0.0,0.0,0.0,3.6776,3.7704,3.9008,3.8679,3.6596,3.537,3.4143,0.0,0.0,0.0,0.0,0.0,0.0,0.0,0.0,0.0,0.0,0.0,0.0,0.0,0.0,0.0,0.0,0.0,0.0,0.0,0.0,0.0,0.0,0.0,0.0,0.0,0.0,0.0,0.0,0.0,0.0,0.0,0.0,0.0,0.0,0.0,0.0,0.0,0.0,0.0,0.0,0.0,0.0,0.0,0.0,0.0,0.0,0.0,0.0,0.0,0.0,0.0,0.0,0.0,0.0,0.0,0.0,0.0,0.0,0.0,0.0,0.0,0.0,0.0,0.0,0.0,0.0,0.0,0.0,0.0,0.0,0.0,0.0,0.0,0.0,0.0,0.0,0.0,0.0,0.0,0.0,0.0,0.0,0.0,0.0,0.0,0.0,0.0,0.0,0.0,0.0,0.0,0.0,0.0,0.0,0.0,0.0,0.0,0.0,0.0,0.0,0.0,0.0,0.0,0.0,0.0,0.0,0.0,0.0,3.8255,3.9571,4.0864,4.0924,3.9738,3.7823,3.6104,0.0,0.0,0.0,0.0,0.0,0.0,0.0,0.0,0.0,0.0,0.0,0.0,0.0,0.0,0.0,0.0,0.0,0.0,0.0,0.0,0.0,0.0,0.0,0.0,0.0,0.0,0.0,0.0,0.0,0.0,0.0,0.0,0.0,0.0,0.0,0.0,0.0,0.0,0.0,0.0,0.0,0.0,0.0,0.0,0.0,0.0,0.0,0.0,0.0,0.0,0.0,0.0,0.0,0.0,0.0,0.0,0.0,0.0,0.0,0.0,0.0,0.0,0.0,0.0,0.0,0.0,0.0,0.0,0.0,0.0,0.0,0.0,0.0,0.0,0.0,0.0,0.0,0.0,0.0,0.0,0.0,0.0,0.0,0.0,0.0,0.0,0.0,0.0,0.0,0.0,0.0,0.0,0.0,0.0,0.0,0.0,0.0,0.0,0.0,0.0,0.0,0.0,0.0,0.0,0.0,0.0,0.0,0.0,3.9631,4.0935,4.1762,4.2051,4.1762,3.9828,3.7704,0.0,0.0,0.0,0.0,0.0,0.0,0.0,0.0,0.0,0.0,0.0,0.0,0.0,0.0,0.0,0.0,0.0,0.0,0.0,0.0,0.0,0.0,0.0,0.0,0.0,0.0,0.0,0.0,0.0,0.0,0.0,0.0,0.0,0.0,0.0,0.0,0.0,0.0,0.0,0.0,0.0,0.0,0.0,0.0,0.0,0.0,0.0,0.0,3.5193,0.0,0.0,0.0,0.0,0.0,0.0,0.0,0.0,0.0,0.0,0.0,0.0,0.0,0.0,0.0,0.0,0.0,0.0,0.0,0.0,0.0,0.0,0.0,0.0,0.0,0.0,0.0,0.0,0.0,0.0,0.0,0.0,0.0,0.0,0.0,0.0,0.0,0.0,0.0,0.0,0.0,0.0,0.0,0.0,0.0,0.0,0.0,0.0,0.0,0.0,0.0,0.0,0.0,0.0,0.0,0.0,0.0,0.0,0.0,4.0947,4.2252,4.324,4.3469,4.2791,4.1504,3.9409,0.0,0.0,0.0,0.0,0.0,0.0,0.0,0.0,0.0,0.0,0.0,0.0,0.0,0.0,0.0,0.0,0.0,0.0,0.0,0.0,0.0,0.0,0.0,0.0,0.0,0.0,0.0,0.0,0.0,0.0,0.0,0.0,0.0,0.0,0.0,0.0,0.0,0.0,0.0,0.0,0.0,0.0,0.0,0.0,0.0,0.0,0.0,0.0,0.0,0.0,0.0,0.0,0.0,0.0,0.0,0.0,0.0,0.0,0.0,0.0,0.0,0.0,0.0,0.0,0.0,0.0,0.0,0.0,0.0,0.0,0.0,0.0,0.0,0.0,0.0,0.0,0.0,0.0,0.0,0.0,0.0,0.0,0.0,0.0,0.0,0.0,0.0,0.0,0.0,0.0,0.0,0.0,0.0,0.0,0.0,0.0,0.0,0.0,0.0,0.0,0.0,0.0,0.0,0.0,0.0,0.0,0.0,4.0745,4.2312,4.3579,4.4706,4.4706,4.3489,4.2851,4.1014,3.7823,0.0,0.0,0.0,0.0,0.0,0.0,0.0,0.0,0.0,0.0,0.0,0.0,0.0,0.0,0.0,0.0,0.0,0.0,0.0,0.0,0.0,0.0,0.0,0.0,0.0,0.0,0.0,0.0,0.0,0.0,0.0,0.0,0.0,0.0,0.0,0.0,0.0,0.0,3.2443,3.4239,0.0,0.0,0.0,0.0,0.0,0.0,0.0,0.0,3.8573,0.0,0.0,0.0,0.0,0.0,0.0,0.0,0.0,0.0,0.0,0.0,0.0,0.0,0.0,0.0,0.0,0.0,0.0,0.0,0.0,0.0,0.0,0.0,0.0,0.0,0.0,0.0,0.0,0.0,0.0,0.0,0.0,0.0,0.0,0.0,0.0,0.0,0.0,0.0,0.0,0.0,0.0,0.0,0.0,0.0,0.0,0.0,0.0,0.0,0.0,0.0,0.0,0.0,0.0,0.0,0.0,4.0894,4.2263,4.3609,4.4945,4.5185,4.4945,4.4147,4.3489,4.1874,3.9188,0.0,0.0,0.0,0.0,0.0,0.0,0.0,0.0,0.0,0.0,0.0,0.0,0.0,0.0,0.0,0.0,0.0,0.0,0.0,0.0,0.0,0.0,0.0,0.0,0.0,0.0,0.0,0.0,0.0,0.0,0.0,0.0,0.0,0.0,0.0,0.0,0.0,0.0,0.0,3.648,3.7945,0.0,0.0,0.0,0.0,0.0,0.0,0.0,0.0,3.9726,0.0,0.0,0.0,0.0,0.0,0.0,0.0,0.0,0.0,0.0,0.0,0.0,0.0,0.0,0.0,0.0,0.0,0.0,0.0,0.0,0.0,0.0,0.0,0.0,0.0,0.0,0.0,0.0,0.0,0.0,0.0,0.0,0.0,0.0,0.0,0.0,0.0,0.0,0.0,0.0,0.0,0.0,0.0,0.0,0.0,0.0,0.0,0.0,0.0,0.0,0.0,0.0,0.0,0.0,0.0,4.1373,4.3329,4.4984,4.6292,4.701,4.6912,4.5903,4.4865,4.2951,0.0,0.0,0.0,0.0,0.0,0.0,0.0,0.0,0.0,0.0,0.0,0.0,0.0,0.0,0.0,0.0,0.0,0.0,0.0,0.0,0.0,0.0,0.0,0.0,0.0,0.0,0.0,0.0,0.0,0.0,0.0,0.0,0.0,0.0,0.0,0.0,0.0,0.0,0.0,0.0,3.8553,3.964,4.0321,0.0,0.0,0.0,0.0,0.0,0.0,4.2185,4.1848,0.0,0.0,0.0,0.0,0.0,0.0,0.0,0.0,0.0,0.0,0.0,0.0,0.0,0.0,0.0,0.0,0.0,0.0,0.0,0.0,0.0,0.0,0.0,0.0,0.0,0.0,0.0,0.0,0.0,0.0,0.0,0.0,0.0,0.0,0.0,0.0,0.0,0.0,0.0,0.0,0.0,0.0,0.0,0.0,0.0,0.0,0.0,0.0,0.0,0.0,0.0,0.0,0.0,0.0,0.0,4.2182,4.4496,4.6352,4.7668,4.8738,4.8678,4.7339,4.6121,4.3958,0.0,0.0,0.0,0.0,0.0,0.0,0.0,0.0,0.0,0.0,0.0,0.0,0.0,0.0,0.0,0.0,0.0,0.0,0.0,0.0,0.0,0.0,0.0,0.0,0.0,0.0,0.0,0.0,0.0,0.0,0.0,0.0,0.0,0.0,0.0,0.0,0.0,0.0,0.0,0.0,0.0,4.1238,4.215,4.2156,0.0,0.0,0.0,0.0,4.4233,4.4268,0.0,0.0,0.0,0.0,0.0,0.0,0.0,0.0,0.0,0.0,0.0,0.0,0.0,0.0,0.0,0.0,0.0,0.0,0.0,0.0,0.0,0.0,0.0,0.0,0.0,0.0,0.0,0.0,0.0,0.0,0.0,0.0,0.0,0.0,0.0,0.0,0.0,0.0,0.0,0.0,0.0,0.0,0.0,0.0,0.0,0.0,0.0,0.0,0.0,0.0,0.0,0.0,0.0,0.0,0.0,0.0,4.4766,4.6322,4.7728,4.9007,4.9217,4.8648,4.7339,4.657,4.4625,0.0,0.0,0.0,0.0,0.0,0.0,0.0,0.0,0.0,0.0,0.0,0.0,0.0,0.0,0.0,0.0,0.0,0.0,0.0,0.0,0.0,0.0,0.0,0.0,0.0,0.0,0.0,0.0,0.0,0.0,0.0,0.0,0.0,0.0,0.0,0.0,0.0,0.0,0.0,0.0,0.0,4.301,4.5019,4.4736,4.4754,0.0,0.0,4.5242,4.6732,4.5909,0.0,0.0,0.0,0.0,0.0,0.0,0.0,0.0,0.0,0.0,0.0,0.0,0.0,0.0,0.0,0.0,0.0,0.0,0.0,0.0,0.0,0.0,0.0,0.0,0.0,0.0,0.0,0.0,0.0,0.0,0.0,0.0,0.0,0.0,0.0,0.0,0.0,0.0,0.0,0.0,0.0,0.0,0.0,0.0,0.0,0.0,0.0,0.0,0.0,0.0,0.0,0.0,0.0,0.0,0.0,4.269,4.5265,4.701,4.8506,4.9793,5.0182,4.9733,4.8468,4.7429,4.5334,0.0,0.0,0.0,0.0,0.0,0.0,0.0,0.0,0.0,0.0,0.0,0.0,0.0,0.0,0.0,0.0,0.0,0.0,0.0,0.0,0.0,0.0,0.0,0.0,0.0,0.0,0.0,0.0,0.0,0.0,0.0,0.0,0.0,0.0,0.0,0.0,0.0,0.0,0.0,0.0,0.0,0.0,4.6194,4.6605,0.0,0.0,0.0,4.7289,4.845,0.0,0.0,0.0,0.0,0.0,0.0,0.0,0.0,0.0,0.0,0.0,0.0,0.0,0.0,0.0,0.0,0.0,0.0,0.0,0.0,0.0,0.0,0.0,0.0,0.0,0.0,0.0,0.0,0.0,0.0,0.0,0.0,0.0,0.0,0.0,0.0,0.0,0.0,0.0,0.0,0.0,0.0,0.0,0.0,0.0,0.0,0.0,0.0,0.0,0.0,0.0,0.0,0.0,0.0,0.0,0.0,0.0,4.5753,4.7758,4.9381,5.0667,5.1355,5.1079,4.9816,4.8476,0.0,0.0,0.0,0.0,0.0,0.0,0.0,0.0,0.0,0.0,0.0,0.0,0.0,0.0,0.0,0.0,0.0,0.0,0.0,0.0,0.0,0.0,0.0,0.0,0.0,0.0,0.0,3.1989,0.0,0.0,0.0,0.0,0.0,0.0,0.0,0.0,0.0,0.0,0.0,0.0,0.0,0.0,4.5829,4.735,4.8343,4.8958,0.0,0.0,4.9288,5.0122,5.005,4.9776,0.0,0.0,0.0,0.0,0.0,0.0,0.0,0.0,0.0,0.0,0.0,0.0,0.0,0.0,0.0,0.0,0.0,0.0,0.0,0.0,0.0,0.0,0.0,0.0,0.0,0.0,0.0,0.0,0.0,0.0,0.0,0.0,0.0,0.0,0.0,0.0,0.0,0.0,0.0,0.0,0.0,0.0,0.0,0.0,0.0,0.0,0.0,0.0,0.0,0.0,0.0,0.0,0.0,0.0,0.0,4.713,4.9082,5.0697,5.2037,5.2719,5.2426,5.1086,4.9845,4.787,0.0,0.0,0.0,0.0,0.0,0.0,0.0,0.0,0.0,0.0,0.0,0.0,0.0,0.0,0.0,0.0,0.0,0.0,0.0,0.0,0.0,0.0,0.0,0.0,0.0,0.0,0.0,0.0,0.0,0.0,0.0,0.0,0.0,0.0,0.0,0.0,0.0,0.0,0.0,0.0,0.0,4.6873,4.9105,5.0041,5.076,0.0,0.0,5.1092,5.1815,5.0901,5.0085,5.0033,0.0,0.0,0.0,0.0,0.0,0.0,0.0,0.0,0.0,0.0,0.0,0.0,0.0,0.0,0.0,0.0,0.0,0.0,0.0,0.0,0.0,0.0,0.0,0.0,0.0,0.0,0.0,0.0,0.0,0.0,0.0,0.0,0.0,0.0,0.0,0.0,0.0,0.0,0.0,0.0,0.0,0.0,0.0,0.0,0.0,0.0,0.0,0.0,0.0,0.0,0.0,0.0,0.0,4.5687,4.79,4.98,5.1468,5.2779,5.3079,5.2749,5.1828,5.0541,4.8805,0.0,0.0,0.0,0.0,0.0,0.0,0.0,0.0,0.0,0.0,0.0,0.0,0.0,0.0,0.0,0.0,0.0,0.0,0.0,0.0,0.0,0.0,0.0,0.0,0.0,0.0,0.0,0.0,3.8761,3.9886,4.0943,0.0,0.0,0.0,0.0,0.0,0.0,0.0,0.0,0.0,0.0,4.8898,5.0123,5.1413,0.0,0.0,5.1816,5.1966,5.2842,5.2537,5.2198,5.2198,5.0083,0.0,0.0,0.0,0.0,0.0,0.0,0.0,0.0,0.0,0.0,0.0,0.0,0.0,0.0,0.0,0.0,0.0,0.0,0.0,0.0,0.0,0.0,0.0,0.0,0.0,0.0,0.0,0.0,0.0,0.0,0.0,0.0,0.0,0.0,0.0,0.0,0.0,0.0,0.0,0.0,0.0,0.0,0.0,0.0,0.0,0.0,0.0,0.0,0.0,0.0,0.0,0.0,4.6253,4.8588,5.072,5.2426,5.3797,5.4186,5.3952,5.3114,5.1983,5.0506,0.0,0.0,0.0,0.0,0.0,0.0,0.0,0.0,0.0,0.0,0.0,0.0,0.0,0.0,0.0,0.0,0.0,0.0,0.0,0.0,0.0,0.0,0.0,0.0,0.0,0.0,0.0,0.0,4.1345,4.2273,4.2299,0.0,0.0,0.0,0.0,0.0,0.0,0.0,0.0,0.0,0.0,5.0704,5.1127,5.2758,5.3668,5.296,5.2842,5.3045,5.3737,5.345,5.3145,5.3129,0.0,0.0,0.0,0.0,0.0,0.0,0.0,0.0,0.0,0.0,0.0,0.0,0.0,0.0,0.0,0.0,0.0,0.0,0.0,0.0,0.0,0.0,0.0,0.0,0.0,0.0,0.0,0.0,0.0,0.0,3.7286,0.0,0.0,0.0,0.0,0.0,0.0,0.0,0.0,0.0,0.0,0.0,0.0,0.0,0.0,0.0,0.0,0.0,0.0,0.0,0.0,0.0,0.0,4.6047,4.9269,5.1899,5.3852,5.517,5.6346,5.6402,5.5174,5.4461,5.3271,5.1493,0.0,0.0,0.0,0.0,0.0,0.0,0.0,0.0,0.0,0.0,0.0,0.0,0.0,0.0,0.0,0.0,0.0,0.0,0.0,0.0,0.0,0.0,0.0,0.0,0.0,0.0,4.3091,4.466,4.4888,0.0,0.0,0.0,0.0,0.0,0.0,0.0,0.0,0.0,0.0,5.0215,5.2134,5.2267,5.4211,5.5309,5.46,5.4499,5.4499,5.455,5.3315,5.2334,0.0,0.0,0.0,0.0,0.0,0.0,0.0,0.0,0.0,0.0,0.0,0.0,0.0,0.0,0.0,0.0,0.0,0.0,0.0,0.0,0.0,0.0,0.0,0.0,0.0,0.0,0.0,4.1963,4.2436,0.0,0.0,0.0,0.0,0.0,0.0,0.0,0.0,0.0,0.0,0.0,4.805,4.8313,0.0,0.0,0.0,0.0,0.0,0.0,0.0,0.0,0.0,0.0,0.0,0.0,4.9715,5.1654,5.4162,5.6128,5.747,5.7243,5.6989,5.6805,5.6136,5.4571,5.202,0.0,0.0,0.0,0.0,0.0,0.0,0.0,0.0,0.0,0.0,0.0,0.0,0.0,0.0,0.0,0.0,0.0,0.0,0.0,0.0,0.0,0.0,0.0,0.0,0.0,4.3213,0.0,0.0,0.0,0.0,0.0,0.0,0.0,0.0,0.0,0.0,0.0,4.9112,5.0451,5.2437,5.3771,5.3822,5.4905,5.5259,0.0,0.0,0.0,0.0,0.0,0.0,0.0,0.0,0.0,0.0,0.0,0.0,0.0,0.0,5.098,4.9,4.9221,4.9729,4.9729,0.0,0.0,0.0,0.0,0.0,0.0,0.0,0.0,0.0,0.0,0.0,0.0,0.0,0.0,4.6179,0.0,4.5037,0.0,0.0,0.0,0.0,0.0,0.0,0.0,0.0,5.0154,5.113,5.2091,5.234,5.2473,0.0,5.2473,5.1003,0.0,0.0,0.0,0.0,0.0,0.0,0.0,0.0,5.1975,5.3992,5.6303,5.8183,5.952,5.9123,5.8899,5.8888,5.8383,5.7009,5.4654,5.3582,5.1643,0.0,0.0,0.0,0.0,0.0,0.0,0.0,0.0,0.0,0.0,0.0,0.0,0.0,0.0,0.0,0.0,0.0,0.0,0.0,0.0,0.0,0.0,0.0,4.5722,0.0,0.0,0.0,0.0,0.0,0.0,0.0,0.0,0.0,4.8827,5.0252,5.1815,5.2825,5.4346,5.5277,5.504,0.0,0.0,0.0,0.0,0.0,0.0,0.0,5.5683,5.668,5.6849,5.7121,5.7957,5.7368,5.6776,5.6742,0.0,0.0,5.3026,5.2874,5.3347,5.3568,5.3923,5.433,5.4771,5.5077,5.5417,0.0,0.0,0.0,0.0,0.0,0.0,0.0,0.0,4.964,5.0269,0.0,4.8829,0.0,0.0,0.0,0.0,0.0,4.757,0.0,0.0,5.2937,5.4343,5.57,5.6448,5.6812,5.6812,5.6799,5.6746,5.6514,5.2587,0.0,0.0,0.0,0.0,0.0,0.0,5.2889,5.6271,5.8295,5.9981,6.1366,6.1958,6.1933,6.131,6.1105,6.0402,5.9189,5.7308,5.5331,5.312,5.0422,0.0,0.0,0.0,0.0,0.0,0.0,0.0,0.0,0.0,0.0,0.0,0.0,0.0,0.0,0.0,0.0,0.0,0.0,0.0,0.0,4.824,0.0,0.0,0.0,0.0,0.0,0.0,0.0,0.0,0.0,0.0,5.1478,5.3078,5.4461,5.4718,0.0,0.0,0.0,0.0,5.7645,5.69,5.6833,5.707,5.7798,5.7374,5.7476,5.8912,0.0,0.0,6.0569,6.0895,6.1023,6.0989,6.1568,6.1047,5.7855,5.7284,5.7492,5.8173,5.8981,5.974,5.9895,6.0303,6.0834,5.1261,0.0,0.0,0.0,0.0,4.9392,5.0734,5.1859,5.2289,5.3084,5.3945,5.2488,0.0,0.0,0.0,0.0,0.0,0.0,5.3566,5.5208,5.6647,5.7839,5.8747,5.9496,5.9827,5.9827,5.9827,5.9827,5.9794,5.8601,5.6451,5.3437,0.0,0.0,0.0,0.0,5.6817,5.8743,6.0738,6.2274,6.3365,6.282,6.2282,6.1806,6.1933,6.1126,5.9284,5.944,5.8088,5.493,5.3589,0.0,0.0,0.0,0.0,0.0,0.0,0.0,0.0,0.0,0.0,0.0,0.0,0.0,0.0,0.0,0.0,0.0,0.0,0.0,5.0473,5.1116,5.1133,0.0,0.0,0.0,0.0,0.0,0.0,0.0,0.0,0.0,5.6592,5.6322,5.6509,0.0,0.0,5.8303,5.81,5.8404,5.8423,5.7712,5.7595,0.0,5.8592,5.9438,6.052,6.1955,6.3651,6.4944,6.5243,6.5463,6.5587,6.5553,6.5758,6.5699,6.5258,6.3007,6.1528,6.163,6.2301,6.3076,6.3604,6.4288,6.4938,5.562,5.3515,5.1943,5.1395,5.1793,5.2955,5.4063,5.5156,5.5487,5.623,5.7257,5.6098,5.5733,5.5965,5.4792,0.0,0.0,0.0,5.7342,5.8522,5.9649,6.061,6.1285,6.1748,6.2146,6.2378,6.2411,6.2619,6.2958,6.2659,6.1472,5.9305,0.0,0.0,5.6316,5.7959,5.9654,6.1465,6.3231,6.4569,6.534,6.505,6.4798,6.4662,6.4505,6.3756,6.2289,6.231,6.0948,5.7931,5.6884,5.5344,0.0,0.0,0.0,0.0,0.0,0.0,0.0,0.0,0.0,0.0,0.0,4.4891,0.0,0.0,0.0,0.0,5.0017,5.1945,5.4296,5.4262,0.0,0.0,0.0,0.0,0.0,0.0,0.0,5.6122,5.7374,5.8795,6.0501,6.0283,5.9911,5.9892,6.0182,6.0351,6.0351,0.0,6.0603,6.0182,6.0351,6.0863,6.1685,6.2586,6.3744,6.5264,6.7066,6.8302,6.8356,6.8508,6.8651,6.8637,6.8671,6.8788,6.9214,6.7436,6.5906,6.5828,6.6264,6.6804,6.723,6.7676,6.8102,5.9231,5.9032,5.6329,5.5502,5.5998,5.6746,5.7461,5.8171,5.8866,5.9562,6.0191,5.9562,5.9628,6.0225,5.9661,0.0,5.8389,5.9794,6.0755,6.1384,6.22,6.2863,6.3459,6.3614,6.4011,6.4696,6.4696,6.5138,6.5924,6.5324,6.5065,6.5103,6.1421,5.9558,5.9571,6.0324,6.1827,6.412,6.5615,6.6687,6.7323,6.7971,6.8428,6.8539,6.7956,6.7315,6.6732,6.5486,6.3768,6.167,6.0114,5.8303,5.6139,0.0,0.0,0.0,0.0,0.0,0.0,0.0,0.0,0.0,0.0,0.0,0.0,0.0,0.0,0.0,5.4312,0.0,5.8118,5.7577,0.0,0.0,0.0,5.6071,5.6139,5.6747,5.7746,5.925,0.0,0.0,6.3477,6.439,6.414,6.2178,6.2415,6.2753,6.2821,6.3429,6.3849,6.3917,6.4512,6.5271,6.6106,6.6575,6.7339,6.8834,6.9837,7.0477,7.0429,7.0561,7.067,7.0567,7.0567,7.0567,7.0587,7.0443,7.0526,7.0182,7.0271,7.0394,7.0305,7.0408,7.0477,6.2266,6.22,6.1504,6.0324,5.9032,5.9761,6.0456,6.114,6.1339,6.1836,6.2498,6.2333,6.2366,6.2565,6.3471,6.3471,6.2896,6.3736,6.3935,6.3725,6.4895,6.5293,6.4962,6.6257,6.6967,6.7134,6.7346,6.7558,6.7759,6.7625,6.7245,6.672,6.5784,6.4385,6.267,6.3492,6.4416,6.5367,6.7034,6.8015,6.8304,6.798,6.7764,6.7777,6.7677,6.7267,6.6523,6.6363,6.5527,6.3903,6.2381,6.0825,5.9133,5.6934,0.0,0.0,0.0,0.0,0.0,0.0,0.0,0.0,0.0,4.9999,5.2249,0.0,5.389,0.0,5.7645,5.9674,6.1163,6.0655,0.0,0.0,5.9539,5.9302,5.9911,6.0148,6.1028,6.3057,6.3429,6.414,6.5831,6.6656,6.7151,6.7184,6.6373,6.5967,6.6508,6.6711,6.7083,6.7658,6.795,6.8387,6.9378,7.0605,7.1724,7.2793,7.3264,7.3326,7.2777,7.2832,7.283,7.2278,7.214,7.214,7.2174,7.214,7.2119,7.2042,7.165,7.1222,7.1222,7.1691,7.214,6.3791,6.3824,6.4122,6.3504,6.2411,6.2179,6.23,6.2664,6.2664,6.3261,6.4266,6.4929,6.5194,6.526,6.6032,6.6165,6.5856,6.6198,6.6232,6.6035,6.6799,6.701,6.6757,6.7713,6.8182,6.8182,6.835,6.8428,6.854,6.854,6.8382,6.8122,6.8089,6.752,6.6409,6.6271,6.657,6.7265,6.8539,6.9412,6.9827,6.9468,6.9231,6.9175,6.8896,6.8528,6.8127,6.7918,6.7151,6.5641,6.4783,6.3362,6.1231,5.9641,5.7814,0.0,0.0,0.0,0.0,0.0,0.0,0.0,0.0,0.0,0.0,0.0,5.734,5.9133,6.0994,6.2584,6.3754,6.3802,6.3768,6.3734,6.3362,6.324,6.37,6.3768,6.4478,6.6373,6.6609,6.7151,6.8605,6.9451,7.006,7.0534,7.0376,7.0038,6.9586,7.0046,7.0711,7.1151,7.1907,7.2607,7.3261,7.3939,7.4552,7.4952,7.4869,7.4613,7.42,7.4218,7.4154,7.3774,7.3671,7.3671,7.3671,7.3671,7.3671,7.3636,7.3326,7.2809,7.2153,7.2381,7.2692,6.452,6.4586,6.516,6.5436,6.5436,6.4133,6.3559,6.3592,6.3592,6.4299,6.5602,6.6993,6.7655,6.7754,6.7854,6.7821,6.7754,6.7821,6.7926,6.8001,6.8201,6.837,6.8551,6.8674,6.8764,6.8864,6.8887,6.9054,6.93,6.9322,6.9444,6.9654,6.9654,6.9848,7.0209,6.8974,6.8781,6.9654,7.0297,7.0939,7.156,7.1582,7.1582,7.1526,7.0872,7.0466,7.0432,6.9688,6.8639,6.7299,6.6981,6.5662,6.3091,6.2076,6.0655,0.0,5.778,0.0,0.0,0.0,0.0,0.0,0.0,0.0,0.0,5.9081,6.0858,6.2922,6.4275,6.5324,6.6068,6.6812,6.7252,6.7252,6.7299,6.7366,6.7387,6.7366,6.7907,6.9383,6.9519,7.006,7.1323,7.2202,7.2699,7.2868,7.3895,7.4054,7.2801,7.3424,7.4241,7.4434,7.5788,7.6565,7.6816,7.663,7.6386,7.6339,7.58,7.5201,7.5076,7.5063,7.5029,7.4891,7.4787,7.4822,7.4891,7.4856,7.4856,7.4787,7.4753,7.4339,7.336,7.3071,7.3002,6.5227,6.5227,6.5359,6.5734,6.6198,6.5392,6.4995,6.4995,6.4995,6.5469,6.633,6.7224,6.792,6.8506,6.9103,6.9069,6.8506,6.9136,6.8878,6.8034,6.9233,6.9605,6.9333,7.0051,7.0747,7.1308,7.1524,7.1965,7.2585,7.2585,7.2608,7.2665,7.2688,7.2699,7.2788,0.0,0.0,0.0,7.2823,7.2958,7.3071,7.3094,7.3071,7.3071,7.236,0.0,7.1954,7.0703,6.9879,6.9519,6.7793,0.0,0.0,0.0,0.0,0.0,0.0,0.0,0.0,0.0,0.0,0.0,6.2618,6.2584,6.2347,6.412,6.5764,6.6745,6.7117,6.759,6.8368,6.9113,6.9553,6.9586,7.0094,7.0444,7.0444,7.0444,7.0804,7.165,7.1785,7.2124,7.3003,7.3713,7.4424,7.4999,7.6011,7.6765,7.6935,7.6642,7.6826,7.7485,7.8206,7.86,7.8705,7.8294,7.7948,7.7879,7.727,7.658,7.5994,7.5891,7.5615,7.5132,7.4891,7.496,7.4925,7.4891,7.4994,7.4925,7.4925,7.4822,7.4546,7.4477,7.4477,6.5403,0.0,6.5403,6.5834,0.0,6.5701,6.5602,6.59,6.5536,6.5834,6.6529,6.7291,6.7821,6.8175,6.8539,6.8705,6.8728,6.9069,6.9247,6.9294,6.9996,7.0572,7.0939,7.14,7.2009,7.274,7.2889,7.3161,7.35,7.35,7.35,7.3534,7.3849,7.4221,7.4593,7.5361,7.4989,7.3534,7.35,7.35,7.35,7.35,7.35,7.35,0.0,0.0,0.0,0.0,0.0,0.0,0.0,0.0,0.0,0.0,0.0,6.4613,6.4241,6.4018,6.4038,6.4038,6.4661,6.6149,6.7624,6.7827,6.6385,6.732,6.8402,6.9485,6.9891,7.0297,7.0703,7.1379,7.1842,7.1875,7.2496,7.2912,7.2969,7.3274,7.3781,7.4458,7.4627,7.4897,7.5632,7.6014,7.6386,7.6816,7.7687,7.8468,7.8856,7.8845,7.9037,7.9933,8.0226,8.0415,8.037,7.9889,7.9304,7.8982,7.8327,7.7546,7.6753,7.6959,7.6959,7.627,7.6339,7.6511,7.6097,7.6029,7.6029,7.6029,7.6063,7.6063,7.5994,7.5442,7.4891,6.5403,6.5403,6.5403,6.5922,6.6628,6.5767,6.5734,6.6264,0.0,0.0,0.0,6.7125,6.7489,6.7589,6.7801,6.8122,6.8599,6.8888,6.951,7.0394,7.0494,7.1217,7.2394,7.2394,7.2834,7.3646,7.368,7.3747,7.3906,7.3906,7.395,7.4143,7.4695,7.5347,7.6149,7.7391,7.6782,7.4413,7.4312,7.4289,7.4312,7.4312,7.4221,7.4086,7.3974,7.3838,7.368,7.2969,7.2326,7.1718,7.0973,6.9992,6.8774,6.8571,6.8233,6.7637,6.7603,6.7569,6.7603,6.7569,6.8199,6.9586,7.1616,7.1921,6.9823,6.9789,7.0398,7.1616,7.236,7.28,7.28,7.3578,7.4109,7.4086,7.4762,7.5178,7.5236,7.5709,7.6284,7.6961,7.6995,7.7324,7.7871,7.8108,7.8302,7.8443,7.9172,7.9863,7.9936,8.0193,8.0652,8.1416,8.1522,8.1683,8.1672,8.1028,8.0373,7.9776,7.9063,7.8373,7.789,7.8132,7.8292,7.7753,7.8189,7.8166,7.7753,7.7615,7.7615,7.7615,7.7477,7.7408,7.7304,7.6304,7.5442,6.5403,6.5403,6.5403,6.6198,6.7324,6.5966,6.5469,6.5536,6.5459,6.5834,6.6496,6.6595,6.6993,6.7678,6.8506,6.8588,6.8211,6.9572,7.0126,6.9962,7.0568,7.1411,7.2371,7.2394,7.3105,7.4356,7.4458,7.4762,7.5337,7.5371,7.5743,7.6318,7.6521,7.6961,7.7638,7.7899,7.7797,7.7367,7.7391,7.7391,7.7367,7.7358,7.7087,7.642,7.5743,7.51,7.4458,7.3747,7.3308,7.3195,7.2462,7.1988,7.1751,7.1142,7.0748,7.068,7.0647,7.0647,7.0647,7.0669,7.1019,7.1921,7.3409,7.3646,7.2124,7.2496,7.2992,7.3206,7.3916,7.4322,7.4367,7.554,7.6318,7.642,7.7063,7.7527,7.7435,7.7594,7.7705,7.7874,7.7841,7.7972,7.838,7.8905,7.9352,7.9688,8.0311,8.1115,8.1259,8.1352,8.141,8.1705,8.1776,8.1776,8.1707,8.1132,8.0614,8.0476,7.9821,7.9293,7.9028,7.9166,7.9258,7.9132,7.9201,7.9224,7.9063,7.9166,7.9028,7.8959,7.858,7.8258,7.8223,7.7477,7.6856,6.6595,6.6595,6.6595,6.7224,6.8142,6.7479,6.6949,6.6595,6.6595,6.6562,6.6552,6.7053,6.7486,6.7841,6.8458,6.8772,6.8839,6.9622,7.0117,7.0445,7.1152,7.203,7.2969,7.3409,7.4153,7.5168,7.5202,7.5371,7.5709,7.6115,7.6521,7.6927,7.7671,7.845,7.9126,7.9194,7.9194,7.916,7.8382,7.801,7.801,7.801,7.7807,7.7468,7.713,7.6792,7.6454,7.5303,7.4695,7.4695,7.3578,7.3003,7.2969,7.2665,7.2496,7.2496,7.2496,7.2699,7.3048,7.3883,7.4492,7.4864,7.5845,7.6149,7.5506,7.5371,7.5506,7.5902,7.6251,7.6454,7.6454,7.7063,7.7468,7.7468,7.8145,7.8585,7.8653,7.8991,7.9194,7.9194,7.9194,7.9244,7.9368,7.9797,8.0124,8.0331,8.0956,8.149,8.1763,8.1715,8.1633,8.1752,8.1776,8.1776,8.1776,8.1535,8.1063,8.0683,8.0304,7.9925,7.9649,7.981,7.989,7.9614,7.9787,7.989,7.9649,7.9477,7.95,7.95,7.927,7.9017,7.8948,7.8683,7.8201,6.7589,6.7589,6.7589,6.7943,6.844,6.8606,6.8274,6.7655,6.7824,6.7615,6.7206,6.7698,6.7955,6.8023,6.8439,6.9009,6.9557,6.9804,7.0287,7.0995,7.1748,7.2582,7.351,7.4255,7.4999,7.5608,7.5676,7.5777,7.6048,7.6623,7.7096,7.7502,7.872,7.9634,8.0175,8.0209,8.0209,8.0141,7.9058,7.8483,7.8483,7.8508,7.8416,7.8247,7.8247,7.8179,7.7967,7.6826,7.6217,7.6149,7.5134,7.4515,7.4492,7.4515,7.4515,7.4492,7.4515,7.4762,7.5371,7.6454,7.713,7.7164,7.7807,7.8213,7.8213,7.7908,7.7705,7.8,7.8044,7.8179,7.8213,7.8416,7.8483,7.8517,7.8991,7.9329,7.9397,7.987,8.0234,8.0284,8.0309,8.0267,8.0485,8.0659,8.0799,8.0912,8.1224,8.1538,8.1728,8.1776,8.1776,8.1776,8.1776,8.1776,8.1776,8.1776,8.1535,8.0925,8.0856,8.0752,8.0569,8.0821,8.1028,8.0787,8.089,8.0994,8.0442,8.0166,8.0155,8.0189,8.0156,8.0061,7.9864,7.9534,7.9178,6.7622,6.7589,6.7688,6.7622,6.792,6.8473,6.8374,6.79,6.8572,6.8954,6.8854,6.8025,6.7862,6.809,6.9007,6.9569,6.9884,7.0726,7.1154,7.1346,7.201,7.28,7.3578,7.4289,7.4999,7.5676,7.5777,7.6183,7.6758,7.6893,7.7579,7.8855,7.9701,8.0107,8.0209,8.0209,8.0209,8.0209,8.0073,8.0006,8.0006,8.0006,7.9701,7.9025,7.9025,7.8686,7.8111,7.7865,7.7773,7.7773,7.7594,7.7536,7.7527,7.7561,7.7536,7.7527,7.7561,7.7628,7.7662,7.7807,7.7908,7.7967,7.8585,7.8991,7.9025,7.9532,7.9295,7.8483,7.8653,7.8991,7.9058,7.9532,7.9837,7.9803,7.9938,8.0107,8.0073,8.0141,8.0309,8.0526,8.0671,8.0734,8.1181,8.1258,8.1369,8.1538,8.1609,8.1739,8.1787,8.1879,8.1914,8.1845,8.1834,8.1927,8.1903,8.181,8.1845,8.1741,8.1741,8.1927,8.2319,8.2609,8.2824,8.3206,8.293,8.2667,8.2447,8.2086,8.1674,8.1817,8.1779,8.159,8.0837,8.0374,7.9912,6.9169,6.9533,6.9566,6.9807,7.0205,7.0527,7.059,7.05,7.0885,7.1127,7.1245,7.0827,7.032,6.9769,7.0299,7.0648,7.0715,7.1109,7.1548,7.1988,7.2699,7.3646,7.4796,7.5574,7.6352,7.6995,7.7063,7.7232,7.757,7.7976,7.8754,7.9667,8.0073,8.0209,8.0209,8.0209,8.0209,8.0209,8.0615,8.0851,8.0784,8.0412,8.0073,7.9803,7.9735,7.9634,7.9295,7.8889,7.8653,7.8619,7.8247,7.801,7.801,7.801,7.801,7.8034,7.8416,7.8653,7.8653,7.9058,7.9295,7.9295,7.9566,7.9769,7.9769,8.004,7.9904,7.9464,7.9566,7.9769,7.9769,8.004,8.0209,8.0209,8.0209,8.0209,8.0209,8.0581,8.0945,8.1205,8.163,8.1848,8.1787,8.1571,8.1524,8.1705,8.181,8.1879,8.1845,8.2155,8.2431,8.2572,8.3217,8.3403,8.276,8.2466,8.2628,8.2973,8.3121,8.3366,8.4135,8.4368,8.4658,8.5498,8.4866,8.4414,8.4368,8.4193,8.3938,8.397,8.444,8.4535,8.3811,8.3373,8.2974,7.0693,7.1189,7.1189,7.1521,7.1985,7.1993,7.2156,7.2399,7.2438,7.2639,7.2854,7.2949,7.2495,7.1715,7.1761,7.183,7.1921,7.1921,7.2191,7.2732,7.3443,7.4492,7.5676,7.6521,7.7299,7.7908,7.7976,7.8077,7.8348,7.9058,7.9701,8.0141,8.0209,8.0209,8.0209,8.0209,8.0209,8.0242,8.0775,8.1012,8.0885,8.0479,8.0276,8.0445,8.0479,8.0412,8.0175,7.9701,7.9431,7.9372,7.8889,7.8585,7.8585,7.8585,7.8585,7.8653,7.9092,7.9397,7.9431,7.9904,8.0209,8.0209,8.0209,8.0209,8.0209,8.0209,8.0209,8.0175,8.0209,8.0175,8.0209,8.0209,8.0209,8.0209,8.0344,8.0479,8.0547,8.1199,8.1817,8.2113,8.2605,8.2945,8.2648,8.2389,8.2308,8.2452,8.2466,8.2587,8.2752,8.3321,8.3704,8.3961,8.5057,8.5059,8.3949,8.3996,8.4216,8.453,8.481,8.5087,8.589,8.605,8.6364,8.7015,8.6462,8.6126,8.6024,8.5989,8.5954,8.6173,8.6489,8.6787,8.6158,8.6087,8.563,7.1918,7.1951,7.1985,7.2051,7.2018,7.2084,7.2222,7.2614,7.2673,7.2878,7.3238,7.3415,7.3454,7.3352,7.3177,7.3143,7.3318,7.3274,7.3308,7.351,7.4221,7.4965,7.5743,7.6521,7.7333,7.817,7.8237,7.845,7.9092,7.9769,8.0175,8.0209,8.0209,8.0209,8.0242,8.0276,8.0209,8.0378,8.0513,8.0378,8.0378,8.031,8.0648,8.1122,8.1215,8.0818,8.0276,8.0175,8.0141,8.0141,8.004,8.004,8.004,8.004,8.0006,8.004,8.0073,8.0141,8.0107,8.0175,8.0209,8.0209,8.0209,8.0209,8.0209,8.0209,8.0209,8.0209,8.0276,8.0276,8.0276,8.0242,8.0242,8.031,8.0818,8.1148,8.1283,8.2097,8.2785,8.3073,8.3501,8.3832,8.3924,8.39,8.3911,8.3925,8.3932,8.4175,8.4819,8.5164,8.5608,8.6202,8.6575,8.6468,8.5608,8.5675,8.6267,8.6601,8.663,8.6895,8.7394,8.785,8.8307,8.8564,8.8128,8.7857,8.7693,8.7592,8.7546,8.7598,8.7567,8.7632,8.7985,8.7274,8.6921,7.2283,7.2746,7.321,7.3401,7.3434,7.3608,7.3831,7.4067,7.4253,7.4517,7.4732,7.4874,7.4897,7.4897,7.4803,7.432,7.3534,7.35,7.3747,7.4221,7.4965,7.5946,7.7164,7.7976,7.8686,7.9329,7.9397,7.9532,7.9769,8.0073,8.0209,8.0209,8.0209,8.0412,8.0818,8.0885,8.1122,8.1596,8.2035,8.2069,8.1663,8.2069,8.2035,8.1317,8.0818,8.0479,8.0209,8.0209,8.0209,8.0209,8.0209,8.0209,8.0209,8.0209,8.0209,8.0209,8.0209,8.0209,8.0209,8.0209,8.0209,8.0209,8.0209,8.0209,8.0209,8.0209,8.0209,8.0276,8.0682,8.0911,8.0818,8.0479,8.0378,8.0851,8.1148,8.1605,8.2053,8.2878,8.3602,8.4069,8.483,8.5564,8.5648,8.5759,8.5812,8.5777,8.5812,8.598,8.6257,8.6672,8.7165,8.7614,8.8433,8.9045,8.8798,8.7793,8.7607,8.805,8.8357,8.8739,8.9199,8.9498,8.9888,9.0469,9.0136,8.976,8.9652,8.9528,8.9455,8.9826,8.973,8.9236,8.9714,8.9093,8.8764,7.3028,7.36,7.4123,7.4372,7.4473,7.4647,7.487,7.5115,7.5252,7.547,7.5652,7.5676,7.5676,7.5676,7.5676,7.5202,7.4255,7.4221,7.4492,7.4999,7.5743,7.6758,7.7942,7.8754,7.9498,8.0073,8.0209,8.0209,8.0209,8.0209,8.0209,8.0209,8.0412,8.0809,8.1283,8.1554,8.1934,8.2441,8.2915,8.2881,8.2543,8.2881,8.2712,8.1731,8.0953,8.0412,8.0209,8.0209,8.0209,8.0209,8.0209,8.0209,8.0209,8.0209,8.0209,8.0209,8.0209,8.0209,8.0209,8.0209,8.0209,8.0209,8.0209,8.0276,8.0479,8.0547,8.0648,8.0953,8.1325,8.1689,8.1656,8.1343,8.1342,8.2011,8.2401,8.2909,8.3747,8.4806,8.5564,8.607,8.6837,8.7342,8.7407,8.7491,8.7501,8.7543,8.7543,8.7606,8.8007,8.8356,8.8896,8.9178,9.0081,9.0665,9.0551,8.9841,8.9501,8.9895,8.9913,9.0373,9.0819,9.1093,9.1509,9.2111,9.2221,9.1897,9.1633,9.1468,9.1684,9.2115,9.151,9.0775,9.0942,9.0923,9.0447,7.4314,7.4489,7.4606,7.4764,7.4995,7.5069,7.5149,7.5445,7.5493,7.5764,7.6014,7.5845,7.5946,7.5845,7.598,7.5777,7.5743,7.5709,7.5709,7.5811,7.6589,7.7333,7.8111,7.8889,7.9566,8.0175,8.0209,8.0209,8.0209,8.0209,8.0209,8.031,8.0885,8.1249,8.1325,8.2035,8.2441,8.2644,8.2746,8.2611,8.2415,8.2577,8.2509,8.2272,8.1629,8.1021,8.0344,8.0242,8.0209,8.0209,8.0209,8.0209,8.0209,8.0209,8.0209,8.0276,8.0242,8.0242,8.031,8.0378,8.0445,8.0479,8.0344,8.0716,8.119,8.1291,8.1554,8.2087,8.2427,8.2606,8.2913,8.3056,8.3223,8.3792,8.4353,8.5255,8.6416,8.7754,8.8707,8.8716,8.8891,8.9049,8.907,8.9113,8.9154,8.9169,8.9148,8.9399,8.9975,9.0223,9.0793,9.1324,9.1619,9.1746,9.1803,9.1767,9.1785,9.1785,9.1655,9.1782,9.22,9.2514,9.2842,9.3363,9.3436,9.3153,9.3061,9.2915,9.2789,9.2978,9.2427,9.206,9.1913,9.1803,9.1693,7.4247,7.4347,7.4556,7.4947,7.5497,7.5887,7.6353,7.6898,7.707,7.7192,7.7266,7.7266,7.729,7.7266,7.729,7.729,7.7266,7.7266,7.6995,7.6826,7.7807,7.8483,7.8822,7.9498,7.9972,8.0175,8.0209,8.0209,8.0209,8.0209,8.0209,8.0344,8.0953,8.1562,8.2069,8.278,8.3355,8.387,8.3903,8.3693,8.3219,8.3152,8.2949,8.2441,8.2171,8.1934,8.1697,8.075,8.0242,8.0242,8.0209,8.0209,8.0209,8.0209,8.0445,8.0911,8.0978,8.1224,8.1663,8.1697,8.1663,8.1697,8.1697,8.1832,8.2002,8.2087,8.2326,8.2828,8.3659,8.4506,8.4917,8.5889,8.5805,8.4464,8.5042,8.6076,8.7082,8.8085,8.873,8.9128,8.966,8.9992,9.0191,9.0416,9.0788,9.0808,9.0827,9.102,9.1266,9.1358,9.1434,9.1767,9.217,9.2684,9.2684,9.2831,9.3015,9.2905,9.2794,9.2905,9.3345,9.3712,9.4079,9.4373,9.4446,9.4483,9.441,9.4189,9.4006,9.3896,9.3602,9.3198,9.2831,9.2611,9.2537,7.5195,7.5355,7.5606,7.6015,7.6542,7.6923,7.7315,7.772,7.7927,7.801,7.7976,7.7976,7.801,7.801,7.801,7.801,7.8034,7.8247,7.8179,7.7874,7.8585,7.9092,7.9194,7.987,8.0209,8.0209,8.0209,8.0209,8.0209,8.0209,8.0209,8.0344,8.119,8.1934,8.2475,8.3422,8.4174,8.4546,8.458,8.4377,8.3998,8.393,8.3693,8.3253,8.2949,8.2813,8.2712,8.1629,8.1021,8.1021,8.1021,8.1021,8.1021,8.1054,8.1224,8.1562,8.1731,8.1934,8.2314,8.2314,8.2382,8.2382,8.2382,8.2793,8.3236,8.3482,8.3777,8.4855,8.5746,8.6499,8.6895,8.7647,8.757,8.6401,8.6929,8.7661,8.8579,8.9377,8.9894,9.0276,9.0671,9.0905,9.1133,9.1323,9.1803,9.1803,9.1803,9.1803,9.1877,9.2079,9.2207,9.2464,9.3015,9.3382,9.3565,9.3822,9.4153,9.3969,9.3749,9.3932,9.4263,9.4556,9.4887,9.5364,9.5547,9.5621,9.5547,9.5034,9.474,9.4703,9.4593,9.4006,9.3529,9.3529,9.3418,7.6924,7.7212,7.743,7.7621,7.7945,7.8019,7.812,7.8179,7.8213,7.828,7.8247,7.8314,7.8247,7.8204,7.8348,7.8348,7.8247,7.8855,7.916,7.9092,7.9236,7.9295,7.9397,7.9938,8.0175,8.0209,8.0209,8.0209,8.0209,8.0209,8.0209,8.0344,8.1562,8.2348,8.2652,8.3836,8.4512,8.458,8.458,8.458,8.4512,8.4546,8.4512,8.4411,8.3896,8.3558,8.3456,8.2881,8.2441,8.2408,8.2179,8.2179,8.2314,8.2374,8.228,8.2408,8.2475,8.2543,8.2577,8.2953,8.2945,8.3005,8.3236,8.3406,8.5101,8.5447,8.6005,8.7452,8.8014,8.8366,8.8623,8.8999,8.9021,8.9264,8.934,9.0111,9.1472,9.1602,9.1435,9.1565,9.1785,9.1785,9.1657,9.1767,9.1803,9.1803,9.1877,9.2024,9.2207,9.2611,9.3051,9.3455,9.3859,9.4189,9.4373,9.485,9.518,9.5144,9.485,9.4887,9.507,9.5327,9.5621,9.6098,9.6355,9.6502,9.6428,9.5841,9.5584,9.5547,9.518,9.4593,9.4373,9.4373,9.4153,7.6609,7.6924,7.7212,7.7791,7.848,7.8713,7.9126,7.9566,7.96,7.9498,7.9566,7.96,7.9532,7.96,7.9566,7.9634,7.96,7.9769,7.9904,7.9904,7.9904,7.9904,7.9938,8.0073,8.0209,8.0209,8.0209,8.0209,8.0209,8.0209,8.0209,8.0276,8.1638,8.2382,8.2618,8.387,8.4546,8.458,8.458,8.458,8.458,8.458,8.458,8.458,8.4377,8.4275,8.4309,8.414,8.343,8.2509,8.2382,8.2382,8.2483,8.2483,8.2746,8.3152,8.3272,8.3483,8.4046,8.4677,8.505,8.5211,8.5501,8.6507,8.7083,8.7211,8.7674,8.8562,8.9107,8.9656,9.0037,9.0536,9.0905,9.0982,9.0727,9.0825,9.1546,9.1803,9.1803,9.1803,9.184,9.1913,9.195,9.195,9.195,9.2024,9.2354,9.2758,9.2905,9.3418,9.4006,9.4226,9.4593,9.496,9.5346,9.5804,9.6135,9.6208,9.6025,9.5804,9.5841,9.5914,9.6245,9.6612,9.6539,9.6649,9.6649,9.6392,9.6392,9.6208,9.6061,9.5621,9.5327,9.5161,9.485,7.7774,7.8057,7.8345,7.8783,7.9331,7.9491,7.9803,8.0141,8.0209,8.0209,8.0209,8.0209,8.0209,8.0209,8.0175,8.0175,8.0209,8.0209,8.0175,8.0175,8.0175,8.0175,8.0175,8.0209,8.0209,8.0209,8.0209,8.0209,8.0209,8.0209,8.0209,8.0479,8.1697,8.2348,8.2509,8.3836,8.458,8.458,8.458,8.458,8.458,8.458,8.458,8.458,8.458,8.458,8.458,8.458,8.414,8.3498,8.3328,8.3295,8.3355,8.3355,8.3531,8.3964,8.4323,8.4805,8.5293,8.6137,8.6703,8.679,8.7339,8.7931,8.846,8.8658,8.8934,8.9981,9.0499,9.0791,9.1076,9.1528,9.1767,9.1694,9.1652,9.1649,9.184,9.2134,9.2317,9.2427,9.2648,9.2868,9.2831,9.2831,9.2831,9.2941,9.3308,9.3529,9.3712,9.4336,9.485,9.5034,9.5327,9.5731,9.5878,9.6245,9.6392,9.6575,9.6539,9.6392,9.6392,9.6355,9.6502,9.6685,9.6685,9.6722,9.6722,9.6722,9.6649,9.6575,9.6685,9.6575,9.6135,9.5841,9.5511,7.9544,7.9793,8.0057,8.0183,8.015,8.0175,8.0141,8.0209,8.0209,8.0209,8.0209,8.0209,8.0209,8.0209,8.0209,8.0209,8.0209,8.0209,8.0209,8.0209,8.0209,8.0209,8.0209,8.0209,8.0209,8.0209,8.0209,8.0209,8.0209,8.0209,8.0209,8.0513,8.1596,8.2272,8.2611,8.3768,8.4411,8.458,8.458,8.458,8.458,8.458,8.458,8.458,8.458,8.458,8.458,8.458,8.4512,8.4546,8.458,8.4444,8.4512,8.4546,8.4672,8.4841,8.5446,8.5953,8.6385,8.7173,8.776,8.7806,8.7944,8.8428,8.9546,8.9858,9.032,9.1323,9.1785,9.1657,9.1657,9.1803,9.1913,9.2079,9.2629,9.2629,9.2427,9.2758,9.3235,9.3235,9.3859,9.4189,9.4299,9.4299,9.4226,9.3675,9.4079,9.4373,9.463,9.5144,9.5511,9.5694,9.6061,9.6539,9.6612,9.6649,9.6649,9.6685,9.6685,9.6612,9.6612,9.6612,9.6649,9.6722,9.6722,9.6722,9.6722,9.6722,9.6722,9.6722,9.6722,9.6722,9.6612,9.6428,9.6135,7.9544,7.9801,7.9853,8.0031,8.0183,8.0209,8.0209,8.0209,8.0209,8.0209,8.0209,8.0209,8.0209,8.0209,8.0209,8.0209,8.0209,8.0209,8.0209,8.0209,8.0209,8.0209,8.0242,8.031,8.0242,8.0209,8.0209,8.0209,8.0209,8.0209,8.0209,8.0344,8.1122,8.1832,8.2483,8.3321,8.4065,8.4478,8.458,8.458,8.458,8.458,8.458,8.458,8.458,8.458,8.458,8.458,8.458,8.458,8.458,8.458,8.458,8.458,8.4943,8.5575,8.5946,8.6483,8.7268,8.8149,8.8765,8.8853,8.9512,9.0409,9.0766,9.098,9.1247,9.1767,9.1803,9.1803,9.1877,9.1803,9.217,9.2684,9.3088,9.3382,9.3675,9.3896,9.4042,9.4079,9.4226,9.4336,9.4373,9.4483,9.4483,9.441,9.474,9.5144,9.5547,9.5951,9.6061,9.6208,9.6355,9.6722,9.6722,9.6722,9.6722,9.6722,9.6722,9.6722,9.6722,9.6722,9.6722,9.6722,9.6722,9.6722,9.6722,9.6722,9.6722,9.6722,9.6722,9.6722,9.6722,9.6722,9.6685,7.975,7.998,7.9972,8.0082,8.0209,8.0209,8.0209,8.0209,8.0209,8.0209,8.0209,8.0209,8.0209,8.0209,8.0209,8.0209,8.0209,8.0209,8.0412,8.0615,8.075,8.0919,8.1224,8.1122,8.0987,8.0378,8.0209,8.0209,8.0209,8.0209,8.0209,8.0276,8.0919,8.1697,8.2408,8.3118,8.3896,8.4444,8.458,8.458,8.458,8.458,8.458,8.458,8.458,8.458,8.458,8.458,8.458,8.458,8.4606,8.4606,8.458,8.4606,8.5118,8.5921,8.663,8.7245,8.8239,8.9278,8.9945,8.9925,9.0664,9.1016,9.1301,9.1471,9.1601,9.1749,9.184,9.1913,9.2317,9.2391,9.2831,9.3492,9.4006,9.441,9.474,9.485,9.4887,9.496,9.5254,9.5437,9.5437,9.5217,9.5364,9.5584,9.5658,9.6025,9.6061,9.6392,9.6465,9.6575,9.6612,9.6722,9.6722,9.6722,9.6722,9.6722,9.6722,9.6722,9.6722,9.6722,9.6722,9.6722,9.6722,9.6722,9.6722,9.6722,9.6722,9.6722,9.6722,9.6722,9.6722,9.6722,9.6722,8.0006,8.0209,8.0209,8.0242,8.0344,8.0378,8.0513,8.0581,8.0513,8.0716,8.0547,8.0513,8.075,8.0615,8.0648,8.0581,8.0615,8.0648,8.1054,8.1426,8.146,8.1731,8.2103,8.2069,8.1705,8.0615,8.0479,8.0479,8.0615,8.0445,8.0615,8.0682,8.1156,8.1968,8.2611,8.3152,8.3862,8.4478,8.458,8.458,8.458,8.458,8.458,8.458,8.458,8.458,8.458,8.4606,8.4686,8.4819,8.4845,8.4917,8.5022,8.4917,8.5455,8.6483,8.7457,8.8284,8.9264,9.0227,9.0819,9.0936,9.113,9.132,9.1434,9.1546,9.1657,9.1749,9.184,9.2134,9.2941,9.2978,9.3492,9.4299,9.5107,9.5492,9.5639,9.5675,9.5694,9.5768,9.5988,9.6171,9.6318,9.6282,9.6539,9.6722,9.6722,9.6722,9.6722,9.6722,9.6722,9.6722,9.6722,9.6722,9.6722,9.6722,9.6722,9.6722,9.6722,9.6722,9.6722,9.6722,9.6722,9.6722,9.6722,9.6722,9.6722,9.6722,9.6722,9.6722,9.6722,9.6722,9.6722,9.6722,9.6722,8.0158,8.0209,8.0209,8.0547,8.1054,8.1148,8.1426,8.2002,8.1934,8.2035,8.2002,8.2002,8.1934,8.1968,8.2035,8.2035,8.1832,8.1799,8.1968,8.2205,8.2238,8.2408,8.2611,8.2652,8.2348,8.1968,8.1528,8.146,8.1629,8.1494,8.1393,8.19,8.2069,8.2543,8.305,8.349,8.3862,8.4478,8.458,8.458,8.458,8.458,8.458,8.458,8.458,8.458,8.4606,8.466,8.4969,8.5753,8.5845,8.6286,8.6669,8.6311,8.6897,8.7967,8.8566,8.9192,9.0288,9.0704,9.0995,9.1112,9.1303,9.1416,9.1509,9.1657,9.173,9.1804,9.1913,9.2207,9.3015,9.3308,9.3932,9.4831,9.5455,9.5785,9.6282,9.6392,9.6392,9.6355,9.6575,9.6722,9.6722,9.6722,9.6722,9.6722,9.6722,9.6722,9.6722,9.6722,9.6722,9.6722,9.6722,9.6722,9.6722,9.6722,9.6722,9.6722,9.6722,9.6722,9.6722,9.6722,9.6722,9.6722,9.6722,9.6722,9.6722,9.6722,9.6722,9.6722,9.6722,9.6722,9.6722,9.6722,9.6722,8.0412,8.075,8.0775,8.119,8.1799,8.1866,8.2069,8.2374,8.2382,8.2382,8.2382,8.2382,8.2382,8.2382,8.2382,8.2382,8.2415,8.2382,8.2584,8.2847,8.2983,8.3219,8.3456,8.3498,8.3531,8.3355,8.2847,8.234,8.2348,8.2069,8.2137,8.2272,8.2382,8.278,8.3321,8.349,8.393,8.4444,8.458,8.458,8.458,8.458,8.458,8.458,8.4606,8.458,8.4686,8.5196,8.5575,8.6062,8.6571,8.7386,8.7921,8.8194,8.8217,8.9092,8.9321,8.9785,9.0822,9.1149,9.1246,9.134,9.1546,9.1657,9.1694,9.1749,9.1803,9.1913,9.2391,9.2831,9.3675,9.4042,9.4905,9.5768,9.6098,9.6282,9.6575,9.6685,9.6722,9.6722,9.6722,9.6722,9.6722,9.6722,9.6722,9.6722,9.6722,9.6722,9.6722,9.6722,9.6722,9.6722,9.6722,9.6722,9.6722,9.6722,9.6722,9.6722,9.6722,9.6722,9.6722,9.6722,9.6722,9.6722,9.6722,9.6722,9.6722,9.6722,9.6722,9.6722,9.6722,9.6722,9.6722,9.6722,9.6722,8.0851,8.1494,8.1528,8.1934,8.2577,8.2584,8.272,8.2821,8.2889,8.2923,8.2821,8.2915,8.2949,8.2881,8.2889,8.2889,8.2847,8.2889,8.3261,8.3625,8.3727,8.4065,8.4411,8.458,8.4444,8.4242,8.393,8.3422,8.3084,8.2746,8.2712,8.3016,8.2889,8.3084,8.3659,8.3828,8.414,8.4377,8.458,8.458,8.458,8.458,8.458,8.4686,8.4792,8.4943,8.5126,8.5921,8.6557,8.6982,8.755,8.8352,8.9278,8.9597,8.9743,8.9791,8.977,9.0353,9.0941,9.134,9.1434,9.1564,9.1712,9.1785,9.1803,9.1785,9.1877,9.2134,9.2611,9.3529,9.4373,9.5051,9.5749,9.6392,9.6649,9.6685,9.6685,9.6722,9.6722,9.6722,9.6722,9.6722,9.6722,9.6722,9.6722,9.6722,9.6722,9.6722,9.6722,9.6722,9.6722,9.6722,9.6722,9.6722,9.6722,9.6722,9.6722,9.6722,9.6722,9.6722,9.6722,9.6722,9.6722,9.6722,9.6722,9.6722,9.6722,9.6722,9.6722,9.6722,9.6722,9.6722,9.6722,9.6722,9.6722,8.1596,8.2272,8.2272,8.2678,8.3321,8.3355,8.3761,8.4242,8.4208,8.4343,8.414,8.4275,8.4208,8.4174,8.4208,8.4242,8.4242,8.414,8.4174,8.4309,8.4343,8.4411,8.458,8.458,8.458,8.458,8.4478,8.4444,8.4039,8.3558,8.3693,8.4039,8.4106,8.4343,8.4242,8.4302,8.4512,8.458,8.458,8.458,8.458,8.458,8.4606,8.489,8.5378,8.5871,8.6022,8.6886,8.769,8.8477,8.8743,8.9512,9.0465,9.074,9.0939,9.1093,9.1151,9.1112,9.1378,9.149,9.1601,9.1712,9.1785,9.1803,9.1803,9.184,9.2097,9.2905,9.3125,9.3786,9.4887,9.5418,9.5932,9.6355,9.6722,9.6722,9.6722,9.6722,9.6722,9.6722,9.6722,9.6722,9.6722,9.6722,9.6722,9.6722,9.6722,9.6722,9.6722,9.6722,9.6722,9.6722,9.6722,9.6722,9.6722,9.6722,9.6722,9.6722,9.6722,9.6722,9.6722,9.6722,9.6722,9.6722,9.6722,9.6722,9.6722,9.6722,9.6722,9.6722,9.6722,9.6722,9.6722,9.6722,9.678,8.2712,8.3016,8.305,8.3456,8.4099,8.4106,8.4275,8.4546,8.458,8.458,8.458,8.458,8.458,8.458,8.458,8.458,8.458,8.458,8.458,8.458,8.458,8.458,8.458,8.458,8.458,8.458,8.458,8.4546,8.4444,8.4343,8.437,8.4512,8.458,8.4546,8.458,8.458,8.458,8.458,8.458,8.458,8.458,8.4633,8.4864,8.5395,8.5896,8.641,8.7054,8.7898,8.8566,8.9214,8.9633,9.0308,9.0839,9.1091,9.1303,9.1397,9.1509,9.1546,9.1675,9.1675,9.173,9.1767,9.1803,9.1803,9.1803,9.184,9.217,9.3015,9.3529,9.4336,9.5327,9.5895,9.6282,9.6612,9.6722,9.6722,9.6722,9.6722,9.6722,9.6722,9.6722,9.6722,9.6722,9.6722,9.6722,9.6722,9.6722,9.6722,9.6722,9.6722,9.6722,9.6722,9.6722,9.6722,9.6722,9.6722,9.6722,9.6722,9.6722,9.6722,9.6722,9.6722,9.6722,9.6722,9.6722,9.6722,9.6722,9.6722,9.6722,9.6722,9.6722,9.6741,9.6724,9.6857,9.6914,8.3761,8.3795,8.3761,8.4106,8.458,8.458,8.458,8.458,8.458,8.458,8.458,8.458,8.458,8.458,8.458,8.458,8.458,8.458,8.458,8.458,8.458,8.458,8.458,8.458,8.458,8.458,8.458,8.458,8.458,8.4546,8.4512,8.458,8.458,8.458,8.458,8.458,8.458,8.458,8.458,8.458,8.4633,8.4917,8.5395,8.5996,8.6606,8.7197,8.7967,8.8918,8.9485,8.9696,9.0288,9.0783,9.1033,9.1282,9.1453,9.1601,9.1694,9.1767,9.1785,9.1785,9.1803,9.1803,9.1803,9.1803,9.1803,9.184,9.2354,9.3382,9.3859,9.4703,9.5621,9.6392,9.6539,9.6649,9.6722,9.6722,9.6722,9.6722,9.6722,9.6722,9.6722,9.6722,9.6722,9.6722,9.6722,9.6722,9.6722,9.6722,9.6722,9.6722,9.6722,9.6722,9.6722,9.6722,9.6722,9.6722,9.6722,9.6722,9.6722,9.6722,9.6722,9.6722,9.6722,9.6722,9.6722,9.6722,9.6722,9.6722,9.6722,9.6722,9.6741,9.6743,9.68,9.6951,9.7082,8.4512,8.4512,8.4478,8.4512,8.458,8.458,8.458,8.458,8.458,8.458,8.458,8.458,8.458,8.458,8.458,8.458,8.458,8.458,8.458,8.458,8.458,8.458,8.458,8.458,8.458,8.458,8.458,8.458,8.458,8.458,8.458,8.458,8.458,8.458,8.458,8.458,8.458,8.458,8.458,8.458,8.4864,8.5326,8.5996,8.6532,8.7783,8.8954,8.9041,8.9857,9.0283,9.0304,9.0684,9.0995,9.1149,9.1415,9.1565,9.173,9.1767,9.1803,9.1803,9.1803,9.1803,9.1803,9.1803,9.1803,9.1803,9.1803,9.2537,9.3786,9.4189,9.5034,9.5951,9.6649,9.6685,9.6722,9.6722,9.6722,9.6722,9.6722,9.6722,9.6722,9.6722,9.6722,9.6722,9.6722,9.6722,9.6722,9.6722,9.6722,9.6722,9.6722,9.6722,9.6722,9.6722,9.6722,9.6722,9.6722,9.6722,9.6722,9.6722,9.6722,9.6722,9.6722,9.6722,9.6722,9.6722,9.6722,9.6741,9.678,9.6762,9.6741,9.676,9.6838,9.7007,9.7175,9.7266,8.3498,8.393,8.393,8.42,8.458,8.458,8.458,8.458,8.458,8.458,8.458,8.458,8.458,8.458,8.458,8.458,8.458,8.458,8.458,8.458,8.458,8.458,8.458,8.458,8.458,8.458,8.458,8.458,8.458,8.458,8.458,8.458,8.458,8.458,8.458,8.458,8.458,8.458,8.458,8.458,8.4785,8.5575,8.6385,8.715,8.8229,8.9421,8.994,9.0324,9.0541,9.0681,9.0917,9.1091,9.1227,9.1508,9.1694,9.1785,9.1803,9.1803,9.1803,9.1803,9.1803,9.1803,9.1803,9.1803,9.1803,9.1803,9.2648,9.3639,9.4299,9.4997,9.6318,9.6685,9.6722,9.6722,9.6722,9.6722,9.6722,9.6722,9.6722,9.6722,9.6722,9.6722,9.6722,9.6722,9.6722,9.6722,9.6722,9.6722,9.6722,9.6722,9.6722,9.6722,9.6722,9.6722,9.6722,9.6722,9.6722,9.6741,9.676,9.678,9.6799,9.6722,9.6722,9.6722,9.676,9.6762,9.68,9.6838,9.6819,9.6781,9.6876,9.7045,9.7211,9.7394,9.7466,8.2712,8.3152,8.3186,8.3727,8.4546,8.458,8.458,8.458,8.458,8.458,8.458,8.458,8.458,8.458,8.458,8.458,8.458,8.458,8.458,8.458,8.458,8.458,8.458,8.458,8.458,8.458,8.458,8.458,8.458,8.458,8.458,8.458,8.458,8.458,8.458,8.458,8.458,8.458,8.458,8.4838,8.5092,8.6097,8.7078,8.8012,8.9106,8.9815,9.0324,9.0561,9.0621,9.078,9.0975,9.1206,9.1396,9.1546,9.1767,9.1803,9.1803,9.1803,9.1803,9.1803,9.1803,9.1803,9.1803,9.1803,9.1803,9.184,9.2574,9.4006,9.4373,9.4942,9.6465,9.6722,9.6722,9.6722,9.6722,9.6722,9.6722,9.6722,9.6722,9.6722,9.6722,9.6722,9.6722,9.6722,9.6722,9.6722,9.6722,9.6722,9.6722,9.6722,9.6722,9.6722,9.6722,9.6722,9.6722,9.6741,9.676,9.6857,9.6857,9.6895,9.6895,9.6819,9.6875,9.6988,9.697,9.6895,9.6932,9.7045,9.6951,9.6838,9.7026,9.7266,9.7394,9.7556,9.768,8.2374,8.2415,8.2441,8.3253,8.4377,8.458,8.458,8.458,8.458,8.458,8.458,8.458,8.458,8.458,8.458,8.458,8.458,8.458,8.458,8.458,8.458,8.458,8.458,8.458,8.458,8.458,8.458,8.458,8.458,8.458,8.458,8.458,8.458,8.458,8.458,8.458,8.458,8.458,8.458,8.51,8.5896,8.6814,8.7806,8.8787,8.9758,9.0385,9.0521,9.0641,9.0701,9.0858,9.111,9.132,9.1471,9.1675,9.1803,9.1803,9.1803,9.1803,9.1803,9.1803,9.1803,9.1803,9.1803,9.1803,9.1803,9.1913,9.2501,9.4042,9.4299,9.507,9.6025,9.6722,9.6722,9.6722,9.6722,9.6722,9.6722,9.6722,9.6722,9.6722,9.6722,9.6722,9.6722,9.6722,9.6722,9.6722,9.6722,9.6722,9.6722,9.6722,9.6722,9.6722,9.6722,9.6722,9.6722,9.6741,9.6762,9.6914,9.7007,9.7045,9.7101,9.7101,9.7156,9.7267,9.7175,9.7082,9.7156,9.7303,9.7211,9.7193,9.7339,9.752,9.7664,9.7734,9.7822,8.1224,8.1663,8.1663,8.2238,8.3152,8.3693,8.4133,8.4546,8.458,8.458,8.458,8.458,8.458,8.458,8.458,8.458,8.458,8.458,8.458,8.458,8.458,8.458,8.458,8.458,8.458,8.458,8.458,8.458,8.458,8.458,8.458,8.458,8.458,8.458,8.458,8.458,8.458,8.458,8.4686,8.51,8.6122,8.7126,8.8161,8.9128,9.0141,9.0561,9.0601,9.0681,9.0819,9.0956,9.1206,9.1433,9.1546,9.1712,9.1803,9.1803,9.1803,9.1803,9.1803,9.1803,9.1803,9.1803,9.1803,9.1803,9.1803,9.1803,9.2721,9.3786,9.4263,9.5144,9.6282,9.6649,9.6722,9.6722,9.6722,9.6722,9.6722,9.6722,9.6722,9.6722,9.6722,9.6722,9.6722,9.6722,9.6722,9.6722,9.6722,9.6722,9.6722,9.6722,9.6722,9.6722,9.6722,9.6722,9.6741,9.6819,9.6914,9.7045,9.7156,9.7193,9.7266,9.7358,9.7339,9.7376,9.7303,9.7285,9.7395,9.7485,9.7575,9.7646,9.7681,9.7717,9.777,9.7822,9.7857,8.0479,8.0885,8.0919,8.1325,8.2069,8.2813,8.3558,8.414,8.4208,8.437,8.4546,8.458,8.458,8.458,8.458,8.458,8.458,8.458,8.458,8.458,8.458,8.458,8.458,8.458,8.458,8.458,8.458,8.458,8.458,8.458,8.458,8.458,8.458,8.458,8.458,8.458,8.458,8.4713,8.4943,8.5728,8.6703,8.7667,8.8655,8.9548,9.0222,9.0618,9.0641,9.076,9.0936,9.1072,9.1301,9.1546,9.162,9.1712,9.1803,9.1803,9.1803,9.1803,9.1803,9.1803,9.1803,9.1803,9.1803,9.1803,9.1803,9.1803,9.2758,9.3712,9.4189,9.5254,9.6318,9.6612,9.6722,9.6722,9.6722,9.6722,9.6722,9.6722,9.6722,9.6722,9.6722,9.6722,9.6722,9.6722,9.6722,9.6722,9.6722,9.6722,9.6722,9.6722,9.6722,9.6741,9.6762,9.6819,9.6895,9.7007,9.7101,9.7193,9.7285,9.7394,9.7539,9.7628,9.7575,9.7521,9.7557,9.7593,9.7593,9.7646,9.7717,9.777,9.777,9.7822,9.7892,9.7892,9.7892,8.0209,8.0209,8.0209,8.0615,8.1325,8.1968,8.2712,8.3456,8.3524,8.393,8.4512,8.4512,8.458,8.458,8.458,8.458,8.458,8.458,8.458,8.458,8.458,8.458,8.458,8.458,8.458,8.458,8.458,8.458,8.458,8.458,8.458,8.458,8.458,8.4739,8.4792,8.489,8.489,8.5092,8.5498,8.6434,8.755,8.8454,8.9321,9.01,9.0521,9.0621,9.0701,9.0839,9.1033,9.1225,9.1378,9.162,9.173,9.1803,9.1803,9.1803,9.1803,9.1803,9.1803,9.1803,9.1987,9.2024,9.1987,9.1877,9.184,9.1987,9.2941,9.3822,9.4483,9.5474,9.6355,9.6539,9.6722,9.6722,9.6722,9.6722,9.6722,9.6722,9.6722,9.6722,9.6722,9.6722,9.6722,9.6722,9.6722,9.6722,9.6722,9.6722,9.6722,9.6722,9.6741,9.6724,9.68,9.6951,9.7045,9.7156,9.7285,9.7394,9.752,9.7646,9.777,9.7822,9.7752,9.7734,9.7822,9.784,9.777,9.7787,9.784,9.7874,9.784,9.7857,9.7892,9.7892,9.7892,8.0209,8.0209,8.0209,8.031,8.0547,8.075,8.1528,8.2678,8.3219,8.3659,8.3862,8.4377,8.4546,8.458,8.458,8.458,8.458,8.458,8.458,8.458,8.458,8.458,8.458,8.458,8.458,8.458,8.458,8.458,8.458,8.458,8.458,8.458,8.4713,8.5022,8.5369,8.5677,8.5668,8.5845,8.6212,8.7173,8.8229,8.9019,8.9815,9.038,9.0637,9.0661,9.0819,9.1014,9.1206,9.1396,9.162,9.1767,9.1785,9.1803,9.1803,9.1803,9.1803,9.1803,9.1803,9.1803,9.206,9.2611,9.2721,9.2281,9.2207,9.2501,9.3235,9.4079,9.4813,9.5694,9.6355,9.6612,9.6722,9.6722,9.6722,9.6722,9.6722,9.6722,9.6722,9.6722,9.6722,9.6722,9.6722,9.6722,9.6722,9.6722,9.6722,9.6741,9.676,9.678,9.6743,9.6781,9.6951,9.7119,9.7193,9.7285,9.743,9.7573,9.7717,9.7787,9.784,9.7874,9.7892,9.7892,9.7892,9.7892,9.7874,9.7892,9.7892,9.7892,9.7874,9.7892,9.7892,9.7892,9.7892,8.0209,8.0209,8.0209,8.0209,8.0209,8.0209,8.075,8.1596,8.2306,8.2881,8.3524,8.3964,8.4309,8.458,8.458,8.458,8.458,8.458,8.458,8.458,8.458,8.458,8.458,8.458,8.458,8.458,8.458,8.458,8.458,8.458,8.458,8.4633,8.4864,8.5498,8.5996,8.6459,8.6982,8.7173,8.7527,8.8093,8.8743,8.9485,9.0161,9.0541,9.0701,9.0819,9.1014,9.1225,9.1377,9.1527,9.1712,9.1803,9.1803,9.1803,9.1803,9.1803,9.1803,9.206,9.2281,9.2391,9.2831,9.3308,9.3565,9.3345,9.3235,9.3418,9.4042,9.474,9.5254,9.5749,9.6282,9.6722,9.6722,9.6722,9.6722,9.6722,9.6722,9.6722,9.6722,9.6722,9.6722,9.6722,9.6722,9.6722,9.6722,9.6722,9.6724,9.6762,9.6819,9.6876,9.6876,9.6876,9.7101,9.7303,9.7358,9.743,9.7628,9.7752,9.7805,9.7857,9.7892,9.7892,9.7892,9.7892,9.7892,9.7892,9.7892,9.7892,9.7892,9.7892,9.7892,9.7892,9.7892,9.7892,9.7892,8.0209,8.0209,8.0209,8.0209,8.0209,8.0276,8.0378,8.0378,8.1257,8.2137,8.3253,8.3558,8.4099,8.4546,8.458,8.458,8.458,8.458,8.458,8.458,8.458,8.458,8.458,8.458,8.458,8.458,8.458,8.458,8.458,8.4606,8.466,8.4739,8.5524,8.6212,8.6849,8.741,8.8058,8.8809,8.8976,8.9236,8.9506,9.0105,9.0701,9.0878,9.0956,9.1014,9.1225,9.1377,9.149,9.1601,9.1675,9.1803,9.1803,9.1803,9.1803,9.2024,9.2097,9.2537,9.2978,9.3161,9.3639,9.4079,9.4392,9.4446,9.4483,9.4299,9.4813,9.518,9.5658,9.6061,9.6539,9.6685,9.6722,9.6722,9.6722,9.6722,9.6722,9.6722,9.6722,9.6722,9.6722,9.6722,9.6722,9.6722,9.6722,9.6722,9.6741,9.6781,9.6914,9.6989,9.7026,9.7045,9.7248,9.7448,9.752,9.7646,9.7787,9.7874,9.7892,9.7892,9.7892,9.7892,9.7892,9.7892,9.7892,9.7892,9.7892,9.7892,9.7892,9.7892,9.7892,9.7892,9.7892,9.7909,9.7892,8.0209,8.0209,8.0209,8.0209,8.0276,8.0809,8.1021,8.1088,8.1832,8.234,8.2847,8.3795,8.4377,8.4546,8.458,8.458,8.458,8.458,8.458,8.458,8.458,8.458,8.458,8.458,8.458,8.458,8.458,8.458,8.4606,8.4686,8.5048,8.5651,8.6286,8.6873,8.8048,8.861,8.9192,9.0017,9.012,9.0166,9.0389,9.0565,9.0917,9.1072,9.1149,9.1244,9.1396,9.1471,9.162,9.1712,9.1767,9.1803,9.1803,9.1803,9.217,9.2648,9.2758,9.3272,9.3749,9.4079,9.4446,9.4923,9.529,9.5658,9.5694,9.5401,9.5364,9.5658,9.5988,9.6355,9.6612,9.6685,9.6722,9.6722,9.6722,9.6722,9.6722,9.6722,9.6722,9.6722,9.6722,9.6722,9.6722,9.6722,9.6722,9.6722,9.6722,9.6781,9.7007,9.7138,9.7248,9.7285,9.7412,9.7573,9.7681,9.7752,9.7857,9.7892,9.7892,9.7892,9.7892,9.7892,9.7892,9.7892,9.7892,9.7892,9.7892,9.7892,9.7892,9.7892,9.7892,9.7892,9.7961,9.7941,9.7926,8.0209,8.0209,8.0209,8.0412,8.0716,8.1148,8.146,8.19,8.2577,8.2881,8.2949,8.3761,8.4275,8.4546,8.458,8.458,8.458,8.458,8.458,8.458,8.458,8.458,8.458,8.458,8.458,8.458,8.458,8.4606,8.4713,8.517,8.5693,8.6286,8.6825,8.7933,8.9207,8.9506,8.9981,9.0541,9.0697,9.0839,9.0995,9.0995,9.1091,9.1225,9.1377,9.1471,9.1564,9.1638,9.1694,9.1785,9.1803,9.1803,9.1913,9.2207,9.2611,9.3051,9.3418,9.3969,9.4556,9.496,9.518,9.5694,9.6025,9.6318,9.6318,9.6061,9.6061,9.6282,9.6318,9.6649,9.6649,9.6685,9.6722,9.6722,9.6722,9.6722,9.6722,9.6722,9.6722,9.6722,9.6722,9.6722,9.6722,9.6722,9.676,9.6857,9.6838,9.6989,9.7175,9.7285,9.7394,9.7539,9.7646,9.7717,9.7787,9.7822,9.7874,9.7892,9.7892,9.7892,9.7892,9.7892,9.7892,9.7892,9.7892,9.7892,9.7892,9.7892,9.7892,9.7892,9.7892,9.7892,9.7958,9.8125,9.8303,8.0209,8.0209,8.031,8.0716,8.1317,8.1554,8.1968,8.2611,8.3321,8.3625,8.3625,8.3693,8.4065,8.4411,8.458,8.458,8.458,8.458,8.458,8.458,8.458,8.458,8.458,8.458,8.458,8.4739,8.4838,8.489,8.4995,8.5744,8.6483,8.6825,8.7887,8.9171,8.9527,9.0002,9.0601,9.0681,9.0799,9.1014,9.1072,9.1091,9.1282,9.1433,9.1528,9.1657,9.1749,9.1803,9.1803,9.1913,9.2024,9.2281,9.2537,9.2978,9.3345,9.3786,9.4189,9.485,9.5418,9.5639,9.6061,9.6465,9.6649,9.6685,9.6685,9.6685,9.6649,9.6649,9.6685,9.6685,9.6685,9.6722,9.6722,9.6722,9.6722,9.6722,9.6722,9.6722,9.6722,9.6722,9.6722,9.6722,9.6722,9.6722,9.68,9.6951,9.7119,9.7303,9.7448,9.7466,9.7538,9.7681,9.7787,9.784,9.7874,9.7892,9.7892,9.7892,9.7892,9.7892,9.7892,9.7892,9.7892,9.7892,9.7892,9.7892,9.7892,9.7892,9.7892,9.7926,9.8125,9.8204,9.832,9.8488,9.8817,8.0209,8.0242,8.0843,8.119,8.146,8.2569,8.3152,8.3389,8.4065,8.4377,8.4309,8.4377,8.4512,8.458,8.458,8.458,8.458,8.458,8.458,8.458,8.458,8.458,8.4686,8.4819,8.4633,8.4917,8.5404,8.5804,8.5971,8.6825,8.7713,8.841,8.8566,8.9527,9.0263,9.0621,9.0681,9.078,9.0936,9.111,9.1322,9.1433,9.1546,9.1657,9.1767,9.1785,9.1803,9.1803,9.1803,9.1987,9.2464,9.3051,9.3492,9.3859,9.4263,9.463,9.507,9.5584,9.6061,9.6245,9.6612,9.6612,9.6722,9.6722,9.6685,9.6685,9.6685,9.6685,9.6685,9.6685,9.6722,9.6722,9.6722,9.6722,9.6722,9.6722,9.6722,9.6722,9.6722,9.6722,9.6722,9.6722,9.6722,9.6762,9.6895,9.7045,9.7156,9.7339,9.7573,9.7627,9.7717,9.7805,9.7892,9.7892,9.7892,9.7892,9.7892,9.7892,9.7892,9.7892,9.7892,9.7892,9.7892,9.7892,9.7892,9.7892,9.7892,9.7892,9.8012,9.8078,9.8429,9.8592,9.8686,9.899,9.9362]}]]